[[{"header":{"parameterUnit":"m.s-1","parameterCategory":1,"la1":30.6,"la2":29.2853,"lo1":-89.7004,"lo2":-87.6739,"dy":0.0162,"dx":0.0183,"nx":112,"ny":82,"refTime":"2024-12-05T18:00:00:Z","depth":0,"parameterNumber":2,"parameterNumberName":"U-component_of_WINDS"},"data":[0.0,0.0,0.0,0.0,0.0,0.0,0.0,0.0,0.0,0.0,0.0,0.0,0.0,0.0,0.0,0.0,0.0,0.0,0.0,0.0,0.0,0.0,0.0,0.0,0.0,0.0,0.0,0.0,0.0,0.0,0.0,0.0,0.0,0.0,0.0,0.0,0.0,0.0,0.0,0.0,0.0,0.0,0.0,0.0,0.0,0.0,0.0,0.0,0.0,0.0,0.0,0.0,0.0,0.0,0.0,0.0,0.0,0.0,0.0,0.0,0.0,0.0,0.0,0.0,0.0,0.0,0.0,0.0,0.0,0.0,0.0,0.0,0.0,0.0,0.0,0.0,0.0,0.0,0.0,0.0,0.0,0.0,0.0,0.0,0.0,0.0,0.0,0.0,0.0,0.0,-3.4311,-3.7709,-4.21,-4.4448,-4.3565,-4.1788,-3.8595,-3.3615,0.0,0.0,0.0,0.0,0.0,0.0,0.0,0.0,0.0,0.0,0.0,0.0,0.0,0.0,0.0,0.0,0.0,0.0,0.0,0.0,0.0,0.0,0.0,0.0,0.0,0.0,0.0,0.0,0.0,0.0,0.0,0.0,0.0,0.0,0.0,0.0,0.0,0.0,0.0,0.0,0.0,0.0,0.0,0.0,0.0,0.0,0.0,0.0,0.0,0.0,0.0,0.0,0.0,0.0,0.0,0.0,0.0,0.0,0.0,0.0,0.0,0.0,0.0,0.0,0.0,0.0,0.0,0.0,0.0,0.0,0.0,0.0,0.0,0.0,0.0,0.0,0.0,0.0,0.0,0.0,0.0,0.0,0.0,0.0,0.0,0.0,0.0,0.0,0.0,0.0,0.0,0.0,0.0,0.0,0.0,0.0,0.0,0.0,0.0,0.0,0.0,0.0,0.0,0.0,-3.4819,-4.1708,-4.3807,-4.4383,-4.3562,-4.1273,-3.8,-3.3571,0.0,0.0,0.0,0.0,0.0,0.0,0.0,0.0,0.0,0.0,0.0,0.0,0.0,0.0,0.0,0.0,0.0,0.0,0.0,0.0,0.0,0.0,0.0,0.0,0.0,0.0,0.0,0.0,0.0,0.0,0.0,0.0,0.0,0.0,0.0,0.0,0.0,0.0,0.0,0.0,0.0,0.0,0.0,0.0,0.0,0.0,0.0,0.0,0.0,0.0,0.0,0.0,0.0,0.0,0.0,0.0,0.0,0.0,0.0,0.0,0.0,0.0,0.0,0.0,0.0,0.0,0.0,0.0,0.0,0.0,0.0,0.0,0.0,0.0,0.0,0.0,0.0,0.0,0.0,0.0,0.0,0.0,0.0,0.0,0.0,0.0,0.0,0.0,0.0,0.0,0.0,0.0,0.0,0.0,0.0,0.0,0.0,0.0,0.0,0.0,0.0,0.0,0.0,-3.2949,-3.6901,-4.272,-4.4135,-4.4308,-4.3456,-4.1053,-3.7786,-3.3518,-2.9975,0.0,0.0,0.0,0.0,0.0,0.0,0.0,0.0,0.0,0.0,0.0,0.0,0.0,0.0,0.0,0.0,0.0,0.0,0.0,0.0,0.0,0.0,0.0,0.0,0.0,0.0,0.0,0.0,0.0,0.0,0.0,0.0,0.0,0.0,0.0,0.0,0.0,0.0,0.0,0.0,0.0,0.0,0.0,0.0,0.0,0.0,0.0,0.0,0.0,0.0,0.0,0.0,0.0,0.0,0.0,0.0,0.0,0.0,0.0,0.0,0.0,0.0,0.0,0.0,0.0,0.0,0.0,0.0,0.0,0.0,0.0,0.0,0.0,0.0,0.0,0.0,0.0,0.0,0.0,0.0,0.0,0.0,0.0,0.0,0.0,0.0,0.0,0.0,0.0,0.0,0.0,0.0,0.0,0.0,0.0,0.0,0.0,0.0,0.0,0.0,0.0,0.0,-3.7185,-3.9224,-4.2918,-4.3711,-4.373,-4.3053,-4.0294,-3.7063,-3.3433,-2.8615,0.0,0.0,0.0,0.0,0.0,0.0,0.0,0.0,0.0,0.0,0.0,0.0,0.0,0.0,0.0,0.0,0.0,0.0,0.0,0.0,0.0,0.0,0.0,0.0,0.0,0.0,0.0,0.0,0.0,0.0,0.0,0.0,0.0,0.0,0.0,0.0,0.0,0.0,0.0,0.0,0.0,0.0,0.0,0.0,0.0,0.0,0.0,0.0,0.0,0.0,0.0,0.0,0.0,0.0,0.0,0.0,0.0,0.0,0.0,0.0,0.0,0.0,0.0,0.0,0.0,0.0,0.0,0.0,0.0,0.0,0.0,0.0,0.0,0.0,0.0,0.0,0.0,0.0,0.0,0.0,0.0,0.0,0.0,0.0,0.0,0.0,0.0,0.0,0.0,0.0,0.0,0.0,0.0,0.0,0.0,0.0,0.0,0.0,0.0,0.0,0.0,0.0,-3.8056,-4.1235,-4.3092,-4.2628,-4.2164,-4.2106,-3.8334,-3.518,-3.3315,-2.6951,0.0,0.0,0.0,0.0,0.0,0.0,0.0,0.0,0.0,0.0,0.0,0.0,0.0,0.0,0.0,0.0,0.0,0.0,0.0,0.0,0.0,0.0,0.0,0.0,0.0,0.0,0.0,0.0,0.0,0.0,0.0,0.0,0.0,0.0,0.0,0.0,0.0,0.0,0.0,0.0,0.0,0.0,0.0,0.0,0.0,0.0,0.0,0.0,0.0,0.0,0.0,0.0,0.0,0.0,0.0,0.0,0.0,0.0,0.0,0.0,0.0,0.0,0.0,0.0,0.0,0.0,0.0,0.0,0.0,0.0,0.0,0.0,0.0,0.0,0.0,0.0,0.0,0.0,0.0,0.0,0.0,0.0,0.0,0.0,0.0,0.0,0.0,0.0,0.0,0.0,0.0,0.0,0.0,0.0,0.0,0.0,0.0,0.0,0.0,0.0,0.0,0.0,-3.6862,-4.0036,0.0,-4.2202,-4.2009,-4.2009,-3.8586,-3.527,-3.2493,0.0,0.0,0.0,0.0,0.0,0.0,0.0,0.0,0.0,0.0,0.0,0.0,0.0,0.0,0.0,0.0,0.0,0.0,0.0,0.0,0.0,0.0,0.0,0.0,0.0,0.0,0.0,0.0,0.0,0.0,0.0,0.0,0.0,0.0,0.0,0.0,0.0,0.0,0.0,0.0,0.0,0.0,0.0,0.0,0.0,0.0,0.0,0.0,0.0,0.0,0.0,0.0,0.0,0.0,0.0,0.0,0.0,0.0,0.0,0.0,0.0,0.0,0.0,0.0,0.0,0.0,0.0,0.0,0.0,0.0,0.0,0.0,0.0,0.0,0.0,0.0,0.0,0.0,0.0,0.0,0.0,0.0,0.0,0.0,0.0,0.0,0.0,0.0,0.0,0.0,0.0,0.0,0.0,0.0,0.0,0.0,0.0,0.0,0.0,0.0,0.0,0.0,-3.2585,-3.6336,-3.9379,0.0,-4.1622,-4.1506,-4.1235,-3.8063,-3.4775,-3.1618,0.0,0.0,0.0,0.0,0.0,0.0,0.0,0.0,0.0,0.0,0.0,0.0,0.0,0.0,0.0,0.0,0.0,0.0,0.0,0.0,0.0,0.0,0.0,0.0,0.0,0.0,0.0,0.0,0.0,0.0,0.0,0.0,0.0,0.0,0.0,0.0,0.0,0.0,0.0,0.0,0.0,0.0,0.0,0.0,0.0,0.0,0.0,0.0,0.0,0.0,0.0,0.0,0.0,0.0,0.0,0.0,0.0,0.0,0.0,0.0,0.0,0.0,0.0,0.0,0.0,0.0,0.0,0.0,0.0,0.0,0.0,0.0,0.0,0.0,0.0,0.0,0.0,0.0,0.0,0.0,0.0,0.0,0.0,0.0,0.0,0.0,0.0,0.0,0.0,0.0,0.0,0.0,0.0,0.0,0.0,0.0,0.0,0.0,0.0,0.0,0.0,0.0,-3.2662,-3.6845,-3.9829,-4.0719,-4.0797,-4.0448,-3.9578,-3.6367,-3.3311,0.0,0.0,0.0,0.0,0.0,0.0,0.0,0.0,0.0,0.0,0.0,0.0,0.0,0.0,0.0,0.0,0.0,0.0,0.0,0.0,0.0,0.0,0.0,0.0,0.0,0.0,0.0,0.0,0.0,0.0,0.0,0.0,0.0,0.0,0.0,0.0,0.0,0.0,0.0,0.0,0.0,0.0,0.0,0.0,0.0,0.0,0.0,0.0,0.0,0.0,0.0,0.0,0.0,0.0,0.0,0.0,0.0,0.0,0.0,0.0,0.0,0.0,0.0,0.0,0.0,0.0,0.0,0.0,0.0,0.0,0.0,0.0,0.0,0.0,0.0,0.0,0.0,0.0,0.0,0.0,0.0,0.0,0.0,0.0,0.0,0.0,0.0,0.0,0.0,0.0,0.0,0.0,0.0,0.0,0.0,0.0,0.0,0.0,0.0,0.0,0.0,0.0,0.0,-3.2662,-3.6845,-3.9829,-4.0719,-4.0797,-4.0448,-3.9578,-3.6367,-3.3059,-2.9882,0.0,0.0,0.0,0.0,0.0,0.0,0.0,0.0,0.0,0.0,0.0,0.0,0.0,0.0,0.0,0.0,0.0,0.0,0.0,0.0,0.0,0.0,0.0,0.0,0.0,0.0,0.0,0.0,0.0,0.0,0.0,0.0,0.0,0.0,0.0,0.0,0.0,0.0,0.0,0.0,0.0,0.0,0.0,0.0,0.0,0.0,0.0,0.0,0.0,0.0,0.0,0.0,0.0,0.0,0.0,0.0,0.0,0.0,0.0,0.0,0.0,0.0,0.0,0.0,0.0,0.0,0.0,0.0,0.0,0.0,0.0,0.0,0.0,0.0,0.0,0.0,0.0,0.0,0.0,0.0,0.0,0.0,0.0,0.0,0.0,0.0,0.0,0.0,0.0,0.0,0.0,0.0,0.0,0.0,0.0,0.0,0.0,0.0,0.0,0.0,0.0,0.0,-3.2565,-3.6535,-3.9462,-4.0681,-4.0487,-3.9926,-3.905,-3.6173,-3.2943,-2.9519,0.0,0.0,0.0,0.0,0.0,0.0,0.0,0.0,0.0,0.0,0.0,0.0,0.0,0.0,0.0,0.0,0.0,0.0,0.0,0.0,0.0,0.0,0.0,0.0,0.0,0.0,0.0,0.0,0.0,0.0,0.0,0.0,0.0,0.0,0.0,0.0,0.0,0.0,0.0,0.0,0.0,0.0,0.0,0.0,0.0,0.0,0.0,0.0,0.0,0.0,0.0,0.0,0.0,0.0,0.0,0.0,0.0,0.0,0.0,0.0,0.0,0.0,0.0,0.0,0.0,0.0,0.0,0.0,0.0,0.0,0.0,0.0,0.0,0.0,0.0,0.0,0.0,0.0,0.0,0.0,0.0,0.0,0.0,0.0,0.0,0.0,0.0,0.0,0.0,0.0,0.0,0.0,0.0,0.0,0.0,0.0,0.0,0.0,0.0,0.0,0.0,0.0,-3.2449,-3.6085,-3.8876,-4.0603,-4.0023,-3.9152,-3.827,-3.5858,-3.2943,-2.9519,0.0,0.0,0.0,0.0,0.0,0.0,0.0,0.0,0.0,0.0,0.0,0.0,0.0,0.0,0.0,0.0,0.0,0.0,0.0,0.0,0.0,0.0,0.0,0.0,0.0,0.0,0.0,0.0,0.0,0.0,0.0,0.0,0.0,0.0,0.0,0.0,0.0,0.0,0.0,0.0,0.0,0.0,0.0,0.0,0.0,0.0,0.0,0.0,0.0,0.0,0.0,0.0,0.0,0.0,0.0,0.0,0.0,0.0,0.0,0.0,-2.5476,0.0,0.0,0.0,0.0,0.0,0.0,0.0,0.0,0.0,0.0,0.0,0.0,0.0,0.0,0.0,0.0,0.0,0.0,0.0,0.0,0.0,0.0,0.0,0.0,0.0,0.0,0.0,0.0,0.0,0.0,0.0,0.0,0.0,0.0,0.0,0.0,0.0,0.0,0.0,0.0,0.0,-3.2449,-3.6085,-3.8876,-4.0603,-4.0023,-3.9152,-3.827,-3.5858,-3.2943,-2.9519,-2.5917,0.0,0.0,0.0,0.0,0.0,0.0,0.0,0.0,0.0,0.0,0.0,0.0,0.0,0.0,0.0,0.0,0.0,0.0,0.0,0.0,0.0,0.0,0.0,0.0,0.0,0.0,0.0,0.0,0.0,0.0,0.0,0.0,0.0,0.0,0.0,0.0,0.0,0.0,0.0,0.0,0.0,0.0,0.0,0.0,0.0,0.0,0.0,0.0,0.0,0.0,0.0,0.0,0.0,0.0,0.0,0.0,0.0,0.0,0.0,0.0,-2.7858,0.0,0.0,0.0,0.0,0.0,0.0,0.0,0.0,0.0,0.0,0.0,0.0,0.0,0.0,0.0,0.0,0.0,0.0,0.0,0.0,0.0,0.0,0.0,0.0,0.0,0.0,0.0,0.0,0.0,0.0,0.0,0.0,0.0,0.0,0.0,0.0,0.0,0.0,0.0,0.0,-3.2488,-3.6085,-3.8721,-4.0023,-3.9404,-3.8528,-3.7657,-3.5626,-3.3291,-3.0675,-2.7696,0.0,0.0,0.0,0.0,0.0,0.0,0.0,0.0,0.0,0.0,0.0,0.0,0.0,0.0,0.0,0.0,0.0,0.0,0.0,0.0,0.0,0.0,0.0,0.0,0.0,0.0,0.0,0.0,0.0,0.0,0.0,0.0,0.0,0.0,0.0,0.0,0.0,0.0,0.0,0.0,0.0,0.0,0.0,0.0,0.0,0.0,0.0,0.0,0.0,0.0,0.0,0.0,0.0,-3.5317,-3.6173,-3.6593,-3.6878,-3.7298,-3.7646,-3.4947,-3.3285,-3.2265,-2.9714,0.0,0.0,0.0,0.0,0.0,0.0,0.0,0.0,0.0,0.0,0.0,0.0,0.0,0.0,0.0,0.0,0.0,0.0,0.0,0.0,0.0,0.0,0.0,0.0,-3.3652,-3.2861,0.0,0.0,0.0,0.0,0.0,0.0,0.0,0.0,0.0,0.0,0.0,0.0,-3.2778,-3.6182,-3.8528,-3.9404,-3.8721,-3.7845,-3.698,-3.5491,-3.3886,-3.214,-3.0056,-2.7353,0.0,0.0,0.0,0.0,0.0,0.0,0.0,0.0,0.0,0.0,0.0,0.0,0.0,0.0,0.0,0.0,0.0,0.0,0.0,0.0,0.0,0.0,0.0,0.0,0.0,0.0,0.0,0.0,0.0,0.0,0.0,0.0,-2.5043,-2.6087,0.0,0.0,0.0,0.0,0.0,0.0,0.0,0.0,0.0,0.0,0.0,0.0,0.0,-3.2991,-3.4833,-3.716,-3.8063,-3.7555,-4.0655,-4.1429,-4.0178,-4.157,-4.1879,-4.1338,-4.1593,0.0,-3.49,-3.2359,0.0,0.0,0.0,0.0,0.0,0.0,0.0,0.0,0.0,0.0,0.0,0.0,0.0,0.0,0.0,0.0,0.0,0.0,0.0,0.0,0.0,0.0,-3.4787,-3.5136,-3.5372,-3.5051,0.0,-3.0143,-2.685,-2.406,-2.2458,0.0,0.0,0.0,0.0,0.0,0.0,0.0,-3.3678,-3.6555,-3.8528,-3.9404,-3.8721,-3.7845,-3.698,-3.6052,-3.4775,-3.3049,-3.2604,-3.0888,-2.7469,-2.582,0.0,0.0,0.0,0.0,0.0,0.0,0.0,0.0,0.0,0.0,0.0,0.0,0.0,0.0,0.0,0.0,0.0,0.0,0.0,0.0,0.0,0.0,0.0,0.0,0.0,0.0,0.0,0.0,0.0,-2.4931,-2.7406,-2.6764,-2.7247,-2.6884,0.0,0.0,0.0,0.0,0.0,0.0,0.0,0.0,0.0,-3.5311,-3.5776,-3.7013,-3.9224,-4.0346,-4.1216,-4.1809,-4.3278,-4.3851,-4.3626,-4.4298,-4.4411,-4.4102,-4.4454,-4.3049,-4.0284,-3.6775,-3.4307,-3.2485,0.0,0.0,0.0,0.0,-3.0463,-3.1188,-3.3001,-3.2875,0.0,-3.1747,0.0,0.0,0.0,0.0,0.0,0.0,0.0,0.0,0.0,0.0,-3.6672,-3.7616,-3.8205,-3.834,-3.745,-3.5394,-3.2551,0.0,-2.7194,-2.5801,-2.3016,0.0,0.0,0.0,0.0,-3.1352,-3.4703,-3.6922,-3.8353,-3.8721,-3.7986,-3.7135,-3.6303,-3.5897,-3.5162,-3.3905,-3.3828,-3.2725,-3.025,-2.8528,-2.6262,0.0,0.0,0.0,0.0,0.0,0.0,0.0,0.0,0.0,0.0,0.0,0.0,0.0,0.0,0.0,0.0,0.0,0.0,0.0,0.0,0.0,0.0,0.0,0.0,0.0,0.0,0.0,0.0,-2.7368,-2.9379,-2.7886,-2.9611,-2.9592,0.0,0.0,0.0,0.0,0.0,0.0,-3.4325,-3.5433,-3.7096,-3.943,-3.9721,-4.0848,-4.2957,-4.2976,-4.3627,-4.4916,-4.4861,-4.5155,-4.5773,-4.5727,-4.5711,-4.5711,-4.5676,-4.5305,-4.4413,-4.0634,-3.818,-3.6561,-3.4225,-3.368,-3.4237,-3.4468,-3.4982,-3.5887,-3.7982,-3.8221,-3.7468,-3.6643,-3.5187,-3.3156,-3.0185,0.0,0.0,0.0,0.0,-3.355,-3.6027,-3.7148,-3.8005,-3.9474,-4.0332,-4.0623,-3.9965,-3.9146,-3.7212,0.0,-3.1719,-3.0424,-2.6768,0.0,0.0,0.0,0.0,-3.3402,-3.6013,-3.7425,-3.8193,-3.8193,-3.7419,-3.6574,-3.5762,-3.5704,-3.5419,-3.4781,-3.4723,-3.404,-3.2532,-3.0849,-2.8859,-2.6535,0.0,0.0,0.0,0.0,0.0,0.0,0.0,0.0,0.0,0.0,0.0,0.0,0.0,0.0,0.0,0.0,0.0,0.0,0.0,0.0,0.0,0.0,0.0,0.0,0.0,0.0,0.0,0.0,0.0,-3.0501,-3.3344,0.0,0.0,0.0,0.0,-3.4007,-3.5607,-3.698,-3.7883,-3.9553,-4.1274,-4.2995,-4.384,-4.4717,-4.5594,-4.5613,-4.565,-4.573,-4.5749,-4.5727,-4.5708,-4.5706,-4.5701,-4.5701,-4.564,-4.5575,-4.5353,-4.2768,-4.1131,-4.0073,-3.8354,-3.7719,-3.7834,-3.8661,-3.9015,-3.9176,-4.0073,-3.985,-3.9437,-4.1012,-3.9959,-3.7753,-3.5997,-3.4367,0.0,0.0,-3.5544,-3.6174,-3.8667,-3.9332,-3.9603,-4.0526,-4.0777,-4.0797,-4.0739,-4.0042,-3.8649,0.0,-3.4781,-3.3615,-3.1734,0.0,-3.1753,-3.2585,-3.3596,-3.5182,-3.7748,-3.8154,-3.8193,-3.8193,-3.7419,-3.6574,-3.5762,-3.5704,-3.5684,-3.5646,-3.5626,-3.5226,-3.4316,-3.2609,-3.0897,-2.9238,-2.5026,0.0,0.0,0.0,0.0,0.0,0.0,0.0,0.0,0.0,0.0,0.0,0.0,0.0,0.0,0.0,0.0,0.0,0.0,0.0,0.0,0.0,0.0,0.0,0.0,0.0,0.0,0.0,0.0,-3.3924,-3.6406,0.0,-3.4156,-3.5684,-3.7077,-3.7644,-3.9224,-4.081,-4.2235,-4.2918,-4.3769,-4.4871,-4.52,-4.551,-4.5807,-4.5798,-4.5803,-4.5807,-4.5754,-4.5722,-4.5706,-4.5657,-4.564,-4.564,-4.5622,-4.5594,-4.5537,-4.465,-4.3756,-4.2835,-4.172,-4.1277,-4.1316,-4.1623,-4.2066,-4.247,-4.2239,-4.2351,-4.2514,-4.2151,-4.1102,-3.9903,-3.9304,-3.9062,-3.911,-3.968,-4.0228,-4.0821,-4.1718,-4.1951,-4.1874,-4.1622,-4.1564,-4.1429,-4.0913,-4.0565,-4.0062,-3.9152,-3.7831,-3.6303,-3.4601,-3.4737,-3.5007,-3.4795,-3.5955,-3.7386,-3.8856,-3.9036,-3.8818,-3.8251,-3.7419,-3.6574,-3.5762,-3.5704,-3.5458,-3.4897,-3.4858,-3.4466,-3.3596,-3.2473,-3.1092,-2.9428,-2.6846,-2.3448,0.0,0.0,0.0,0.0,0.0,0.0,0.0,0.0,0.0,0.0,0.0,0.0,0.0,0.0,0.0,0.0,0.0,0.0,0.0,0.0,0.0,0.0,0.0,0.0,0.0,0.0,-3.6535,-3.6535,-3.905,-3.9791,-3.7237,-3.903,-4.0597,-4.1177,-4.2492,-4.3788,-4.4949,-4.5007,-4.5258,-4.5787,-4.5807,-4.58,-4.5805,-4.5803,-4.5792,-4.5762,-4.5726,-4.5693,-4.5657,-4.5622,-4.5594,-4.5594,-4.5594,-4.5594,-4.5594,-4.5594,-4.5267,-4.4682,-4.4143,-4.3932,-4.3932,-4.3932,-4.4278,-4.4671,-4.4141,-4.4366,-4.4635,-4.3331,-4.2586,-4.214,-4.1828,-4.2123,-4.2558,-4.2544,-4.2917,-4.3337,-4.3311,-4.3305,-4.315,-4.2589,-4.2202,-4.1854,-4.1313,-4.099,-4.0797,-4.0797,-3.9862,-3.8624,-3.7218,-3.7425,-3.7599,-3.7063,-3.7928,-3.8953,-3.9829,-3.9675,-3.9172,-3.829,-3.7419,-3.6574,-3.5762,-3.5438,-3.5013,-3.4432,-3.3852,-3.3267,-3.2681,-3.163,-3.0538,-2.9415,-2.7482,-2.4678,-2.0949,0.0,0.0,0.0,0.0,0.0,0.0,0.0,0.0,0.0,0.0,0.0,0.0,0.0,0.0,0.0,0.0,0.0,0.0,0.0,0.0,0.0,0.0,0.0,-3.3146,-3.6182,-3.8348,-3.8386,-4.1351,-4.2415,-3.9946,-4.2686,-4.4632,-4.4632,-4.5355,-4.5807,-4.5807,-4.5807,-4.5807,-4.5807,-4.5807,-4.5805,-4.5807,-4.5807,-4.5762,-4.5701,-4.5701,-4.5657,-4.5594,-4.5594,-4.5594,-4.5594,-4.5594,-4.5594,-4.5594,-4.5594,-4.5594,-4.5594,-4.5594,-4.5594,-4.5594,-4.5594,-4.5594,-4.5622,-4.5684,-4.5706,-4.5573,-4.48,-4.4634,-4.4582,-4.3723,-4.3519,-4.3549,-4.3481,-4.347,-4.3469,-4.3395,-4.3382,-4.3363,-4.3343,-4.2705,-4.2067,-4.2009,-4.139,-4.0835,-4.0797,-4.0797,-4.0526,-3.9694,-3.9539,-3.9539,-3.9539,-3.9539,0.0,-4.07,-4.0062,-3.921,-3.8328,-3.7464,-3.6613,-3.58,-3.4916,-3.4374,-3.4316,-3.2706,-3.1753,-3.1715,-3.023,-2.9398,-2.9401,-2.6963,-2.5273,-2.4434,0.0,0.0,0.0,0.0,0.0,0.0,0.0,0.0,0.0,0.0,0.0,0.0,0.0,0.0,0.0,0.0,0.0,0.0,0.0,0.0,0.0,-3.3576,-3.651,-3.6762,-3.9204,-4.1429,-4.2679,-4.4194,-4.484,-4.4143,-4.4917,-4.5471,-4.5471,-4.5671,-4.5807,-4.5807,-4.5807,-4.5807,-4.5807,-4.5807,-4.5805,-4.5807,-4.5758,-4.5719,-4.5701,-4.5648,-4.5622,-4.5594,-4.5594,-4.5594,-4.5594,-4.5594,-4.5594,-4.5594,-4.5594,-4.5594,-4.5594,-4.5594,-4.5594,-4.5594,-4.5594,-4.5594,-4.5622,-4.5684,-4.5706,-4.5677,-4.5503,-4.5471,-4.5454,-4.5215,-4.5144,-4.5162,-4.5151,-4.5138,-4.5131,-4.5117,-4.5104,-4.4968,-4.4388,-4.4052,-4.3537,-4.228,-4.1835,-4.1506,-4.0913,-4.0797,-4.0719,-4.0487,-4.0448,-4.0448,-4.0448,-4.0448,0.0,-4.0777,-4.0584,-4.012,-3.9249,-3.8353,-3.7502,-3.6632,-3.5245,-3.3871,-3.259,-3.1526,-3.0656,-3.0017,-2.9613,-2.9459,-2.9544,-2.7011,-2.5586,0.0,0.0,0.0,0.0,0.0,0.0,0.0,0.0,0.0,0.0,0.0,0.0,0.0,0.0,0.0,0.0,0.0,0.0,0.0,0.0,0.0,0.0,-3.7154,-4.0055,-4.0784,-4.2164,-4.3595,-4.4949,-4.551,-4.5807,-4.5807,-4.5807,-4.5807,-4.5807,-4.5807,-4.5807,-4.5807,-4.5807,-4.5807,-4.5807,-4.5807,-4.5798,-4.5765,-4.5715,-4.5695,-4.5648,-4.5622,-4.5594,-4.5594,-4.5594,-4.5594,-4.5594,-4.5594,-4.5594,-4.5594,-4.5594,-4.5594,0.0,0.0,0.0,0.0,0.0,-4.5594,-4.5603,-4.569,-4.5703,-4.5715,-4.5776,-4.5805,-4.5807,-4.5807,-4.5807,-4.5807,-4.5807,-4.5807,-4.5807,-4.5807,-4.5807,-4.5691,-4.52,-4.4852,-4.4323,-4.3305,-4.2512,-4.1854,-4.139,-4.1029,0.0,-4.0797,-4.0797,-4.0797,-4.0797,-4.0797,-4.0797,-4.0797,-4.0797,-4.0468,-3.9597,-3.8721,-3.7845,-3.698,-3.5356,0.0,0.0,0.0,-3.0072,-2.8879,-2.9238,0.0,0.0,0.0,0.0,0.0,0.0,0.0,0.0,-2.7105,-2.7085,0.0,0.0,0.0,0.0,0.0,0.0,0.0,0.0,0.0,0.0,0.0,0.0,0.0,0.0,0.0,0.0,-4.0578,-4.286,-4.4504,-4.4736,-4.5007,-4.5729,-4.5807,-4.5807,-4.5807,-4.5807,-4.5807,-4.5807,-4.5807,-4.5807,-4.5807,0.0,0.0,0.0,0.0,-4.5771,-4.5708,-4.5708,-4.566,-4.5594,-4.5594,-4.5594,-4.5594,-4.5594,-4.5594,-4.5594,-4.5594,-4.5594,-4.5594,-4.5594,-4.5594,-4.5594,-4.5594,-4.5594,-4.5594,-4.5594,-4.5594,-4.5603,-4.5668,0.0,0.0,-4.5778,-4.58,-4.5807,-4.5807,-4.5807,-4.5807,-4.5807,-4.5807,-4.5807,-4.5807,-4.5807,-4.5807,-4.5807,-4.5258,-4.471,-4.4613,-4.3305,-4.2125,-4.2028,-4.1351,-4.0797,-4.0797,-4.0797,-4.0797,-4.0797,-4.0797,-4.0797,-4.0797,-4.0797,-4.0507,-3.9733,0.0,0.0,-3.727,-3.5568,-3.4176,-3.33,-3.1671,-3.0114,-2.8706,-2.9564,-3.0465,-3.1307,-3.2127,-3.3297,-3.4856,-3.4953,-3.5439,-3.6177,-3.1395,-3.0479,0.0,0.0,0.0,0.0,0.0,0.0,0.0,0.0,0.0,0.0,0.0,0.0,0.0,0.0,0.0,-3.8998,-4.197,-4.4446,-4.5432,-4.5568,-4.5633,-4.5787,-4.5807,-4.5807,-4.5807,-4.5807,-4.5807,-4.5807,-4.5807,-4.5807,-4.5807,-4.5807,-4.5807,-4.5807,-4.5807,-4.5771,-4.5708,-4.5708,-4.566,-4.5594,0.0,0.0,-4.5594,-4.5594,-4.5594,-4.5594,-4.5594,-4.5594,-4.5594,-4.5594,-4.5594,-4.5594,-4.5594,-4.5594,-4.5594,-4.5594,-4.5594,-4.5603,-4.5673,-4.5695,-4.5715,-4.5781,-4.5798,-4.5807,-4.5807,-4.5807,0.0,-4.5807,-4.5807,-4.5807,-4.5807,-4.5807,-4.5807,-4.5807,-4.5691,-4.5394,-4.4736,-4.3788,-4.2841,-4.2144,-4.1351,-4.0797,-4.0797,-4.0797,-4.0797,-4.0797,-4.0797,-4.0797,-4.0797,-4.0797,-4.0739,-4.0565,-3.9771,-3.9172,-3.9017,-3.6831,-3.509,-3.4195,-3.2576,-3.1568,-3.1352,-3.2803,-3.3729,-3.396,-3.4819,-3.5402,-3.5749,-3.6452,-3.7251,-3.8046,-3.5629,-3.5531,0.0,0.0,0.0,0.0,0.0,0.0,0.0,0.0,0.0,0.0,0.0,-3.3413,-3.4299,0.0,-4.0577,-4.1861,-4.3827,-4.5336,-4.5749,-4.5807,-4.5807,-4.5807,-4.5807,-4.5807,-4.5807,-4.5807,-4.5807,-4.5807,-4.5807,-4.5807,-4.5807,-4.5807,-4.5807,-4.5807,-4.5805,-4.5769,-4.5708,-4.5703,-4.5662,-4.5594,-4.5594,-4.5594,-4.5594,-4.5594,-4.5594,-4.5594,-4.5594,-4.5594,-4.5594,-4.5594,-4.5594,-4.5594,-4.5594,-4.5594,-4.5594,-4.5594,-4.5594,-4.5603,-4.5671,-4.5711,-4.5715,-4.5776,-4.5812,-4.5807,-4.5807,-4.5807,-4.5807,-4.5807,-4.5807,-4.5807,-4.5807,-4.5807,-4.5807,-4.5807,-4.5807,-4.5691,-4.5297,-4.4543,-4.3827,-4.3401,-4.226,-4.139,-4.139,-4.1067,-4.0797,-4.0797,-4.0797,-4.0797,-4.0797,-4.0797,-4.0797,-4.0797,-4.0023,-3.9501,-3.9501,-3.7563,-3.6164,-3.5737,-3.4562,-3.3922,-3.3997,-3.5252,-3.5976,-3.6006,-3.6865,-3.7507,-3.7891,-3.8771,-3.9648,-4.0483,-4.0057,-4.0096,0.0,0.0,0.0,0.0,0.0,0.0,0.0,0.0,-3.1118,-3.2147,-3.4821,-3.7374,-3.8808,-4.0986,-4.304,-4.4382,-4.5291,-4.5814,-4.5807,-4.5807,-4.5807,-4.5807,-4.5807,-4.5807,-4.5807,-4.5807,-4.5807,-4.5807,-4.5807,-4.5807,-4.5807,-4.5807,-4.5807,-4.5807,-4.581,-4.5765,-4.5708,-4.5706,-4.5676,-4.5594,-4.5594,-4.5594,-4.5594,-4.5594,-4.5594,-4.5594,-4.5594,-4.5594,-4.5594,-4.5594,-4.5594,-4.5594,-4.5594,-4.5594,-4.5594,-4.5594,-4.5594,-4.5603,-4.566,-4.5692,-4.5715,-4.5764,-4.5793,-4.5807,-4.5807,-4.5807,-4.5807,-4.5807,-4.5807,-4.5807,-4.5807,-4.5807,-4.5807,-4.5807,-4.5807,-4.5807,-4.5807,-4.5162,-4.4594,-4.4594,-4.3324,-4.2241,-4.2241,-4.1699,-4.1184,-4.0855,-4.0797,-4.0797,-4.0797,-4.0797,-4.0797,-4.0797,-4.0178,-3.9687,-3.9536,-3.8282,-3.7452,-3.7292,-3.6725,-3.6414,-3.6423,-3.7304,-3.7807,-3.7797,-3.8812,-3.9669,-4.0307,-4.1186,-4.2045,-4.2923,-4.3626,-4.3587,-2.832,-2.677,-2.6243,-2.8312,-2.9028,-3.036,0.0,0.0,-3.6684,-3.8335,-4.0121,-4.1466,-4.1731,-4.316,-4.4376,-4.457,-4.5325,-4.586,-4.5807,-4.5807,-4.5807,-4.5807,-4.5807,-4.5807,-4.5807,-4.5807,-4.5807,-4.5807,-4.5807,-4.5807,-4.5807,-4.5807,-4.5807,-4.5807,-4.581,-4.5765,-4.5708,-4.5706,-4.5676,-4.5594,-4.5594,-4.5594,-4.5594,-4.5594,-4.5594,-4.5594,-4.5594,-4.5594,-4.5594,-4.5594,-4.5594,-4.5594,-4.5594,-4.5594,-4.5594,-4.5594,-4.5594,-4.5594,-4.5603,-4.5643,-4.5708,-4.5715,-4.5749,-4.5807,-4.5807,-4.5807,-4.5807,-4.5807,-4.5807,-4.5807,-4.5807,-4.5807,-4.5807,-4.5807,-4.5807,-4.5807,-4.5807,-4.5162,-4.4594,-4.4594,-4.3827,-4.315,-4.315,-4.3073,-4.2512,-4.1029,-4.0797,-4.0797,-4.0797,-4.0797,-4.0797,-4.0797,-4.0719,-4.038,-3.9646,-3.9466,-3.9082,-3.8383,-3.8256,-3.8236,-3.8297,-3.9135,-3.958,-3.9528,-4.1148,-4.2025,-4.2103,-4.2982,-4.386,-4.4717,-4.4816,-4.4795,-3.2181,-3.1443,-3.1152,-3.2221,-3.3612,-3.5284,-3.7374,-3.861,-3.9665,-4.0903,-4.247,-4.3621,-4.3654,-4.4587,-4.5351,0.0,-4.5595,-4.5821,-4.5807,-4.5807,-4.5807,-4.5807,-4.5807,-4.5807,-4.5807,-4.5807,-4.5807,-4.5807,-4.5807,-4.5807,-4.5807,-4.5807,-4.5807,-4.5807,-4.6244,-4.6236,-4.5708,-4.6155,-4.6123,-4.5594,-4.5594,-4.5594,-4.5594,-4.5594,-4.5594,-4.5594,-4.5594,-4.5594,-4.5594,-4.5594,-4.5594,-4.5594,-4.5594,-4.5594,-4.5594,-4.5594,-4.5594,-4.5603,-4.5635,-4.5676,-4.5715,-4.5742,-4.5778,-4.5807,-4.5807,-4.5807,-4.5807,-4.5807,-4.5807,-4.5807,-4.5807,-4.5807,-4.5807,-4.5807,-4.5807,-4.5807,-4.5807,-4.5529,-4.5297,-4.5297,-4.4639,-4.4059,-4.4059,-4.3634,-4.3053,-4.2357,-4.1816,-4.1332,-4.0855,-4.0797,-4.0802,-4.0856,-4.0898,-4.0773,-4.0439,-4.0488,-4.0372,-4.0034,-4.0013,-4.0039,-4.0053,-4.089,-4.1333,-4.1303,-4.2533,-4.3157,-4.3157,-4.4036,-4.4641,-4.501,-4.5519,-4.5753,-3.4051,-3.4324,-3.4815,-3.5272,-3.73,-3.9245,-3.9424,-4.0774,-4.2145,-4.2792,-4.4053,-4.5054,-4.5051,-4.5524,-4.5873,-4.5827,-4.5821,-4.5814,-4.5807,-4.5807,-4.5807,-4.5807,-4.5807,-4.5807,-4.5807,-4.5807,-4.5807,-4.5807,-4.5807,-4.5904,-4.6155,-4.6155,-4.6271,-4.6523,-4.7051,-4.7069,-4.6422,-4.6957,-4.6797,-4.5951,-4.5951,-4.5825,-4.5594,-4.5594,-4.5594,-4.5594,-4.5594,-4.5594,-4.5594,-4.5594,-4.5594,-4.5594,-4.5594,-4.5594,-4.5594,-4.5594,-4.5594,-4.5603,-4.5679,-4.57,-4.5715,-4.5791,-4.58,-4.5807,-4.5807,-4.5807,-4.5807,-4.5807,-4.5807,-4.5807,-4.5807,-4.5807,-4.5807,-4.5807,-4.5807,-4.5807,-4.5807,-4.5807,-4.5807,-4.5807,-4.5336,-4.4929,-4.4929,-4.4407,-4.3904,-4.3692,-4.3131,-4.2415,-4.1603,-4.1305,-4.1103,-4.0935,-4.1,-4.1117,-4.1332,-4.1415,-4.155,-4.1806,-4.1816,-4.1813,-4.1828,-4.2429,-4.2755,-4.2767,-4.3606,-4.4055,-4.4055,-4.4933,-4.5363,-4.5363,-4.6007,-4.63,-3.2402,-3.3418,-3.5097,-3.6719,-3.9034,-4.1133,-4.1989,-4.349,-4.4695,-4.4715,-4.5373,-4.5958,-4.5958,-4.5929,-4.5899,-4.59,-4.59,-4.5867,-4.5807,-4.5807,-4.5807,-4.5807,-4.5807,-4.5807,0.0,-4.5807,-4.5807,-4.5807,-4.5807,-4.6174,-4.7018,-4.7057,-4.7444,-4.8295,-4.8276,-4.8254,-4.8216,-4.8112,-4.7663,-4.6846,-4.6846,-4.6413,-4.5594,-4.5594,-4.5594,-4.5594,-4.5594,-4.5594,-4.5594,-4.5594,-4.5594,-4.5594,-4.5594,-4.5594,-4.5594,-4.5594,-4.5594,-4.5622,-4.5684,-4.5687,-4.5715,-4.5773,-4.5798,-4.5807,-4.5807,-4.5807,-4.5807,-4.5807,-4.5807,-4.5807,-4.5807,-4.5807,-4.5807,-4.5807,-4.5807,-4.5807,-4.5807,-4.5807,-4.5807,-4.5807,-4.5787,-4.5768,-4.5768,-4.5749,-4.5452,-4.4678,-4.4536,-4.4207,-4.3343,-4.2538,-4.179,-4.1078,-4.1061,-4.14,-4.2183,-4.232,-4.2715,-4.3573,-4.3612,-4.3628,-4.3618,-4.3656,-4.3653,-4.3666,-4.4524,-4.4951,-4.4951,-4.5831,-4.6261,-4.6261,-4.628,-4.63,-3.6025,-3.7235,-3.864,-4.0945,-4.2558,-4.382,-4.4692,-4.53,-4.5654,-4.5604,-4.5354,-4.5132,-4.5134,-4.5116,-4.5092,-4.5034,-4.5512,-4.5886,-4.5807,-4.5807,-4.5807,-4.5807,-4.5807,0.0,0.0,0.0,0.0,-4.5807,-4.5807,-4.6174,-4.7038,-4.7096,-4.7502,-4.8372,-4.8847,-4.8844,-4.8312,-4.8738,-4.8548,-4.7702,-4.7154,-4.6432,-4.5594,-4.5594,-4.5594,-4.5594,-4.5594,-4.5594,-4.5594,-4.5594,-4.5594,-4.5594,-4.5594,-4.5594,-4.5594,-4.5594,-4.5631,-4.5665,-4.5687,-4.5692,-4.5715,-4.5783,-4.5793,-4.5807,-4.5807,-4.5807,-4.5807,-4.5807,-4.5807,-4.5807,-4.5807,-4.5807,-4.5807,-4.5807,-4.5807,-4.5807,-4.5807,-4.5807,-4.5807,-4.5807,-4.5807,-4.5807,-4.5807,-4.5807,-4.5737,-4.5561,-4.4544,-4.371,-4.34,-4.3218,-4.3005,-4.2748,-4.2784,-4.2929,-4.3203,-4.3241,-4.3395,-4.3686,-4.3703,-4.3699,-4.3695,-4.4257,-4.4564,-4.4563,-4.5421,-4.5851,-4.5851,-4.6163,-4.63,-4.63,-4.63,-4.63,-3.8405,-3.9865,-4.1283,-4.3587,-4.4778,-4.5507,-4.6074,-4.5913,-4.5531,-4.5187,-4.4402,-4.3696,-4.3371,-4.3321,-4.3491,-4.4086,-4.4641,-4.5189,-4.575,-4.5847,-4.584,-4.5807,-4.5807,-4.5807,0.0,0.0,0.0,-4.5807,-4.6097,-4.6631,-4.7521,-4.785,-4.8411,-4.9281,-4.9735,-4.9712,-4.92,-4.9643,-4.9433,-4.8548,-4.7432,-4.6605,-4.6047,-4.5748,-4.5594,-4.5594,-4.5594,-4.5594,-4.5594,-4.5594,-4.5594,-4.5594,-4.5594,-4.5594,-4.5594,-4.5594,-4.564,-4.5709,-4.5692,-4.5715,-4.5739,-4.5786,-4.5807,-4.5807,-4.5807,-4.5807,-4.5807,-4.5807,-4.5807,-4.5807,-4.5807,-4.5807,-4.5807,-4.5807,-4.5807,-4.5807,-4.5807,-4.5807,-4.5807,-4.5807,-4.5807,-4.5807,-4.5807,-4.5807,-4.5854,-4.598,-4.5065,-4.426,-4.3962,-4.4002,-4.3944,-4.3661,-4.3671,-4.3827,-4.4139,-4.4156,-4.4291,-4.4619,-4.4634,-4.463,-4.4629,-4.5169,-4.546,-4.546,-4.6007,-4.63,-4.63,-4.63,-4.63,-4.63,-4.63,-4.63,-3.9528,-4.124,-4.2942,-4.4639,-4.5637,-4.6191,-4.6132,-4.5409,-4.4487,-4.3569,-4.2636,-4.1703,0.0,0.0,-4.1329,-4.293,-4.3376,-4.4073,-4.5661,-4.5893,-4.5867,0.0,0.0,0.0,0.0,0.0,0.0,-4.5923,0.0,-4.7502,-4.8411,-4.9243,-5.0074,-5.0859,-5.0825,-5.0801,-5.0801,-5.0721,-5.0269,-4.9375,-4.7798,-4.7,-4.6923,-4.6067,-4.5671,-4.5671,-4.5614,-4.5594,-4.5594,-4.5594,-4.5594,-4.5594,-4.5594,-4.5594,-4.5594,-4.5594,-4.564,-4.569,-4.5692,-4.5731,-4.5795,-4.5793,-4.5807,-4.5807,-4.5807,-4.5807,-4.5807,-4.5807,-4.5807,-4.5807,-4.5807,-4.5807,-4.5807,-4.5807,-4.5807,-4.5807,-4.5807,-4.5807,-4.5807,-4.5807,-4.5807,-4.5807,-4.5807,-4.5814,-4.5848,-4.5991,-4.6052,-4.5835,-4.5065,-4.4972,-4.4673,-4.3906,-4.3828,-4.4179,-4.4998,-4.5076,-4.5425,-4.6254,-4.6293,-4.6309,-4.6302,-4.63,-4.63,-4.63,-4.63,-4.63,-4.63,-4.63,-4.63,-4.63,-4.63,-4.63,-4.2052,-4.3494,-4.4602,-4.5695,-4.6111,-4.6088,-4.5397,-4.454,-4.3456,-4.1897,-4.0359,-3.882,-3.7283,-3.9074,-4.0723,-4.0525,-4.3169,0.0,-4.5763,-4.584,0.0,-4.5807,0.0,-4.6767,-4.6767,-4.7366,0.0,0.0,-4.7347,-4.7753,-4.9301,-4.9591,-5.0074,-5.0859,-5.0825,-5.0801,-5.0801,-5.0721,-5.0269,-4.9394,-4.8971,-4.8413,-4.7778,-4.6951,-4.6567,-4.6528,-4.5874,-4.5594,-4.5594,-4.5594,-4.5594,-4.5594,-4.5594,-4.5594,-4.5594,-4.5594,-4.5646,-4.5692,-4.57,-4.5731,-4.5795,-4.5793,-4.5807,-4.5807,-4.5807,-4.5807,-4.5807,-4.5807,-4.5807,-4.5807,-4.5807,-4.5807,-4.5807,-4.5807,-4.5807,-4.5807,-4.5807,-4.5807,-4.5807,-4.5807,-4.5807,-4.5807,-4.5807,-4.5873,-4.5977,-4.6056,-4.6134,-4.6093,-4.5888,-4.5909,-4.5858,-4.5664,-4.5644,-4.5721,-4.5952,-4.5968,-4.606,-4.6285,-4.6303,-4.6303,-4.63,-4.63,-4.63,-4.63,-4.63,-4.63,-4.63,-4.63,-4.63,-4.63,-4.63,-4.63,-4.3762,-4.4914,-4.5695,-4.6183,-4.6007,-4.5377,-4.4053,-4.2791,-4.1168,-3.8613,-3.7293,-3.5941,-3.3858,-3.6269,-3.8659,-3.8924,0.0,0.0,-4.5699,-4.5847,-4.5975,0.0,-4.6806,0.0,-4.7637,-4.8101,-4.8566,0.0,-4.8527,-4.8662,-4.9649,-5.0035,-5.0434,-5.0898,-5.0825,-5.0803,-5.0758,-5.0721,-5.0462,-4.9971,-4.9586,-4.9144,-4.8644,-4.7817,-4.7231,-4.6865,0.0,-4.5951,-4.5594,-4.5594,-4.5594,-4.5594,-4.5594,-4.5594,-4.5594,-4.5594,-4.5635,-4.5708,-4.5708,-4.5746,-4.5798,-4.58,-4.5807,-4.5807,-4.5807,-4.5807,-4.5807,-4.5807,-4.5807,-4.5807,-4.5807,-4.5807,-4.5807,-4.5807,-4.5807,-4.5807,-4.5807,-4.5807,-4.5807,-4.5807,-4.5807,-4.5807,-4.5807,-4.5898,-4.6018,-4.6087,-4.6155,-4.6209,-4.624,-4.6288,-4.6308,-4.6308,-4.6308,-4.6306,-4.6302,-4.6296,-4.6309,-4.6302,-4.63,-4.63,-4.63,-4.63,-4.63,-4.63,-4.63,-4.63,-4.63,-4.63,-4.63,-4.63,-4.63,-4.63,-4.4933,-4.5714,-4.63,-4.63,-4.5636,-4.4498,-4.2571,-4.0702,-3.8374,-3.4874,-3.3925,-3.3021,-3.0673,-3.3151,-3.6102,-3.7832,0.0,-4.3105,-4.5544,-4.599,-4.6325,-4.7025,-4.7289,-4.7734,-4.8508,-4.8662,-4.9049,-4.9803,-4.9861,-4.9861,-4.9861,-5.0511,-5.0898,-5.0882,-5.0808,-5.0767,-5.0693,-5.0712,-5.0712,-5.0693,-4.9933,-4.9567,-4.9529,-4.8663,-4.7894,-4.724,-4.7096,-4.6624,-4.5941,-4.5941,-4.5941,-4.5941,-4.5941,-4.5941,-4.5941,-4.595,-4.5982,-4.6036,-4.5928,-4.5916,-4.5962,-4.5845,-4.5807,-4.5807,-4.5807,-4.5807,-4.5807,-4.5807,-4.5807,-4.5807,-4.5807,-4.5807,-4.5807,-4.5807,-4.5807,-4.5807,-4.5807,-4.5807,-4.5807,-4.5807,-4.5801,-4.5834,-4.5834,-4.5939,-4.605,-4.6105,-4.6165,-4.6238,-4.6289,-4.6308,-4.6308,-4.6308,-4.6308,-4.6306,-4.6302,-4.6297,-4.6291,-4.6302,-4.63,-4.63,-4.63,-4.63,-4.63,-4.63,-4.63,-4.63,-4.63,-4.63,-4.63,-4.63,-4.6417,-4.6475,-4.5831,-4.6183,-4.63,-4.63,-4.5636,-4.4341,-4.1808,-3.9357,0.0,-3.3079,-3.1189,-2.9821,-2.8677,-3.1826,-3.5187,-3.687,-4.0487,-4.3718,-4.5562,-4.6433,-4.6929,0.0,-4.8372,-4.932,-4.9455,-5.0074,0.0,0.0,-5.0685,-5.0685,-5.0685,-5.0821,-5.0874,-5.0827,-5.0747,-5.0711,-5.0712,-5.0712,-5.0712,-5.0712,-5.0558,-5.0481,-5.0442,-4.9567,-4.9106,-4.8933,-4.8202,0.0,-4.7663,-4.7663,-4.7663,-4.7663,-4.7663,-4.7663,-4.7663,-4.7736,-4.7788,-4.7753,-4.7098,-4.6866,-4.6748,-4.6039,-4.5807,-4.5807,-4.5807,-4.5807,-4.5807,-4.5807,-4.5807,-4.5807,-4.5807,-4.5807,-4.5807,-4.5807,-4.5807,-4.5807,-4.5807,-4.5807,-4.5807,-4.5807,-4.5899,-4.5969,-4.5969,-4.608,-4.6162,-4.6171,-4.624,-4.6289,-4.6308,-4.6308,-4.6308,-4.6308,-4.6308,-4.6308,-4.6302,-4.6301,-4.6296,-4.6302,-4.63,-4.63,-4.63,-4.63,-4.63,-4.63,-4.63,-4.63,-4.63,-4.63,-4.63,-4.6319,-4.7042,-4.7372,-4.6183,-4.63,-4.63,-4.63,-4.4953,-4.2838,-3.972,0.0,0.0,-3.0059,-2.8911,-2.8236,-2.6946,-3.0172,-3.346,-3.4712,-3.8135,-4.1545,-4.4136,-4.4852,-4.578,-4.756,-4.8508,-4.9378,-5.0241,-5.0666,-5.0898,-5.0898,-5.0898,-5.0898,-5.0898,-5.0901,-5.0861,-5.0801,-5.0729,-5.0692,-5.0712,-5.0712,-5.0712,-5.0712,-5.0712,-5.0712,-5.0693,-5.0269,-4.9817,-4.9375,-4.8952,0.0,-4.8105,-4.8105,-4.8105,-4.8105,-4.8105,-4.8124,-4.8151,-4.8197,-4.8229,-4.8248,-4.7867,-4.7743,-4.7715,-4.7289,-4.6542,-4.5807,-4.5807,-4.5807,-4.5807,-4.5807,-4.5807,-4.5807,-4.5807,-4.5807,-4.5807,-4.5807,-4.5807,-4.5807,-4.5807,-4.5841,-4.5892,-4.5892,-4.5973,-4.6039,-4.6039,-4.6134,-4.6202,-4.6202,-4.6264,-4.6308,-4.6308,-4.6308,-4.6308,-4.6308,-4.6306,-4.6303,-4.6297,-4.6295,-4.6309,-4.6302,-4.63,-4.63,-4.63,-4.63,-4.63,-4.63,-4.63,-4.63,-4.63,-4.6768,-4.6983,-4.7002,-4.7822,-4.8213,-4.63,-4.63,-4.63,-4.63,-4.4328,-4.149,-3.7984,-3.5021,0.0,-2.7643,-2.7129,-2.7116,-2.5971,-2.862,-3.1502,0.0,-3.593,-3.9179,-4.2783,-4.3614,-4.4968,0.0,-4.8566,0.0,-5.0763,-5.0898,0.0,-5.0898,-5.0898,-5.0898,-5.0898,-5.0897,-5.0855,-5.0801,-5.0739,-5.0702,-5.0712,-5.0712,-5.0712,-5.0712,-5.0712,-5.0712,-5.0712,-5.0712,-5.0327,-4.9683,-4.9683,0.0,0.0,-4.8663,-4.8663,-4.8663,-4.8653,-4.869,-4.8745,-4.8771,-4.8822,-4.8833,-4.8655,-4.864,-4.8643,-4.8469,-4.7463,-4.6368,-4.6368,-4.6368,-4.6368,-4.6368,-4.6232,-4.6078,-4.6078,-4.5942,-4.5807,-4.5807,-4.5807,-4.5814,-4.5848,-4.5935,-4.6007,-4.6013,-4.6072,-4.6122,-4.6122,-4.6189,-4.6213,-4.6213,-4.6266,-4.6308,-4.6308,-4.6307,-4.6306,-4.6305,-4.63,-4.6294,-4.6293,-4.6306,-4.6303,-4.63,-4.63,-4.63,-4.63,-4.63,-4.63,-4.63,-4.6475,-4.6573,-4.6573,-4.7432,-4.7859,-4.7879,-4.8701,-4.9072,-4.63,-4.63,-4.63,-4.63,-4.4328,-4.1491,-3.7981,0.0,-3.109,-2.7466,-2.6188,-2.5913,-2.6474,-2.7542,-2.9654,0.0,0.0,-3.8489,-4.2705,-4.4601,-4.6264,-4.8179,0.0,0.0,-5.0801,-5.0898,-5.0898,-5.0898,-5.0898,-5.0898,-5.0898,-5.0844,-5.0801,-5.0801,-5.073,-5.0693,-5.0712,-5.0712,-5.0712,-5.0712,-5.0712,-5.0712,-5.0712,-5.0712,-5.0654,-5.0577,-5.0577,0.0,0.0,-5.0462,-5.0462,-5.0462,-5.0461,-5.0461,-5.0479,-5.0606,-5.0659,-5.056,-4.9819,-4.9583,-4.9455,-4.8662,-4.8295,-4.8159,-4.8159,-4.8159,-4.8159,-4.8159,-4.7579,-4.698,-4.698,-4.6387,-4.5807,-4.5807,-4.5807,-4.5822,-4.5964,-4.5991,-4.6027,-4.6076,-4.6145,-4.6197,-4.6197,-4.6242,-4.6289,-4.6289,-4.6308,-4.6308,-4.6307,-4.6305,-4.6301,-4.6295,-4.6299,-4.6299,-4.6294,-4.6293,-4.6308,-4.6302,-4.63,-4.63,-4.63,-4.63,-4.63,-4.63,-4.7081,-4.7489,-4.7489,-4.8291,-4.8681,-4.8701,-4.9577,-4.9987,-4.6007,-4.63,-4.63,-4.63,-4.395,-4.0701,-3.7218,-3.3716,-3.0212,-2.6695,-2.572,-2.5604,-2.5913,-2.6667,-2.8122,0.0,0.0,0.0,-3.8199,-4.0172,-4.2434,-4.5722,-4.7308,0.0,0.0,0.0,-5.0898,-5.0898,-5.0898,-5.0909,-5.0905,-5.0836,-5.0801,-5.0801,-5.0721,-5.0712,-5.0712,-5.0712,-5.0712,-5.0712,-5.0712,-5.0712,-5.0712,-5.0712,-5.0712,-5.0712,-5.0712,0.0,0.0,-5.0712,-5.0712,-5.0693,-5.0702,-5.072,-5.0775,-5.0874,-5.0897,-5.0844,-5.0531,-5.0415,-5.0376,-5.0008,-4.9892,-4.9726,-4.8701,-4.8392,-4.8392,-4.8392,-4.814,-4.7869,-4.7869,-4.7637,-4.7376,-4.743,-4.7429,-4.7445,-4.7538,-4.7637,-4.7694,-4.7716,-4.7362,-4.7047,-4.7047,-4.664,-4.6308,-4.6308,-4.6308,-4.6308,-4.6307,-4.6304,-4.63,-4.6294,-4.6291,-4.6309,-4.6306,-4.6305,-4.6305,-4.63,-4.63,-4.6534,-4.7061,-4.7081,-4.7315,-4.7803,-4.8154,-4.833,-4.833,-4.9169,-4.9577,-4.9597,-5.0477,-5.0887,-4.5443,-4.6105,-4.6241,-4.5987,-4.3468,-4.0097,-3.6358,-3.3,-2.9683,-2.6219,-2.5507,-2.5507,-2.5507,-2.5952,-2.6996,0.0,0.0,-3.1971,-3.5897,-3.7677,-4.0075,-4.411,0.0,-4.7618,0.0,-5.0608,-5.0898,-5.0898,-5.0898,-5.0901,-5.0899,-5.0838,-5.0793,-5.0775,-5.0712,-5.0712,-5.0712,-5.0712,-5.0712,-5.0712,-5.0712,-5.0712,-5.0712,-5.0712,-5.0712,-5.0712,-5.0712,0.0,0.0,-5.0712,-5.0702,-5.0693,-5.072,-5.0775,-5.0846,-5.088,-5.0893,-5.0898,-5.0898,-5.0898,-5.0898,-5.0898,-5.0898,-5.0685,-4.9494,-4.9146,-4.9146,-4.9146,-4.8972,-4.874,-4.8469,-4.8409,-4.8432,-4.8491,-4.852,-4.8554,-4.8639,-4.8723,-4.8805,-4.8833,-4.8376,-4.7988,-4.7988,-4.748,-4.707,-4.707,-4.707,-4.707,-4.7067,-4.7044,-4.7039,-4.7032,-4.7045,-4.6944,-4.669,-4.6671,-4.6788,-4.7022,-4.7042,-4.7315,-4.7939,-4.7959,-4.8213,-4.8798,-4.9052,-4.9189,-4.9189,-5.0065,-5.0475,-5.0494,-5.1102,-5.1531,-4.4549,-4.5636,-4.6085,-4.5226,-4.2982,-3.9882,-3.5595,-3.2524,-2.9629,-2.6215,-2.5507,-2.5507,-2.5507,-2.5507,-2.6343,-2.8896,0.0,0.0,-3.7458,-3.8934,-4.0758,0.0,0.0,-4.6503,-4.8256,-4.9939,-5.0898,-5.0898,-5.0898,0.0,-5.0899,-5.0838,-5.0775,-5.0701,-5.0693,-5.0712,-5.0712,-5.0712,-5.0712,-5.0712,-5.0712,-5.0712,-5.0712,-5.0712,-5.0712,-5.0712,0.0,0.0,0.0,-5.0712,-5.0693,-5.0701,-5.0775,-5.0846,-5.0908,-5.0901,-5.0898,-5.0898,-5.0898,-5.0898,-5.0898,-5.0898,-5.0898,-5.0898,-5.0879,-5.0859,-5.0859,-5.0859,-5.0299,-4.9494,-4.8624,-4.8451,-4.8494,-4.8494,-4.8559,-4.8643,-4.8773,-4.8802,-4.8811,-4.8886,-4.8887,-4.8887,-4.8887,-4.8887,-4.8867,-4.8867,-4.8867,-4.8864,-4.8879,-4.8815,-4.8769,-4.8761,-4.8779,-4.8447,-4.7645,-4.7586,-4.7939,-4.872,-4.8779,-4.8779,-4.8798,-4.8798,-4.8798,-4.8798,-4.9655,-5.0085,-5.0085,-5.0965,-5.1394,-5.1394,-5.1394,-5.1863,-3.9435,-4.0787,-4.1518,-4.0034,-3.8551,-3.6622,-3.3526,-3.1215,-2.8912,-2.6084,-2.5507,-2.5507,-2.5507,-2.5507,-2.6706,-3.0404,0.0,0.0,0.0,0.0,0.0,-4.346,-4.7018,-4.9494,0.0,0.0,-5.0898,-5.0898,-5.0898,0.0,-5.0827,-5.081,-5.0775,-5.0701,-5.0693,-5.0712,-5.0712,-5.0712,-5.0712,-5.0712,-5.0712,-5.0712,-5.0712,-5.0712,-5.0712,0.0,0.0,0.0,0.0,-5.0702,-5.0702,-5.071,-5.081,-5.0891,-5.0908,-5.0901,-5.0898,-5.0898,-5.0898,-5.0898,-5.0898,-5.0898,-5.0898,-5.0898,-5.0898,-5.0898,-5.0898,-5.0898,-5.0724,-5.0453,-5.0183,-5.0189,-5.0292,-5.033,-5.0391,-5.0471,-5.056,-5.0583,-5.0584,-5.0605,-5.0156,-4.9785,-4.9785,-4.9297,-4.8906,-4.8906,-4.8906,-4.8903,-4.8899,-4.8835,-4.8808,-4.88,-4.8798,-4.8701,-4.8447,-4.8427,-4.8525,-4.8779,-4.8798,-4.9072,-4.9655,-4.9694,-4.9969,-5.0575,-5.0848,-5.0984,-5.0984,-5.1277,-5.1707,-5.2292,-5.2897,-5.3327,-3.6092,-3.7771,-3.8476,-3.7051,-3.5991,-3.4564,-3.1661,-2.9865,-2.8182,-2.596,-2.5507,-2.5507,-2.5507,-2.5507,-2.6575,-2.9843,-3.0636,0.0,0.0,0.0,0.0,-4.3885,0.0,0.0,0.0,-5.0724,-5.0898,-5.0898,-5.0898,0.0,-5.0801,-5.0801,-5.0766,-5.0692,-5.0702,-5.0712,-5.0712,-5.0712,-5.0712,-5.0712,-5.0712,-5.0712,-5.0712,-5.0712,-5.0712,0.0,0.0,0.0,0.0,-5.0711,-5.072,-5.0784,-5.0874,-5.0908,-5.0905,-5.089,-5.0898,-5.0898,-5.0898,-5.0898,-5.0898,-5.0898,-5.0898,-5.0898,-5.0898,-5.0898,-5.0898,-5.0898,-5.0898,-5.0898,-5.0898,-5.1018,-5.1147,-5.1187,-5.1274,-5.1359,-5.1386,-5.1406,-5.1406,-5.1406,-5.0996,-5.0644,-5.0644,-5.0195,-4.9844,-4.9844,-4.9843,-4.9841,-4.9836,-4.9811,-4.9785,-4.9776,-4.9774,-4.9774,-4.9774,-4.9481,-4.9423,-4.9755,-4.9774,-5.0028,-5.0573,-5.0592,-5.0848,-5.1394,-5.1394,-5.1394,-5.1394,-5.1726,-5.2331,-5.321,-5.4088,-5.4498,0.0,-3.5935,-3.6426,-3.5482,-3.4644,-3.3201,-2.9954,-2.8547,0.0,-2.584,-2.5507,-2.5546,-2.5666,-2.5584,-2.6149,-2.8126,-2.9132,0.0,0.0,-3.8141,0.0,0.0,-4.7521,0.0,-4.9707,-5.0453,-5.0898,-5.0898,0.0,0.0,-5.0801,-5.0801,-5.0776,-5.0693,-5.0712,-5.0712,-5.0712,-5.0712,-5.0712,-5.0712,-5.0712,-5.0712,-5.0712,-5.0712,-5.0712,0.0,0.0,0.0,0.0,-5.071,-5.0784,-5.0899,-5.0899,-5.0905,-5.0898,-5.0898,-5.0898,-5.0898,-5.0898,-5.0898,-5.0898,-5.0898,-5.0898,-5.0898,-5.0898,-5.0898,-5.0898,-5.0898,-5.0898,-5.0898,-5.0898,-5.1041,-5.1203,-5.1203,-5.1299,-5.1406,-5.1406,-5.1406,-5.1406,-5.1406,-5.1406,-5.1406,-5.1406,-5.1406,-5.1406,-5.1406,-5.1406,-5.1404,-5.1399,-5.1394,-5.1407,-5.1396,-5.1394,-5.1394,-5.1394,-5.0651,-5.0534,-5.1355,-5.1394,-5.1394,-5.1394,-5.1394,-5.1433,-5.1492,-5.155,-5.159,-5.159,-5.2468,-5.3307,-5.4108,-5.4986,-5.5396,-2.8508,0.0,-3.0946,-2.9391,-2.9313,-2.9223,0.0,-2.7206,-2.6725,-2.57,-2.5507,-2.5898,-2.7178,-2.6362,-2.7116,-3.2092,0.0,-3.4781,-3.9249,0.0,0.0,-4.756,-4.9281,-5.0395,-5.0589,-5.0782,-5.0898,0.0,0.0,-5.0866,-5.0801,-5.0801,-5.0776,-5.0693,-5.0712,-5.0712,-5.0712,-5.0712,-5.0712,-5.0712,-5.0712,-5.0712,-5.0712,-5.0712,-5.0712,0.0,0.0,0.0,-5.0701,-5.0821,-5.0863,-5.0899,-5.0893,-5.089,-5.0898,-5.0898,-5.0898,-5.0898,-5.0898,-5.0898,-5.0898,-5.0898,-5.0898,-5.0898,-5.0898,-5.0898,-5.0898,-5.0898,-5.0898,-5.0898,-5.0898,-5.1041,-5.1203,-5.1203,-5.1299,-5.1406,-5.1406,-5.1406,-5.1406,-5.1406,-5.1406,-5.1406,-5.1406,-5.1406,-5.1406,-5.1406,-5.1406,-5.1404,-5.1404,-5.1397,-5.1408,-5.1407,-5.14,-5.1394,-5.1394,-5.1219,-5.118,-5.1394,-5.1394,-5.1394,-5.1394,-5.1394,-5.1707,-5.2372,-5.3053,-5.3385,-5.3385,-5.4264,-5.4791,-5.5025,-5.5884,-5.6294,-2.6173,-2.7868,-2.9264,-2.8298,-2.8366,-2.8477,-2.7589,-2.6746,-2.6041,-2.5588,-2.5507,-2.5898,-2.7174,-2.7012,-2.812,-3.2498,-3.4206,0.0,0.0,0.0,-4.7869,-4.8333,-4.9881,-5.0898,0.0,0.0,-5.0898,0.0,0.0,-5.0869,-5.0801,-5.0775,-5.0749,-5.0693,-5.0712,-5.0712,-5.0712,-5.0712,-5.0712,-5.0712,-5.0712,-5.0712,-5.0712,-5.0712,-5.0702,0.0,0.0,0.0,-5.0812,-5.0863,-5.0888,-5.0893,-5.089,-5.0898,-5.0898,-5.0898,-5.0898,-5.0898,-5.0898,-5.0898,-5.0898,-5.0898,-5.0898,-5.0898,-5.0898,-5.0898,-5.0898,-5.0898,-5.0898,-5.0898,-5.0898,-5.1041,-5.1203,-5.1203,-5.1299,-5.1406,-5.1406,-5.1406,-5.1406,-5.1406,-5.1406,-5.1406,-5.1406,-5.1406,-5.1406,-5.1406,-5.1406,-5.1405,-5.1405,-5.1399,-5.1393,-5.1409,-5.14,-5.1394,-5.1394,-5.1765,-5.1824,-5.1433,-5.1394,-5.159,-5.198,-5.1999,-5.2409,-5.3288,-5.3756,-5.4205,-5.4596,-5.5064,-5.5513,-5.5903,-5.6372,-5.6606,-2.5912,-2.789,-2.97,-2.8994,-2.9006,-2.8934,-2.7949,0.0,0.0,0.0,0.0,-2.601,-2.7093,-2.805,0.0,0.0,0.0,0.0,-4.2841,-4.6322,-4.8392,-4.8392,-4.9881,0.0,-5.0898,-5.0898,0.0,0.0,0.0,-5.0612,-5.0435,-5.0478,-5.0509,-5.05,-5.0635,-5.0712,-5.0712,-5.0712,-5.0712,-5.0712,-5.0712,-5.0712,-5.0712,-5.0712,-5.0693,-5.0701,0.0,0.0,-5.0899,-5.0908,-5.0913,-5.0898,-5.0898,-5.0898,-5.0898,-5.0898,-5.0898,-5.0898,-5.0898,-5.0898,-5.0898,-5.0898,-5.0898,-5.0898,-5.0898,-5.0898,-5.0898,-5.0898,-5.0898,-5.0906,-5.0929,-5.1058,-5.1203,-5.1218,-5.1302,-5.1406,-5.1406,-5.1406,-5.1406,-5.1406,-5.1406,-5.1406,-5.1406,-5.1406,-5.1445,-5.1582,-5.1601,-5.164,-5.1776,-5.1792,-5.1807,-5.1803,-5.1792,-5.1804,-5.1804,-5.2468,-5.2585,-5.1843,-5.1804,-5.2136,-5.288,-5.3036,-5.3444,-5.4186,-5.4322,-5.4752,-5.5493,-5.5493,-5.5884,-5.6606,-5.6606,-5.6665,-2.7327,-2.9625,-3.074,-2.7097,-2.7259,-2.7886,-2.6333,-2.5721,0.0,0.0,0.0,0.0,0.0,-3.0722,-3.2377,0.0,0.0,-4.1822,0.0,0.0,-4.8392,-4.8392,0.0,-5.0898,-5.0898,-5.0898,0.0,0.0,0.0,-4.9473,-4.8718,-4.9322,-4.9653,-4.9586,-5.0327,-5.0712,-5.0712,-5.0712,-5.0712,-5.0712,-5.0712,-5.0712,-5.0712,-5.0712,-5.0693,-5.0701,0.0,-5.0838,-5.0899,-5.0893,-5.0898,-5.0898,-5.0898,-5.0898,-5.0898,-5.0898,-5.0898,-5.0898,-5.0898,-5.0898,-5.0898,-5.0898,-5.0898,-5.0898,-5.0898,-5.0898,-5.0898,-5.0898,-5.0898,-5.0929,-5.1043,-5.1137,-5.1218,-5.1277,-5.1338,-5.1406,-5.1406,-5.1406,-5.1406,-5.1406,-5.1406,-5.1406,-5.1406,-5.1406,-5.1641,-5.2383,-5.25,-5.2773,-5.3515,-5.3591,-5.3605,-5.3605,-5.3592,-5.36,-5.36,-5.3717,-5.3737,-5.362,-5.36,-5.3659,-5.3795,-5.4517,-5.4968,-5.5103,-5.5825,-5.6274,-5.6391,-5.6391,-5.6469,-5.6606,-5.6606,-5.6957,-2.653,-2.8628,-3.0007,-2.756,-2.9266,-3.1223,-2.9989,-2.8985,-2.8303,0.0,0.0,0.0,0.0,0.0,-3.5359,-3.9654,0.0,-4.3846,-4.5065,-4.6651,-4.7695,0.0,0.0,-4.9552,-4.9552,0.0,0.0,0.0,0.0,0.0,-4.8279,-4.8554,-4.872,-4.8702,-4.9086,-4.9298,-4.9298,-4.976,-5.0231,-5.0712,-5.0712,-5.0712,-5.0693,-5.0693,-5.0711,-5.0766,0.0,-5.0872,-5.0893,-5.089,-5.0898,-5.0898,-5.0898,-5.0898,-5.0898,-5.0898,-5.0898,-5.0898,-5.0898,-5.0898,-5.0898,-5.0898,-5.0898,-5.0898,-5.0898,-5.0898,-5.0898,-5.0898,-5.0898,-5.0937,-5.1069,-5.1147,-5.1222,-5.1286,-5.1359,-5.1406,-5.1406,-5.1406,-5.1406,-5.1406,-5.1777,-5.2109,-5.2109,-5.248,-5.2949,-5.334,-5.3398,-5.3555,-5.3945,-5.4,-5.3996,-5.3991,-5.4,-5.401,-5.401,-5.4439,-5.4498,-5.4029,-5.4439,-5.4693,-5.4693,-5.5532,-5.6001,-5.6001,-5.6391,-5.6606,-5.6606,-5.6606,-5.6821,-5.725,-5.725,-5.7699,-2.6084,-2.7757,-2.9292,-2.8822,-3.104,-3.3293,-3.3239,-3.1915,-3.0913,0.0,0.0,0.0,0.0,-3.5745,0.0,-4.3176,-4.4466,-4.5104,-4.571,-4.6561,-4.7096,-4.7096,-4.7869,-4.8392,0.0,0.0,0.0,0.0,0.0,0.0,-4.7628,-4.7748,-4.7817,-4.7817,-4.8009,-4.8105,-4.8105,-4.8759,-4.9529,-5.0404,-5.0606,-5.0702,-5.0712,-5.072,-5.0766,-5.0838,-5.0891,-5.0905,-5.0898,-5.0898,-5.0898,-5.0898,-5.0898,-5.0898,-5.0898,-5.0898,-5.0898,-5.0898,-5.0898,-5.0898,-5.0898,-5.0898,-5.0898,-5.0898,-5.0898,-5.0898,-5.0898,-5.0898,-5.0898,-5.0925,-5.1086,-5.1167,-5.1225,-5.1299,-5.1363,-5.1406,-5.1406,-5.1562,-5.1699,-5.1699,-5.2402,-5.3008,-5.3008,-5.3555,-5.4062,-5.4277,-5.4297,-5.4375,-5.4588,-5.4604,-5.4618,-5.4612,-5.4601,-5.4615,-5.4615,-5.522,-5.5318,-5.4654,-5.524,-5.5591,-5.5591,-5.6255,-5.6606,-5.6606,-5.6606,-5.6606,-5.6606,-5.6782,-5.7192,-5.7797,-5.8011,-5.8577,-2.7502,-2.8647,-2.9583,-3.0325,-3.0146,-3.0399,-3.2749,-3.1942,0.0,-3.476,0.0,0.0,0.0,-3.9364,-4.2447,-4.5254,-4.5711,-4.5729,-4.5787,0.0,-4.7096,-4.7096,-4.7869,-4.8392,0.0,0.0,0.0,0.0,0.0,0.0,-4.5913,-4.6574,-4.6981,-4.6981,-4.7721,-4.8105,-4.8105,-4.8163,-4.8625,-4.949,-5.0307,-5.0692,-5.0692,-5.0747,-5.0838,-5.0899,-5.0899,-5.0905,-5.0898,-5.0898,-5.0898,-5.0898,-5.0898,-5.0898,-5.0898,-5.0898,-5.0898,-5.0898,-5.0898,-5.0898,-5.0898,-5.0898,-5.0898,-5.0898,-5.0898,-5.0898,-5.0898,-5.0898,-5.0898,-5.0954,-5.1142,-5.1195,-5.1239,-5.1363,-5.1406,-5.1406,-5.1406,-5.2031,-5.2617,-5.2617,-5.3301,-5.3906,-5.3906,-5.3965,-5.4277,-5.5078,-5.5215,-5.5508,-5.6307,-5.64,-5.6415,-5.6406,-5.6417,-5.6411,-5.6411,-5.6469,-5.6489,-5.643,-5.6469,-5.6508,-5.6508,-5.6567,-5.6606,-5.6606,-5.6606,-5.6606,-5.6606,-5.7348,-5.7738,-5.7816,-5.8636,-5.9475,-2.6375,-2.834,-3.0282,-3.0616,-3.1646,0.0,0.0,-3.5173,-3.616,-3.8491,-3.8967,0.0,0.0,0.0,-4.3311,-4.4834,-4.5485,-4.5807,-4.5807,-4.6078,-4.629,-4.629,-4.6581,0.0,0.0,0.0,0.0,0.0,0.0,0.0,-4.5659,-4.593,-4.6086,-4.6086,-4.6394,-4.6547,-4.6547,-4.7086,-4.7518,-4.7853,-4.9286,-5.0238,-5.0756,-5.0838,-5.0883,-5.0899,-5.0905,-5.0909,-5.0898,-5.0898,-5.0898,-5.0898,-5.0898,-5.0898,-5.0898,-5.0898,-5.0898,-5.0898,-5.0898,-5.0898,-5.0898,-5.0898,-5.0898,-5.0898,-5.0898,-5.0898,-5.0898,-5.0898,-5.0898,-5.0954,-5.1152,-5.1203,-5.1223,-5.1364,-5.1816,-5.2207,-5.2207,-5.2891,-5.3516,-5.3516,-5.4219,-5.4805,-5.4805,-5.5253,-5.5722,-5.6054,-5.6111,-5.6226,-5.6553,-5.6607,-5.6603,-5.6593,-5.6608,-5.6606,-5.6606,-5.6606,-5.6606,-5.6606,-5.6606,-5.6606,-5.6606,-5.6606,-5.6606,-5.6606,-5.7094,-5.7348,-5.7348,-5.8207,-5.889,-5.9417,-5.9749,-6.0373,-2.5679,-2.7699,-3.001,-3.0558,0.0,0.0,-3.6552,-3.7935,-3.9504,-4.1995,-4.2062,-4.1944,-4.2729,0.0,0.0,0.0,-4.5432,-4.5807,-4.5807,-4.5807,-4.5807,-4.5807,-4.5807,0.0,0.0,0.0,0.0,0.0,0.0,0.0,0.0,-4.5594,-4.5594,-4.5594,-4.5594,-4.5594,-4.5594,-4.6219,-4.6669,-4.6943,-4.8155,-4.9183,-5.0008,-5.0069,-5.0267,-5.0518,-5.0523,-5.0666,-5.0898,-5.0898,-5.0898,-5.0898,-5.0898,-5.0898,-5.0898,-5.0898,-5.0898,-5.0898,-5.0898,-5.0898,-5.0898,-5.0898,-5.0898,-5.0898,-5.0898,-5.0898,-5.0898,-5.0898,-5.0898,-5.0954,-5.1152,-5.1203,-5.1301,-5.1716,-5.2266,-5.2773,-5.3047,-5.3808,-5.4414,-5.4414,-5.5117,-5.5703,-5.5703,-5.621,-5.6599,-5.6599,-5.6596,-5.6591,-5.6602,-5.6602,-5.6598,-5.6606,-5.6606,-5.6606,-5.6606,-5.6606,-5.6606,-5.6606,-5.684,-5.686,-5.6606,-5.684,-5.6977,-5.6977,-5.7797,-5.8207,-5.8207,-5.9085,-5.9827,-6.0412,-6.0686,-6.1134,-2.5834,-2.6822,-2.8531,-3.0282,0.0,0.0,-3.8669,-3.9679,-4.0927,-4.5122,-4.4616,-4.3646,-4.4447,-4.3892,0.0,-4.5517,-4.5787,-4.5807,-4.5807,-4.5807,-4.5807,-4.5807,-4.5807,0.0,0.0,0.0,0.0,0.0,0.0,0.0,0.0,-4.5594,-4.5594,-4.5594,-4.5594,-4.5594,-4.5594,-4.5676,-4.613,-4.6981,-4.7059,-4.7507,-4.83,-4.8377,-4.8875,-4.9687,-4.9707,-5.0152,-5.0898,-5.0898,-5.0898,-5.0898,-5.0898,-5.0898,-5.0898,-5.0898,-5.0898,-5.0898,-5.0898,-5.0898,-5.0898,-5.0898,-5.0898,-5.0898,-5.0898,-5.0898,-5.0898,-5.0898,-5.0898,-5.0954,-5.1156,-5.1203,-5.1457,-5.2458,-5.2715,-5.2969,-5.3828,-5.4707,-5.5312,-5.5312,-5.6015,-5.6601,-5.6601,-5.6601,-5.6599,-5.6599,-5.6596,-5.6591,-5.6602,-5.6602,-5.6598,-5.6606,-5.6606,-5.6606,-5.6606,-5.6606,-5.6606,-5.6606,-5.7367,-5.7445,-5.6645,-5.7387,-5.7816,-5.7816,-5.8675,-5.9102,-5.9102,-5.9983,-6.0412,-6.0432,-6.131,-6.1698,-2.5093,-2.7249,-3.0205,-3.1331,0.0,0.0,0.0,-4.1437,0.0,0.0,-4.4851,-4.4068,-4.4165,-4.4042,0.0,-4.4592,-4.5309,-4.5807,-4.5807,-4.5807,-4.5807,-4.5807,-4.5807,0.0,0.0,0.0,0.0,0.0,0.0,0.0,0.0,-4.5594,-4.5594,-4.5594,-4.5594,-4.5594,-4.5594,-4.5676,-4.5841,-4.6094,-4.6152,-4.6962,-4.8377,-4.8384,-4.8546,-4.8817,-4.9436,-4.9842,-5.0113,-5.0666,-5.0898,-5.0898,-5.0898,-5.0898,-5.0898,-5.0898,-5.0898,-5.0898,-5.0898,-5.0898,-5.0898,-5.0898,-5.0898,-5.0898,-5.0898,-5.0898,-5.0921,-5.1017,-5.1043,-5.1086,-5.1223,-5.1725,-5.2269,-5.2616,-5.3633,-5.4609,-5.4863,-5.5605,-5.6211,-5.6211,-5.6426,-5.6601,-5.6601,-5.6598,-5.6594,-5.6609,-5.6602,-5.6595,-5.6591,-5.6591,-5.6608,-5.6606,-5.6606,-5.6606,-5.6606,-5.7113,-5.7445,-5.7445,-5.8246,-5.8324,-5.7484,-5.8265,-5.8714,-5.8714,-5.9573,-6.0002,-6.0022,-6.09,-6.131,-6.133,-6.1581,-6.1698,-2.6401,-2.8915,-3.2092,-3.3936,-3.6936,-4.0068,-4.2382,0.0,0.0,0.0,-4.4806,-4.4246,-4.4431,-4.4354,0.0,-4.4565,-4.5271,-4.5745,-4.5585,-4.5626,-4.565,-4.5577,-4.5569,0.0,0.0,0.0,0.0,0.0,0.0,0.0,0.0,-4.5648,-4.5648,-4.5646,-4.5648,-4.5648,-4.5646,-4.5671,-4.5711,-4.5731,-4.5769,-4.6346,-4.7366,-4.7366,-4.756,-4.7947,-4.9165,-4.9707,-4.9765,-5.0569,-5.0898,-5.0898,-5.0898,-5.0898,-5.0898,-5.0898,-5.0898,-5.0898,-5.0898,-5.0898,-5.0898,-5.0898,-5.0898,-5.0898,-5.0898,-5.0898,-5.0921,-5.0997,-5.1063,-5.1125,-5.1239,-5.2182,-5.3123,-5.3202,-5.4277,-5.539,-5.5742,-5.623,-5.6601,-5.6601,-5.6601,-5.6601,-5.6601,-5.6597,-5.6592,-5.6606,-5.6595,-5.6606,-5.6606,-5.6606,-5.6723,-5.7035,-5.7074,-5.7211,-5.7562,-5.8031,-5.8324,-5.8324,-5.9124,-5.9378,-5.8851,-5.9339,-5.9612,-5.9612,-6.0471,-6.092,-6.092,-6.1444,-6.1698,-6.1698,-6.1698,-6.1698,-2.8651,-3.097,-3.3749,-3.7057,-3.87,-4.0334,-4.3379,-4.4821,-4.5449,-4.5227,0.0,-4.4287,-4.5006,-4.4691,-4.4534,-4.5078,-4.549,-4.5618,-4.5244,-4.5352,-4.5399,-4.5222,0.0,0.0,0.0,0.0,0.0,0.0,0.0,0.0,0.0,-4.5662,-4.569,-4.5708,-4.5706,-4.5706,-4.5708,-4.5708,-4.5731,-4.5807,-4.5805,-4.5807,-4.5807,-4.5807,-4.629,-4.7192,-4.8778,-4.9552,-4.9765,-5.0492,-5.0821,-5.0898,-5.0898,-5.0898,-5.0898,-5.0898,-5.0898,-5.0898,-5.0898,-5.0898,-5.0898,-5.0898,-5.0898,-5.0898,-5.0898,-5.0898,-5.0906,-5.0921,-5.1017,-5.1125,-5.1191,-5.2556,-5.3928,-5.3984,-5.4726,-5.5644,-5.6426,-5.6601,-5.6601,-5.6601,-5.6601,-5.6601,-5.6601,-5.6598,-5.6592,-5.6591,-5.6598,-5.6606,-5.6606,-5.6665,-5.6996,-5.7719,-5.7875,-5.8246,-5.9024,-5.9161,-5.9222,-5.9222,-6.0041,-6.0529,-6.0529,-6.0529,-6.0529,-6.0529,-6.131,-6.1698,-6.1698,-6.1698,-6.1698,-6.1698,-6.1698,-6.1698,-2.7131,-2.9501,0.0,-3.6077,-3.9915,-4.3196,-4.4432,-4.4836,-4.4969,-4.4977,-4.4791,-4.4628,-4.4649,-4.4674,-4.4726,-4.4865,-4.515,-4.5294,-4.5211,-4.5243,-4.5253,-4.5211,-4.5201,0.0,0.0,0.0,0.0,0.0,0.0,0.0,-4.5466,-4.5457,-4.5549,-4.57,-4.57,-4.57,-4.5708,-4.5758,-4.58,0.0,-4.5805,-4.5807,-4.5807,-4.5807,-4.629,-4.7115,-4.7502,-4.843,-4.9707,-4.99,-5.0318,-5.0898,-5.0898,-5.0898,-5.0898,-5.0898,-5.0898,-5.0898,-5.0898,-5.0898,-5.0898,-5.0898,-5.0898,-5.0898,-5.0898,-5.0898,-5.0929,-5.103,-5.1111,-5.1195,-5.1266,-5.262,-5.3983,-5.4004,-5.5195,-5.6367,-5.6562,-5.6601,-5.6601,-5.6601,-5.6601,-5.6601,-5.6597,-5.6594,-5.6609,-5.6595,-5.6608,-5.6606,-5.6606,-5.7153,-5.7601,-5.7777,-5.8402,-5.8909,-5.9083,-5.9729,-6.0119,-6.0119,-6.0939,-6.1427,-6.1427,-6.1427,-6.1427,-6.1427,-6.1601,-6.1698,-6.1698,-6.1698,-6.1698,-6.1698,-6.1698,-6.1698,-2.7818,-3.0464,0.0,-3.8184,0.0,-4.3889,-4.4569,-4.4681,-4.4668,-4.4707,-4.4681,-4.4621,-4.451,-4.4668,-4.477,-4.4681,-4.495,-4.5126,-4.4905,-4.4957,-4.4973,-4.4881,-4.485,0.0,0.0,0.0,0.0,0.0,0.0,-4.5192,-4.5447,-4.5457,-4.5538,-4.5742,-4.5746,-4.5746,-4.5742,-4.5788,-4.5795,-4.5798,-4.5793,-4.5807,-4.5807,-4.5807,-4.6058,-4.6503,-4.6922,-4.7618,-4.8527,-4.9359,-4.9958,-5.0357,-5.0743,-5.0898,-5.0898,-5.0898,-5.0898,-5.0898,-5.0898,-5.0898,-5.0898,-5.0898,-5.0898,-5.0898,-5.0898,-5.0898,-5.0937,-5.1063,-5.1147,-5.1222,-5.1284,-5.2648,-5.4004,-5.4004,-5.5332,-5.6601,-5.6601,-5.6601,-5.6601,-5.6601,-5.6601,-5.6601,-5.6599,-5.6596,-5.6607,-5.6608,-5.6938,-5.7172,-5.7172,-5.7894,-5.8577,-5.9007,-5.9456,-5.9885,-6.0312,-6.0764,-6.1017,-6.1017,-6.1444,-6.1698,-6.1698,-6.1698,-6.1698,-6.1698,-6.1698,-6.1698,-6.1698,-6.1698,-6.1698,-6.1698,-6.1698,-6.1698,-2.8312,-3.1637,-3.5292,-4.0453,-4.2505,0.0,-4.3927,-4.4182,-4.4275,-4.4275,-4.4388,-4.4501,-4.4501,-4.4648,-4.4688,-4.4524,-4.482,-4.4934,-4.4551,-4.4629,-4.4694,-4.451,-4.4501,0.0,0.0,0.0,0.0,0.0,0.0,-4.5171,-4.5427,-4.5475,-4.5599,-4.58,-4.5798,-4.5791,-4.5807,-4.5791,-4.5791,-4.5807,-4.5807,-4.5807,-4.5807,-4.5807,-4.5807,-4.5845,-4.6561,-4.696,-4.7212,-4.8662,-4.9436,-4.9765,-5.0434,-5.0782,-5.0898,-5.0898,-5.0898,-5.0898,-5.0898,-5.0898,-5.0898,-5.0898,-5.0898,-5.0898,-5.0898,-5.0898,-5.0937,-5.1063,-5.1147,-5.1222,-5.1284,-5.2648,-5.4004,-5.4004,-5.5332,-5.6601,-5.6601,-5.6601,-5.6601,-5.6601,-5.6601,-5.6599,-5.6601,-5.6597,-5.6644,-5.6786,-5.7369,-5.7855,-5.8011,-5.8792,-5.9592,-6.0315,-6.0529,-6.092,-6.164,-6.1698,-6.1698,-6.1698,-6.1698,-6.1698,-6.1698,-6.1698,-6.1698,-6.1698,-6.1698,-6.1698,-6.1698,-6.1698,-6.1698,-6.1698,-6.1698,-6.1698,-2.5184,0.0,-3.5517,0.0,-4.1086,-4.2218,0.0,0.0,-4.3463,0.0,-4.4008,-4.4501,-4.4501,-4.4524,-4.4537,-4.4496,-4.4551,-4.4578,-4.4515,-4.4524,-4.4524,-4.4496,-4.4501,0.0,0.0,0.0,0.0,0.0,-4.4726,-4.4973,-4.5232,-4.5419,-4.5594,-4.578,-4.58,-4.58,-4.5807,-4.58,-4.58,-4.5807,-4.5807,-4.5807,-4.5807,-4.5807,-4.5807,-4.5807,-4.5923,-4.6406,-4.7115,-4.7347,-4.8333,-4.9707,-4.9823,-5.0279,-5.0898,-5.0898,-5.0898,-5.0898,-5.0898,-5.0898,-5.0898,-5.0898,-5.0898,-5.0898,-5.0898,-5.0898,-5.0937,-5.1063,-5.1147,-5.1222,-5.1284,-5.2648,-5.4004,-5.4004,-5.5332,-5.6601,-5.6601,-5.6601,-5.6601,-5.6601,-5.6599,-5.6594,-5.6595,-5.6603,-5.6846,-5.7537,-5.7725,-5.807,-5.8831,-5.969,-6.0276,-6.0393,-6.1076,-6.1562,-6.1698,-6.1698,-6.1698,-6.1698,-6.1698,-6.1698,-6.1698,-6.1698,-6.1698,-6.1698,-6.1698,-6.1698,-6.1698,-6.1698,-6.1698,-6.1698,-6.1698,-6.1698,-2.6502,-3.0816,-3.4965,0.0,-4.0134,-4.0891,-4.1798,-4.2305,-4.2581,-4.2581,-4.2849,-4.3393,-4.4332,-4.4501,-4.4501,-4.4501,-4.4501,-4.4332,-4.3895,-4.3839,-4.3839,-4.3839,-4.3393,0.0,0.0,0.0,0.0,0.0,-4.3744,-4.4235,-4.4456,-4.5121,-4.5594,-4.578,-4.5807,-4.5807,-4.5807,-4.5807,-4.5807,-4.5807,-4.5807,-4.5807,-4.5807,-4.5807,-4.5807,-4.5807,-4.5807,-4.602,-4.6406,-4.6902,-4.7831,-4.903,-4.9513,-5.0183,-5.0898,-5.0898,-5.0898,-5.0898,-5.0898,-5.0898,-5.0898,-5.0898,-5.0898,-5.0898,-5.0898,-5.0898,-5.0937,-5.1063,-5.1147,-5.1339,-5.1872,-5.3019,-5.4121,-5.4609,-5.5683,-5.6601,-5.6601,-5.6601,-5.6601,-5.6601,-5.66,-5.6598,-5.6609,-5.6995,-5.7441,-5.7746,-5.8621,-5.9397,-5.9788,-6.0588,-6.1134,-6.1134,-6.1464,-6.1698,-6.1698,-6.1698,-6.1698,-6.1698,-6.1698,-6.1698,-6.1698,-6.1707,-6.169,-6.169,-6.1703,-6.1703,-6.169,-6.169,-6.1694,-6.1697,-6.1697,-6.1697,0.0,0.0,-3.2617,-3.6953,-3.8181,-3.8819,0.0,0.0,-4.1441,0.0,-4.1854,-4.238,-4.3637,-4.3862,-4.3862,-4.3862,-4.3862,-4.3656,-4.305,-4.2975,-4.2975,-4.2975,-4.2399,0.0,0.0,0.0,0.0,0.0,-4.2841,-4.3447,-4.3587,-4.4456,-4.5121,-4.549,-4.549,-4.5587,-4.5807,-4.5807,-4.5807,-4.5807,-4.5807,-4.5807,-4.5807,-4.5807,-4.5807,-4.5807,-4.5807,-4.5807,-4.5845,-4.6503,-4.727,-4.8159,-4.903,-4.9881,-5.0608,-5.0821,-5.0898,-5.0898,-5.0898,-5.0898,-5.0898,-5.0898,-5.0898,-5.0898,-5.0898,-5.0898,-5.0937,-5.1063,-5.1146,-5.139,-5.2357,-5.3289,-5.4198,-5.5097,-5.5976,-5.6601,-5.6601,-5.6601,-5.6601,-5.66,-5.6601,-5.6678,-5.6883,-5.7468,-5.8013,-5.8392,-5.9577,-6.0471,-6.0705,-6.131,-6.1698,-6.1698,-6.1698,-6.1698,-6.1698,-6.1698,-6.1698,-6.1698,-6.1703,-6.1705,-6.1705,-6.1696,-6.1701,-6.1701,-6.1694,-6.1694,-6.1701,-6.1701,-6.1704,-6.1709,-6.1709,-6.1709,0.0,-2.5654,0.0,-3.2499,-3.4301,-3.5503,0.0,0.0,-3.9946,-4.0703,-4.146,-4.2023,-4.2117,-4.2136,-4.2136,-4.2136,-4.2136,-4.2117,-4.2079,-4.2079,-4.2079,-4.2079,-4.2023,0.0,0.0,0.0,0.0,0.0,-4.2462,-4.2755,-4.2756,-4.3181,-4.3794,-4.4632,-4.4652,-4.5026,-4.5787,-4.5807,-4.5807,-4.5807,-4.5807,-4.5807,-4.5807,-4.5807,-4.5807,-4.5807,-4.5807,-4.5807,-4.5807,-4.5845,-4.6387,-4.725,-4.8121,-4.8991,-4.9861,-5.0608,-5.0898,-5.0898,-5.0898,-5.0898,-5.0898,-5.0898,-5.0898,-5.0898,-5.0898,-5.0898,-5.0937,-5.1063,-5.1105,-5.1341,-5.2347,-5.3253,-5.4141,-5.5077,-5.5976,-5.6601,-5.6601,-5.6601,-5.6601,-5.66,-5.6599,-5.6853,-5.7692,-5.7822,-5.8362,-6.0027,-6.0347,-6.0705,-6.1522,-6.1679,-6.1698,-6.1698,-6.1698,-6.1698,-6.1698,-6.1698,-6.1698,-6.1698,-6.1692,-6.1697,-6.1697,-6.1705,-6.1708,-6.1708,-6.1708,-6.1708,-6.1708,-6.1708,-6.1708,-6.1709,-6.1709,-6.1709,0.0,0.0,0.0,-3.0171,-3.2011,-3.3513,-3.5484,-3.7399,-3.8845,-3.9145,-3.9877,-4.0459,-4.0459,-4.1291,-4.2004,-4.2004,-4.2004,-4.1817,-4.1291,-4.1229,-4.1229,-4.1229,-4.0778,0.0,0.0,0.0,0.0,0.0,0.0,-4.1867,-4.1867,-4.2772,-4.344,-4.3769,-4.4304,-4.4987,-4.5787,-4.5807,-4.5807,-4.5807,-4.5807,-4.5807,-4.5807,-4.5807,-4.5807,-4.5807,-4.5807,-4.5821,-4.586,-4.586,-4.6383,-4.7247,-4.8079,-4.8936,-4.9803,-5.0589,-5.0898,-5.0898,-5.0898,-5.0898,-5.0898,-5.0898,-5.0898,-5.0898,-5.0898,-5.0898,-5.0914,-5.0954,-5.1406,-5.208,-5.3001,-5.3975,-5.4976,-5.5917,-5.6367,-5.6601,-5.6601,-5.6601,-5.6601,-5.6601,-5.705,-5.7538,-5.785,-5.8765,-5.9679,-6.0316,-6.0877,-6.1358,-6.1661,-6.1698,-6.1698,-6.1698,-6.1698,-6.1698,-6.1698,-6.1698,-6.1703,-6.1692,-6.1696,-6.1701,-6.1705,-6.1692,-6.1695,-6.1695,-6.1697,-6.1697,-6.1695,-6.1695,-6.1696,-6.1698,-6.1698,-6.1698,-2.0383,0.0,0.0,0.0,0.0,-3.0856,-3.3888,0.0,-3.6892,-3.7737,-3.8563,-3.9251,-3.9552,-4.0459,-4.1191,-4.1191,-4.1191,-4.1004,-4.0459,-4.0403,-4.0403,-4.0403,-3.9927,0.0,0.0,0.0,0.0,0.0,0.0,0.0,-4.0998,-4.1932,-4.2725,-4.3285,-4.4149,-4.4987,-4.5787,-4.5807,-4.5807,-4.5807,-4.5807,-4.5807,-4.5807,-4.5807,-4.5807,-4.5807,-4.5821,-4.5854,-4.59,-4.59,-4.6248,-4.6861,-4.7965,-4.875,-4.9397,-5.0492,-5.0898,-5.0898,-5.0898,-5.0898,-5.0898,-5.0898,-5.0898,-5.0898,-5.0898,-5.0898,-5.0898,-5.0898,-5.1562,-5.2466,-5.3378,-5.4617,-5.5796,-5.6444,-5.6601,-5.6601,-5.6601,-5.6601,-5.6699,-5.6973,-5.75,-5.8086,-5.8632,-5.9666,-6.0504,-6.079,-6.1333,-6.1699,-6.1692,-6.1707,-6.1707,-6.1692,-6.1707,-6.1707,-6.1692,-6.1692,-6.1694,-6.1701,-6.1705,-6.1708,-6.1693,-6.1697,-6.1698,-6.1698,-6.1699,-6.1699,-6.1698,-6.1698,-6.1699,-6.1699,-6.1699,-6.1699,0.0,0.0,0.0,0.0,0.0,0.0,-3.3035,0.0,-3.4001,-3.649,-3.7624,-3.8469,-3.9364,-3.9533,-3.9533,-3.9552,-3.957,-3.9589,-3.9589,-3.9589,-3.9589,-3.9589,0.0,0.0,0.0,0.0,0.0,0.0,-3.9988,-4.0205,-4.0214,-4.0583,-4.1564,-4.3208,-4.4072,-4.4929,-4.5768,-4.5768,-4.5787,-4.5807,-4.5807,-4.5807,-4.5807,-4.5807,-4.5807,-4.5807,-4.586,-4.59,-4.59,-4.59,-4.59,-4.6074,-4.7752,-4.8409,-4.8604,-5.0279,-5.0898,-5.0898,-5.0898,-5.0898,-5.0898,-5.0898,-5.0898,-5.0898,-5.0898,-5.0898,-5.0898,-5.0898,-5.1544,-5.2462,-5.343,-5.5084,-5.6516,-5.6581,-5.6601,-5.6601,-5.6601,-5.6621,-5.6894,-5.7734,-5.793,-5.8457,-6.0117,-6.0429,-6.0721,-6.1561,-6.1694,-6.1709,-6.1709,-6.1702,-6.1701,-6.1708,-6.1702,-6.1701,-6.1708,-6.1709,-6.1709,-6.1709,-6.1695,-6.1697,-6.1697,-6.1699,-6.1699,-6.1699,-6.1699,-6.1699,-6.1699,-6.1699,-6.1699,-6.1699,-6.1699,-6.1699,-1.8568,0.0,0.0,0.0,0.0,0.0,0.0,0.0,-3.1429,-3.3907,-3.5052,-3.6066,-3.7523,-3.7786,-3.7993,-3.8563,-3.9195,-3.9589,-3.9589,-3.9589,-3.9589,-3.9589,0.0,0.0,0.0,0.0,0.0,0.0,-4.006,-4.0269,-4.0417,-4.066,-4.128,-4.2338,-4.2589,-4.344,-4.4929,-4.4929,-4.522,-4.5807,-4.5807,-4.5807,-4.5807,-4.5807,-4.5807,-4.5807,-4.5814,-4.5854,-4.59,-4.5906,-4.5931,-4.6137,-4.7753,-4.8403,-4.8602,-5.0275,-5.0898,-5.0898,-5.0898,-5.0898,-5.0898,-5.0898,-5.0898,-5.0898,-5.0898,-5.0898,-5.0898,-5.0898,-5.1989,-5.3507,-5.5074,-5.5925,-5.6381,-5.6497,-5.6558,-5.6601,-5.6601,-5.7109,-5.7617,-5.7851,-5.8418,-5.918,-6.0215,-6.0918,-6.1425,-6.1658,-6.1696,-6.1695,-6.1709,-6.1707,-6.1707,-6.1709,-6.1707,-6.1707,-6.1709,-6.1709,-6.1692,-6.1695,-6.1697,-6.1698,-6.1699,-6.1699,-6.1699,-6.1699,-6.1699,-6.1699,-6.1699,-6.1699,-6.1699,-6.1699,-6.1699,-6.1699,-1.9507,-2.0877,0.0,0.0,0.0,0.0,-2.5327,-2.6979,0.0,0.0,-3.3006,-3.4057,-3.5758,-3.6359,-3.6742,-3.723,-3.8,-3.88,-3.9495,-3.9589,-3.9589,-3.9589,0.0,0.0,0.0,-3.9686,-3.9777,-3.9892,-4.0167,-4.0406,-4.0605,-4.0733,-4.1164,-4.197,-4.2009,-4.2841,-4.4574,-4.4594,-4.5007,-4.5807,-4.5807,-4.5807,-4.5807,-4.5807,-4.5807,-4.5807,-4.5821,-4.586,-4.59,-4.5899,-4.5918,-4.6086,-4.7378,-4.8106,-4.8556,-4.9908,-5.0608,-5.0898,-5.0898,-5.0898,-5.0898,-5.0898,-5.0898,-5.0898,-5.0898,-5.0898,-5.0975,-5.1351,-5.2705,-5.437,-5.5831,-5.6236,-5.6305,-5.645,-5.6525,-5.6675,-5.7051,-5.7539,-5.8008,-5.8379,-5.9121,-5.9961,-6.0801,-6.1367,-6.1699,-6.1698,-6.1698,-6.1698,-6.1696,-6.1695,-6.1694,-6.1695,-6.1695,-6.1694,-6.1695,-6.1695,-6.1697,-6.1698,-6.1698,-6.1699,-6.1699,-6.1699,-6.1699,-6.1699,-6.1699,-6.1699,-6.1699,-6.1699,-6.1699,-6.1699,-6.1699,-6.1699,-2.0533,-2.1816,0.0,0.0,0.0,0.0,-2.5796,-2.6048,-2.6574,0.0,-3.0865,-3.1936,-3.3588,-3.462,-3.524,-3.5334,-3.6104,-3.7317,-3.9063,-3.9401,-3.9458,-3.9458,0.0,0.0,-3.9638,-3.98,-3.9924,-3.9958,-4.0321,-4.0605,-4.079,-4.0797,-4.1126,-4.1835,-4.1874,-4.2705,-4.4439,-4.4458,-4.491,-4.5807,-4.5807,-4.5807,-4.5807,-4.5807,-4.5807,-4.5807,-4.586,-4.5893,-4.5893,-4.5893,-4.59,-4.5984,-4.6842,-4.7692,-4.8515,-4.9378,-5.0202,-5.0898,-5.0898,-5.0898,-5.0898,-5.0898,-5.0898,-5.0898,-5.0898,-5.0898,-5.1091,-5.2066,-5.3536,-5.5001,-5.5947,-5.6181,-5.6255,-5.6426,-5.648,-5.6753,-5.7673,-5.7968,-5.8301,-5.918,-5.9902,-6.0683,-6.1543,-6.1699,-6.1699,-6.1699,-6.1699,-6.1699,-6.1699,-6.1698,-6.1698,-6.1699,-6.1698,-6.1698,-6.1699,-6.1699,-6.1699,-6.1699,-6.1699,-6.1699,-6.1699,-6.1699,-6.1699,-6.1699,-6.1699,-6.1699,-6.1699,-6.1699,-6.1699,-6.1699,-6.1699,-6.1758,-2.2248,-2.3112,0.0,0.0,0.0,0.0,-2.1697,-2.2668,-2.4358,0.0,-2.6585,-2.7682,-2.9317,-3.0321,-3.1128,-3.1775,-3.3127,-3.494,-3.726,-3.815,-3.8544,-3.8544,0.0,0.0,-3.9834,-3.9881,-4.003,-4.0356,-4.0617,-4.0765,-4.0797,-4.0797,-4.0874,-4.1029,-4.1029,-4.1854,-4.3537,-4.3556,-4.4311,-4.5807,-4.5807,-4.5807,-4.5807,-4.5807,-4.5807,-4.5807,-4.5814,-4.5814,-4.5814,-4.5814,-4.5848,-4.597,-4.6802,-4.7647,-4.8512,-4.9385,-5.0202,-5.0898,-5.0898,-5.0898,-5.0898,-5.0898,-5.0898,-5.0898,-5.0898,-5.0898,-5.1227,-5.2801,-5.4,-5.4995,-5.5822,-5.6124,-5.6207,-5.6261,-5.6375,-5.6725,-5.7553,-5.8374,-5.9199,-6.0019,-6.0293,-6.0683,-6.1543,-6.1699,-6.1699,-6.1699,-6.1699,-6.1699,-6.1699,-6.1699,-6.1699,-6.1699,-6.1699,-6.1699,-6.1699,-6.1699,-6.1699,-6.1699,-6.1699,-6.1699,-6.1699,-6.1699,-6.1699,-6.1699,-6.1699,-6.1699,-6.1699,-6.1699,-6.1699,-6.1699,-6.1699,-6.207,-2.3938,-2.4088,0.0,-2.2654,0.0,0.0,0.0,-2.2586,-2.3382,-2.5016,-2.5034,-2.526,-2.6904,0.0,-2.8594,-2.8979,-3.0799,-3.2461,-3.3298,-3.5889,-3.7699,-3.7699,0.0,0.0,-3.921,-3.9423,-3.9853,-4.0593,-4.0739,-4.0797,-4.0797,-4.0797,-4.0797,-4.0797,-4.0797,-4.139,-4.2647,-4.3073,-4.3943,-4.52,-4.5613,-4.5807,-4.5807,-4.5807,-4.5807,-4.5807,-4.5807,-4.5807,-4.5807,-4.5807,-4.5827,-4.5893,-4.6285,-4.7245,-4.8452,-4.8882,-4.9842,-5.0898,-5.0898,-5.0898,-5.0898,-5.0898,-5.0898,-5.0898,-5.0898,-5.1497,-5.2472,-5.3788,-5.4755,-5.549,-5.5896,-5.6059,-5.6124,-5.6181,-5.6295,-5.6767,-5.8065,-5.8801,-5.957,-6.0801,-6.1055,-6.1191,-6.1621,-6.1699,-6.1699,-6.1699,-6.1699,-6.1699,-6.1699,-6.1699,-6.1699,-6.1699,-6.1699,-6.1699,-6.1699,-6.1699,-6.1699,-6.1699,-6.1699,-6.1699,-6.1699,-6.1699,-6.1699,-6.1699,-6.1699,-6.1699,-6.1699,-6.1699,-6.1699,-6.1699,-6.1699,-6.2168,0.0,0.0,0.0,0.0,0.0,-2.4602,0.0,0.0,0.0,-2.494,-2.4321,0.0,0.0,0.0,0.0,0.0,0.0,0.0,0.0,-3.2847,0.0,-3.6096,0.0,0.0,-3.8096,-3.8388,-3.9094,-4.0455,-4.0236,-4.0274,-4.0777,-4.0797,-4.0797,-4.0797,-4.0797,-4.1184,-4.199,-4.286,-4.375,-4.4613,-4.5413,-4.5807,-4.5807,-4.5807,-4.5807,-4.5807,-4.5807,-4.5807,-4.5807,-4.5807,-4.5807,-4.5826,-4.5981,-4.6999,-4.8411,-4.8585,-4.961,-5.0898,-5.0898,-5.0898,-5.0898,-5.0898,-5.0898,-5.0937,-5.1091,-5.226,-5.3672,-5.4542,-5.5374,-5.6012,-5.6012,-5.6012,-5.6026,-5.6146,-5.6239,-5.68,-5.8596,-5.9091,-5.9707,-6.1367,-6.1699,-6.1699,-6.1699,-6.1699,-6.1699,-6.1699,-6.1699,-6.1699,-6.1699,-6.1699,-6.1699,-6.1699,-6.1699,-6.1699,-6.1699,-6.1699,-6.1699,-6.1699,-6.1699,-6.1699,-6.1699,-6.1699,-6.1699,-6.1699,-6.1699,-6.1699,-6.1699,-6.1699,-6.1699,-6.1699,-6.1875,-6.2422,0.0,0.0,0.0,0.0,-2.6866,0.0,0.0,0.0,-2.4107,-2.2961,0.0,0.0,0.0,0.0,0.0,0.0,0.0,0.0,-2.6432,-2.8809,-3.1072,0.0,0.0,0.0,0.0,-3.6304,-3.7085,-3.9462,-3.8218,-3.8353,-4.0681,-4.0797,-4.0797,-4.0797,-4.0797,-4.1184,-4.199,-4.286,-4.375,-4.4613,-4.5413,-4.5807,-4.5807,-4.5807,-4.5807,-4.5807,-4.5807,-4.5807,-4.5807,-4.5807,-4.5807,-4.5884,-4.6651,-4.754,-4.8488,-4.9262,-5.0124,-5.0898,-5.0898,-5.0898,-5.0898,-5.0898,-5.0898,-5.1033,-5.1815,-5.2724,-5.3672,-5.4542,-5.5374,-5.6012,-5.6012,-5.6012,-5.5993,-5.6018,-5.6155,-5.6784,-5.8535,-5.9056,-5.9707,-6.1367,-6.1699,-6.1699,-6.1699,-6.1699,-6.1699,-6.1699,-6.1699,-6.1699,-6.1699,-6.1699,-6.1699,-6.1699,-6.1699,-6.1699,-6.1699,-6.1699,-6.1699,-6.1699,-6.1699,-6.1699,-6.1699,-6.1699,-6.1699,-6.1699,-6.1699,-6.1699,-6.1699,-6.1699,-6.1699,-6.1719,-6.248,-6.332,0.0,0.0,0.0,0.0,0.0,0.0,-2.4388,0.0,-2.3938,0.0,0.0,0.0,0.0,0.0,0.0,0.0,0.0,0.0,0.0,0.0,0.0,0.0,0.0,0.0,0.0,0.0,0.0,0.0,-3.7309,-3.7812,-3.9926,-4.0526,-4.0797,-4.0797,-4.0797,-4.0971,-4.1293,-4.2628,-4.3479,-4.3866,-4.5162,-4.5807,-4.5807,-4.5807,-4.5807,-4.5807,-4.5807,-4.5807,-4.5807,-4.5807,-4.5807,-4.5942,-4.7308,-4.8082,-4.8508,-4.9378,-5.0202,-5.0898,-5.0898,-5.0898,-5.0898,-5.0898,-5.1235,-5.1815,-5.2685,-5.3556,-5.4426,-5.5258,-5.5741,-5.6012,-5.6012,-5.6012,-5.6018,-5.6094,-5.6611,-5.74,-5.8676,-5.9458,-6.0254,-6.1465,-6.1699,-6.1699,-6.1699,-6.1699,-6.1699,-6.1699,-6.1699,-6.1699,-6.1699,-6.1699,-6.1699,-6.1699,-6.1699,-6.1699,-6.1699,-6.1699,-6.1699,-6.1699,-6.1699,-6.1699,-6.1699,-6.1699,-6.1699,-6.1699,-6.1699,-6.1699,-6.1699,-6.1699,-6.1953,-6.2461,-6.2832,-6.373,-2.8669,0.0,0.0,0.0,0.0,0.0,0.0,0.0,0.0,0.0,0.0,0.0,0.0,0.0,0.0,0.0,0.0,0.0,0.0,0.0,0.0,0.0,0.0,0.0,0.0,0.0,0.0,0.0,0.0,-3.6671,-3.9365,-4.01,-4.0545,-4.0797,-4.0797,-4.0797,-4.0797,-4.2454,-4.3305,-4.3324,-4.4987,-4.5807,-4.5807,-4.5807,-4.5807,-4.5807,-4.5807,-4.5807,-4.5807,-4.5807,-4.5807,-4.5981,-4.7715,-4.8392,-4.8527,-4.9629,-5.0395,-5.0898,-5.0898,-5.0898,-5.0898,-5.0898,-5.1486,-5.2364,-5.3246,-5.4116,-5.4967,-5.578,-5.6012,-5.6012,-5.6012,-5.6026,-5.6137,-5.6485,-5.7098,-5.7944,-5.9119,-5.9915,-6.0664,-6.1523,-6.1699,-6.1699,-6.1699,-6.1699,-6.1699,-6.1699,-6.1699,-6.1699,-6.1699,-6.1699,-6.1699,-6.1699,-6.1699,-6.1699,-6.1699,-6.1699,-6.1699,-6.1699,-6.1699,-6.1699,-6.1699,-6.1699,-6.1699,-6.1699,-6.1699,-6.1699,-6.1699,-6.1933,-6.25,-6.3359,-6.3359,-6.416,0.0,0.0,0.0,-2.6988,0.0,0.0,0.0,0.0,-2.5692,0.0,0.0,0.0,0.0,0.0,0.0,0.0,0.0,0.0,0.0,0.0,0.0,0.0,0.0,0.0,0.0,0.0,-2.9751,0.0,-3.2847,0.0,-3.923,-3.952,-3.9926,-4.0777,-4.0797,-4.0797,-4.0797,-4.2454,-4.3305,-4.3324,-4.4987,-4.5807,-4.5807,-4.5807,-4.5807,-4.5807,-4.5807,-4.5807,-4.5807,-4.5807,-4.5807,-4.5981,-4.7715,-4.8392,-4.8604,-5.0241,-5.0879,-5.0898,-5.0898,-5.0898,-5.0898,-5.0898,-5.1486,-5.2364,-5.3246,-5.4116,-5.4967,-5.578,-5.6012,-5.6012,-5.6012,-5.6094,-5.6408,-5.7256,-5.7578,-5.8168,-5.9887,-6.0325,-6.0664,-6.1523,-6.1699,-6.1699,-6.1699,-6.1699,-6.1699,-6.1699,-6.1699,-6.1699,-6.1699,-6.1699,-6.1699,-6.1699,-6.1699,-6.1699,-6.1699,-6.1699,-6.1699,-6.1699,-6.1699,-6.1699,-6.1699,-6.1699,-6.1699,-6.1699,-6.1699,-6.1699,-6.1699,-6.2558,-6.3418,-6.4258,-6.4258,-6.4746,0.0,0.0,-3.3625,-2.9485,0.0,0.0,0.0,0.0,0.0,0.0,0.0,0.0,0.0,0.0,0.0,0.0,0.0,0.0,0.0,0.0,0.0,0.0,0.0,0.0,0.0,0.0,0.0,0.0,-3.1751,0.0,0.0,-3.8862,-3.9636,-3.9926,-4.0507,-4.0797,-4.0797,-4.2454,-4.3305,-4.3324,-4.4987,-4.5807,-4.5807,-4.5807,-4.5807,-4.5807,-4.5807,-4.5807,-4.5807,-4.5807,-4.6136,-4.6786,-4.7947,-4.8759,-4.9397,-5.0492,-5.0898,-5.0898,-5.0898,-5.0898,-5.0995,-5.1563,-5.2356,-5.3207,-5.4097,-5.4948,-5.5644,-5.5915,-5.6012,-5.6012,-5.6012,-5.6536,-5.7139,-5.7497,-5.8522,-5.9583,-6.0228,-6.0839,-6.1348,-6.164,-6.1699,-6.1699,-6.1699,-6.1699,-6.1699,-6.1699,-6.1699,-6.1699,-6.1699,-6.1699,-6.1699,-6.1699,-6.1699,-6.1699,-6.1699,-6.1699,-6.1699,-6.1699,-6.1699,-6.1699,-6.1699,-6.1699,-6.1699,-6.1699,-6.1699,-6.1699,-6.1699,-6.2578,-6.3457,-6.4316,-6.4883,-6.5625,-3.4376,-3.509,0.0,-3.1447,-3.0941,0.0,-2.6472,0.0,0.0,0.0,0.0,0.0,0.0,0.0,0.0,0.0,0.0,0.0,0.0,-2.0577,0.0,0.0,0.0,0.0,0.0,0.0,-2.6163,-2.9666,-3.0264,0.0,0.0,0.0,-3.9191,-3.9481,-4.0352,-4.0951,-4.1216,-4.2609,-4.346,-4.3788,-4.5142,-4.5807,-4.5807,-4.5807,-4.5807,-4.5807,-4.5807,-4.5807,-4.5807,-4.5807,-4.631,-4.7192,-4.8063,-4.8933,-4.9803,-5.0589,-5.0898,-5.0898,-5.0898,-5.1091,-5.1447,-5.2008,-5.2995,-5.4078,-5.4639,-5.5354,-5.6012,-5.6012,-5.6012,-5.607,-5.6371,-5.6955,-5.7637,-5.8359,-5.9437,-6.0407,-6.0781,-6.1308,-6.1699,-6.1699,-6.1699,-6.1699,-6.1699,-6.1699,-6.1699,-6.1699,-6.1699,-6.1699,-6.1699,-6.1699,-6.1699,-6.1699,-6.1699,-6.1699,-6.1699,-6.1699,-6.1699,-6.1699,-6.1699,-6.1699,-6.1699,-6.1699,-6.1699,-6.1699,-6.1699,-6.1699,-6.1699,-6.289,-6.375,-6.4336,-6.5508,-6.6367]},{"header":{"parameterUnit":"m.s-1","parameterCategory":1,"la1":30.6,"la2":29.2853,"lo1":-89.7004,"lo2":-87.6739,"dy":0.0162,"dx":0.0183,"nx":112,"ny":82,"refTime":"2024-12-05T18:00:00:Z","depth":0,"parameterNumber":3,"parameterNumberName":"V-component_of_WINDS"},"data":[0.0,0.0,0.0,0.0,0.0,0.0,0.0,0.0,0.0,0.0,0.0,0.0,0.0,0.0,0.0,0.0,0.0,0.0,0.0,0.0,0.0,0.0,0.0,0.0,0.0,0.0,0.0,0.0,0.0,0.0,0.0,0.0,0.0,0.0,0.0,0.0,0.0,0.0,0.0,0.0,0.0,0.0,0.0,0.0,0.0,0.0,0.0,0.0,0.0,0.0,0.0,0.0,0.0,0.0,0.0,0.0,0.0,0.0,0.0,0.0,0.0,0.0,0.0,0.0,0.0,0.0,0.0,0.0,0.0,0.0,0.0,0.0,0.0,0.0,0.0,0.0,0.0,0.0,0.0,0.0,0.0,0.0,0.0,0.0,0.0,0.0,0.0,0.0,0.0,0.0,-0.3531,-0.3051,-0.3267,-0.3303,-0.3046,-0.2693,-0.2107,-0.11,0.0,0.0,0.0,0.0,0.0,0.0,0.0,0.0,0.0,0.0,0.0,0.0,0.0,0.0,0.0,0.0,0.0,0.0,0.0,0.0,0.0,0.0,0.0,0.0,0.0,0.0,0.0,0.0,0.0,0.0,0.0,0.0,0.0,0.0,0.0,0.0,0.0,0.0,0.0,0.0,0.0,0.0,0.0,0.0,0.0,0.0,0.0,0.0,0.0,0.0,0.0,0.0,0.0,0.0,0.0,0.0,0.0,0.0,0.0,0.0,0.0,0.0,0.0,0.0,0.0,0.0,0.0,0.0,0.0,0.0,0.0,0.0,0.0,0.0,0.0,0.0,0.0,0.0,0.0,0.0,0.0,0.0,0.0,0.0,0.0,0.0,0.0,0.0,0.0,0.0,0.0,0.0,0.0,0.0,0.0,0.0,0.0,0.0,0.0,0.0,0.0,0.0,0.0,0.0,-0.3353,-0.4154,-0.4363,-0.4078,-0.3094,-0.2796,-0.2241,-0.1246,0.0,0.0,0.0,0.0,0.0,0.0,0.0,0.0,0.0,0.0,0.0,0.0,0.0,0.0,0.0,0.0,0.0,0.0,0.0,0.0,0.0,0.0,0.0,0.0,0.0,0.0,0.0,0.0,0.0,0.0,0.0,0.0,0.0,0.0,0.0,0.0,0.0,0.0,0.0,0.0,0.0,0.0,0.0,0.0,0.0,0.0,0.0,0.0,0.0,0.0,0.0,0.0,0.0,0.0,0.0,0.0,0.0,0.0,0.0,0.0,0.0,0.0,0.0,0.0,0.0,0.0,0.0,0.0,0.0,0.0,0.0,0.0,0.0,0.0,0.0,0.0,0.0,0.0,0.0,0.0,0.0,0.0,0.0,0.0,0.0,0.0,0.0,0.0,0.0,0.0,0.0,0.0,0.0,0.0,0.0,0.0,0.0,0.0,0.0,0.0,0.0,0.0,0.0,-0.3936,-0.4449,-0.5293,-0.5468,-0.5342,-0.4711,-0.4405,-0.3722,-0.2528,-0.1965,0.0,0.0,0.0,0.0,0.0,0.0,0.0,0.0,0.0,0.0,0.0,0.0,0.0,0.0,0.0,0.0,0.0,0.0,0.0,0.0,0.0,0.0,0.0,0.0,0.0,0.0,0.0,0.0,0.0,0.0,0.0,0.0,0.0,0.0,0.0,0.0,0.0,0.0,0.0,0.0,0.0,0.0,0.0,0.0,0.0,0.0,0.0,0.0,0.0,0.0,0.0,0.0,0.0,0.0,0.0,0.0,0.0,0.0,0.0,0.0,0.0,0.0,0.0,0.0,0.0,0.0,0.0,0.0,0.0,0.0,0.0,0.0,0.0,0.0,0.0,0.0,0.0,0.0,0.0,0.0,0.0,0.0,0.0,0.0,0.0,0.0,0.0,0.0,0.0,0.0,0.0,0.0,0.0,0.0,0.0,0.0,0.0,0.0,0.0,0.0,0.0,0.0,-0.5143,-0.5513,-0.6032,-0.6143,-0.6146,-0.6051,-0.5618,-0.4879,-0.3661,-0.2976,0.0,0.0,0.0,0.0,0.0,0.0,0.0,0.0,0.0,0.0,0.0,0.0,0.0,0.0,0.0,0.0,0.0,0.0,0.0,0.0,0.0,0.0,0.0,0.0,0.0,0.0,0.0,0.0,0.0,0.0,0.0,0.0,0.0,0.0,0.0,0.0,0.0,0.0,0.0,0.0,0.0,0.0,0.0,0.0,0.0,0.0,0.0,0.0,0.0,0.0,0.0,0.0,0.0,0.0,0.0,0.0,0.0,0.0,0.0,0.0,0.0,0.0,0.0,0.0,0.0,0.0,0.0,0.0,0.0,0.0,0.0,0.0,0.0,0.0,0.0,0.0,0.0,0.0,0.0,0.0,0.0,0.0,0.0,0.0,0.0,0.0,0.0,0.0,0.0,0.0,0.0,0.0,0.0,0.0,0.0,0.0,0.0,0.0,0.0,0.0,0.0,0.0,-0.4968,-0.5795,-0.6056,-0.5991,-0.5926,-0.5918,-0.5388,-0.4671,-0.3833,-0.2922,0.0,0.0,0.0,0.0,0.0,0.0,0.0,0.0,0.0,0.0,0.0,0.0,0.0,0.0,0.0,0.0,0.0,0.0,0.0,0.0,0.0,0.0,0.0,0.0,0.0,0.0,0.0,0.0,0.0,0.0,0.0,0.0,0.0,0.0,0.0,0.0,0.0,0.0,0.0,0.0,0.0,0.0,0.0,0.0,0.0,0.0,0.0,0.0,0.0,0.0,0.0,0.0,0.0,0.0,0.0,0.0,0.0,0.0,0.0,0.0,0.0,0.0,0.0,0.0,0.0,0.0,0.0,0.0,0.0,0.0,0.0,0.0,0.0,0.0,0.0,0.0,0.0,0.0,0.0,0.0,0.0,0.0,0.0,0.0,0.0,0.0,0.0,0.0,0.0,0.0,0.0,0.0,0.0,0.0,0.0,0.0,0.0,0.0,0.0,0.0,0.0,0.0,-0.5058,-0.5627,0.0,-0.5931,-0.5904,-0.5904,-0.5423,-0.4878,-0.4278,0.0,0.0,0.0,0.0,0.0,0.0,0.0,0.0,0.0,0.0,0.0,0.0,0.0,0.0,0.0,0.0,0.0,0.0,0.0,0.0,0.0,0.0,0.0,0.0,0.0,0.0,0.0,0.0,0.0,0.0,0.0,0.0,0.0,0.0,0.0,0.0,0.0,0.0,0.0,0.0,0.0,0.0,0.0,0.0,0.0,0.0,0.0,0.0,0.0,0.0,0.0,0.0,0.0,0.0,0.0,0.0,0.0,0.0,0.0,0.0,0.0,0.0,0.0,0.0,0.0,0.0,0.0,0.0,0.0,0.0,0.0,0.0,0.0,0.0,0.0,0.0,0.0,0.0,0.0,0.0,0.0,0.0,0.0,0.0,0.0,0.0,0.0,0.0,0.0,0.0,0.0,0.0,0.0,0.0,0.0,0.0,0.0,0.0,0.0,0.0,0.0,0.0,-0.4616,-0.5147,-0.5534,0.0,-0.585,-0.5833,-0.5795,-0.5349,-0.4887,-0.4479,0.0,0.0,0.0,0.0,0.0,0.0,0.0,0.0,0.0,0.0,0.0,0.0,0.0,0.0,0.0,0.0,0.0,0.0,0.0,0.0,0.0,0.0,0.0,0.0,0.0,0.0,0.0,0.0,0.0,0.0,0.0,0.0,0.0,0.0,0.0,0.0,0.0,0.0,0.0,0.0,0.0,0.0,0.0,0.0,0.0,0.0,0.0,0.0,0.0,0.0,0.0,0.0,0.0,0.0,0.0,0.0,0.0,0.0,0.0,0.0,0.0,0.0,0.0,0.0,0.0,0.0,0.0,0.0,0.0,0.0,0.0,0.0,0.0,0.0,0.0,0.0,0.0,0.0,0.0,0.0,0.0,0.0,0.0,0.0,0.0,0.0,0.0,0.0,0.0,0.0,0.0,0.0,0.0,0.0,0.0,0.0,0.0,0.0,0.0,0.0,0.0,0.0,-0.4627,-0.5178,-0.5553,-0.5677,-0.5688,-0.564,-0.5518,-0.5071,-0.4644,0.0,0.0,0.0,0.0,0.0,0.0,0.0,0.0,0.0,0.0,0.0,0.0,0.0,0.0,0.0,0.0,0.0,0.0,0.0,0.0,0.0,0.0,0.0,0.0,0.0,0.0,0.0,0.0,0.0,0.0,0.0,0.0,0.0,0.0,0.0,0.0,0.0,0.0,0.0,0.0,0.0,0.0,0.0,0.0,0.0,0.0,0.0,0.0,0.0,0.0,0.0,0.0,0.0,0.0,0.0,0.0,0.0,0.0,0.0,0.0,0.0,0.0,0.0,0.0,0.0,0.0,0.0,0.0,0.0,0.0,0.0,0.0,0.0,0.0,0.0,0.0,0.0,0.0,0.0,0.0,0.0,0.0,0.0,0.0,0.0,0.0,0.0,0.0,0.0,0.0,0.0,0.0,0.0,0.0,0.0,0.0,0.0,0.0,0.0,0.0,0.0,0.0,0.0,-0.4627,-0.5178,-0.5553,-0.5677,-0.5688,-0.564,-0.5518,-0.5071,-0.4609,-0.42,0.0,0.0,0.0,0.0,0.0,0.0,0.0,0.0,0.0,0.0,0.0,0.0,0.0,0.0,0.0,0.0,0.0,0.0,0.0,0.0,0.0,0.0,0.0,0.0,0.0,0.0,0.0,0.0,0.0,0.0,0.0,0.0,0.0,0.0,0.0,0.0,0.0,0.0,0.0,0.0,0.0,0.0,0.0,0.0,0.0,0.0,0.0,0.0,0.0,0.0,0.0,0.0,0.0,0.0,0.0,0.0,0.0,0.0,0.0,0.0,0.0,0.0,0.0,0.0,0.0,0.0,0.0,0.0,0.0,0.0,0.0,0.0,0.0,0.0,0.0,0.0,0.0,0.0,0.0,0.0,0.0,0.0,0.0,0.0,0.0,0.0,0.0,0.0,0.0,0.0,0.0,0.0,0.0,0.0,0.0,0.0,0.0,0.0,0.0,0.0,0.0,0.0,-0.4613,-0.5135,-0.5502,-0.5672,-0.5645,-0.5567,-0.5488,-0.5044,-0.4593,-0.4116,0.0,0.0,0.0,0.0,0.0,0.0,0.0,0.0,0.0,0.0,0.0,0.0,0.0,0.0,0.0,0.0,0.0,0.0,0.0,0.0,0.0,0.0,0.0,0.0,0.0,0.0,0.0,0.0,0.0,0.0,0.0,0.0,0.0,0.0,0.0,0.0,0.0,0.0,0.0,0.0,0.0,0.0,0.0,0.0,0.0,0.0,0.0,0.0,0.0,0.0,0.0,0.0,0.0,0.0,0.0,0.0,0.0,0.0,0.0,0.0,0.0,0.0,0.0,0.0,0.0,0.0,0.0,0.0,0.0,0.0,0.0,0.0,0.0,0.0,0.0,0.0,0.0,0.0,0.0,0.0,0.0,0.0,0.0,0.0,0.0,0.0,0.0,0.0,0.0,0.0,0.0,0.0,0.0,0.0,0.0,0.0,0.0,0.0,0.0,0.0,0.0,0.0,-0.4597,-0.5112,-0.5464,-0.5661,-0.558,-0.5459,-0.5421,-0.504,-0.4593,-0.4116,0.0,0.0,0.0,0.0,0.0,0.0,0.0,0.0,0.0,0.0,0.0,0.0,0.0,0.0,0.0,0.0,0.0,0.0,0.0,0.0,0.0,0.0,0.0,0.0,0.0,0.0,0.0,0.0,0.0,0.0,0.0,0.0,0.0,0.0,0.0,0.0,0.0,0.0,0.0,0.0,0.0,0.0,0.0,0.0,0.0,0.0,0.0,0.0,0.0,0.0,0.0,0.0,0.0,0.0,0.0,0.0,0.0,0.0,0.0,0.0,-0.3694,0.0,0.0,0.0,0.0,0.0,0.0,0.0,0.0,0.0,0.0,0.0,0.0,0.0,0.0,0.0,0.0,0.0,0.0,0.0,0.0,0.0,0.0,0.0,0.0,0.0,0.0,0.0,0.0,0.0,0.0,0.0,0.0,0.0,0.0,0.0,0.0,0.0,0.0,0.0,0.0,0.0,-0.4597,-0.5112,-0.5464,-0.5661,-0.558,-0.5459,-0.5421,-0.504,-0.4593,-0.4116,-0.3642,0.0,0.0,0.0,0.0,0.0,0.0,0.0,0.0,0.0,0.0,0.0,0.0,0.0,0.0,0.0,0.0,0.0,0.0,0.0,0.0,0.0,0.0,0.0,0.0,0.0,0.0,0.0,0.0,0.0,0.0,0.0,0.0,0.0,0.0,0.0,0.0,0.0,0.0,0.0,0.0,0.0,0.0,0.0,0.0,0.0,0.0,0.0,0.0,0.0,0.0,0.0,0.0,0.0,0.0,0.0,0.0,0.0,0.0,0.0,0.0,-0.4008,0.0,0.0,0.0,0.0,0.0,0.0,0.0,0.0,0.0,0.0,0.0,0.0,0.0,0.0,0.0,0.0,0.0,0.0,0.0,0.0,0.0,0.0,0.0,0.0,0.0,0.0,0.0,0.0,0.0,0.0,0.0,0.0,0.0,0.0,0.0,0.0,0.0,0.0,0.0,0.0,-0.4602,-0.5112,-0.5442,-0.558,-0.5494,-0.5415,-0.5292,-0.5007,-0.4642,-0.4311,-0.3892,0.0,0.0,0.0,0.0,0.0,0.0,0.0,0.0,0.0,0.0,0.0,0.0,0.0,0.0,0.0,0.0,0.0,0.0,0.0,0.0,0.0,0.0,0.0,0.0,0.0,0.0,0.0,0.0,0.0,0.0,0.0,0.0,0.0,0.0,0.0,0.0,0.0,0.0,0.0,0.0,0.0,0.0,0.0,0.0,0.0,0.0,0.0,0.0,0.0,0.0,0.0,0.0,0.0,-0.4963,-0.5044,-0.5143,-0.5224,-0.5325,-0.5375,-0.5067,-0.4826,-0.4642,-0.4408,0.0,0.0,0.0,0.0,0.0,0.0,0.0,0.0,0.0,0.0,0.0,0.0,0.0,0.0,0.0,0.0,0.0,0.0,0.0,0.0,0.0,0.0,0.0,0.0,-0.3983,-0.4472,0.0,0.0,0.0,0.0,0.0,0.0,0.0,0.0,0.0,0.0,0.0,0.0,-0.4643,-0.5125,-0.5415,-0.5494,-0.5442,-0.5361,-0.5197,-0.4988,-0.4762,-0.4553,-0.4224,-0.3814,0.0,0.0,0.0,0.0,0.0,0.0,0.0,0.0,0.0,0.0,0.0,0.0,0.0,0.0,0.0,0.0,0.0,0.0,0.0,0.0,0.0,0.0,0.0,0.0,0.0,0.0,0.0,0.0,0.0,0.0,0.0,0.0,-0.3547,-0.3695,0.0,0.0,0.0,0.0,0.0,0.0,0.0,0.0,0.0,0.0,0.0,0.0,0.0,-0.4673,-0.4896,-0.5181,-0.5349,-0.532,-0.5714,-0.5822,-0.5602,-0.6074,-0.6259,-0.6178,-0.6448,0.0,-0.5255,-0.4944,0.0,0.0,0.0,0.0,0.0,0.0,0.0,0.0,0.0,0.0,0.0,0.0,0.0,0.0,0.0,0.0,0.0,0.0,0.0,0.0,0.0,0.0,-0.4657,-0.4704,-0.4853,-0.4887,0.0,-0.4169,-0.3744,-0.3381,-0.3131,0.0,0.0,0.0,0.0,0.0,0.0,0.0,-0.4696,-0.5137,-0.5415,-0.5494,-0.5442,-0.5361,-0.5197,-0.5067,-0.4887,-0.4681,-0.4618,-0.4341,-0.383,-0.3629,0.0,0.0,0.0,0.0,0.0,0.0,0.0,0.0,0.0,0.0,0.0,0.0,0.0,0.0,0.0,0.0,0.0,0.0,0.0,0.0,0.0,0.0,0.0,0.0,0.0,0.0,0.0,0.0,0.0,-0.3504,-0.3852,-0.3791,-0.386,-0.3778,0.0,0.0,0.0,0.0,0.0,0.0,0.0,0.0,0.0,-0.5002,-0.5068,-0.5243,-0.5513,-0.567,-0.5793,-0.5922,-0.6275,-0.6407,-0.6325,-0.6719,-0.6885,-0.6837,-0.6991,-0.6867,-0.6471,-0.5907,-0.5626,-0.5509,0.0,0.0,0.0,0.0,-0.5166,-0.4975,-0.5264,-0.4657,0.0,-0.3442,0.0,0.0,0.0,0.0,0.0,0.0,0.0,0.0,0.0,0.0,-0.4706,-0.5161,-0.5327,-0.5346,-0.5222,-0.4974,-0.4575,0.0,-0.3822,-0.3626,-0.3235,0.0,0.0,0.0,0.0,-0.4406,-0.4839,-0.5189,-0.539,-0.5442,-0.5339,-0.5219,-0.5102,-0.5045,-0.4942,-0.4765,-0.4754,-0.4599,-0.4251,-0.4009,-0.3574,0.0,0.0,0.0,0.0,0.0,0.0,0.0,0.0,0.0,0.0,0.0,0.0,0.0,0.0,0.0,0.0,0.0,0.0,0.0,0.0,0.0,0.0,0.0,0.0,0.0,0.0,0.0,0.0,-0.3846,-0.4129,-0.395,-0.4162,-0.4159,0.0,0.0,0.0,0.0,0.0,0.0,-0.4862,-0.498,-0.5214,-0.5585,-0.5627,-0.5741,-0.6037,-0.604,-0.618,-0.6412,-0.6654,-0.6799,-0.6892,-0.7191,-0.7291,-0.7291,-0.7388,-0.748,-0.7482,-0.6754,-0.6389,-0.6241,-0.5996,-0.5939,-0.6037,-0.6078,-0.5854,-0.5644,-0.6271,-0.5627,-0.4476,-0.4297,-0.3195,-0.1774,-0.079,0.0,0.0,0.0,0.0,-0.3083,-0.4184,-0.452,-0.4751,-0.5416,-0.5623,-0.5664,-0.5572,-0.5502,-0.523,0.0,-0.4458,-0.4276,-0.3762,0.0,0.0,0.0,0.0,-0.4694,-0.5061,-0.526,-0.541,-0.541,-0.5301,-0.514,-0.5026,-0.5018,-0.4938,-0.4849,-0.4841,-0.4784,-0.4572,-0.4336,-0.3896,-0.3288,0.0,0.0,0.0,0.0,0.0,0.0,0.0,0.0,0.0,0.0,0.0,0.0,0.0,0.0,0.0,0.0,0.0,0.0,0.0,0.0,0.0,0.0,0.0,0.0,0.0,0.0,0.0,0.0,0.0,-0.4287,-0.4686,0.0,0.0,0.0,0.0,-0.4742,-0.5004,-0.5197,-0.5366,-0.5559,-0.5801,-0.6043,-0.621,-0.6285,-0.6357,-0.636,-0.6517,-0.6783,-0.6786,-0.6936,-0.7188,-0.7444,-0.7596,-0.7596,-0.7842,-0.7985,-0.7895,-0.7253,-0.6975,-0.7021,-0.6763,-0.6651,-0.6671,-0.6817,-0.6836,-0.682,-0.7021,-0.6937,-0.6688,-0.6496,-0.4862,-0.2723,-0.165,-0.075,0.0,0.0,-0.268,-0.3125,-0.4962,-0.544,-0.5478,-0.565,-0.5686,-0.5688,-0.568,-0.5583,-0.5389,0.0,-0.4849,-0.4724,-0.4495,0.0,-0.4498,-0.4616,-0.4722,-0.4944,-0.5347,-0.5405,-0.541,-0.541,-0.5301,-0.514,-0.5026,-0.5018,-0.5015,-0.501,-0.5007,-0.4911,-0.4785,-0.4583,-0.3828,-0.2397,-0.2135,0.0,0.0,0.0,0.0,0.0,0.0,0.0,0.0,0.0,0.0,0.0,0.0,0.0,0.0,0.0,0.0,0.0,0.0,0.0,0.0,0.0,0.0,0.0,0.0,0.0,0.0,0.0,0.0,-0.4768,-0.5076,0.0,-0.48,-0.5015,-0.5211,-0.5249,-0.5513,-0.5735,-0.5983,-0.6032,-0.6151,-0.6306,-0.6352,-0.6396,-0.6387,-0.6589,-0.6692,-0.6795,-0.7144,-0.7344,-0.7444,-0.7743,-0.7842,-0.7842,-0.7942,-0.7988,-0.7978,-0.7722,-0.7617,-0.7553,-0.7356,-0.7278,-0.7285,-0.7339,-0.7417,-0.7489,-0.7448,-0.7372,-0.7114,-0.6018,-0.4501,-0.3053,-0.2662,-0.2774,-0.3164,-0.3821,-0.4406,-0.5057,-0.5724,-0.5896,-0.5885,-0.585,-0.5841,-0.5822,-0.5704,-0.5656,-0.5586,-0.5459,-0.5317,-0.5102,-0.4863,-0.4882,-0.492,-0.489,-0.5053,-0.5254,-0.5461,-0.5443,-0.5455,-0.5418,-0.5301,-0.514,-0.5026,-0.5018,-0.4944,-0.4866,-0.486,-0.4844,-0.4722,-0.4131,-0.3508,-0.2898,-0.1907,-0.1152,0.0,0.0,0.0,0.0,0.0,0.0,0.0,0.0,0.0,0.0,0.0,0.0,0.0,0.0,0.0,0.0,0.0,0.0,0.0,0.0,0.0,0.0,0.0,0.0,0.0,0.0,-0.5135,-0.5135,-0.5488,-0.5548,-0.5192,-0.5485,-0.5706,-0.5787,-0.5972,-0.6154,-0.6317,-0.6325,-0.6361,-0.6384,-0.6387,-0.6437,-0.6539,-0.6692,-0.6895,-0.7095,-0.7447,-0.7646,-0.7743,-0.7942,-0.7988,-0.7988,-0.7988,-0.7988,-0.7988,-0.7988,-0.7931,-0.7879,-0.7784,-0.7746,-0.7746,-0.7746,-0.7807,-0.7826,-0.7684,-0.7524,-0.7219,-0.6042,-0.4758,-0.3733,-0.3705,-0.3917,-0.4285,-0.4612,-0.5127,-0.5705,-0.6039,-0.6086,-0.6064,-0.5986,-0.5931,-0.5882,-0.5806,-0.5715,-0.5688,-0.5688,-0.5602,-0.5428,-0.5189,-0.526,-0.5284,-0.5168,-0.533,-0.5474,-0.5553,-0.5532,-0.5462,-0.5424,-0.5301,-0.514,-0.5026,-0.4941,-0.4882,-0.4801,-0.472,-0.4675,-0.4629,-0.3779,-0.3176,-0.2832,-0.144,-0.0673,-0.0594,0.0,0.0,0.0,0.0,0.0,0.0,0.0,0.0,0.0,0.0,0.0,0.0,0.0,0.0,0.0,0.0,0.0,0.0,0.0,0.0,0.0,0.0,0.0,-0.4695,-0.5125,-0.5432,-0.5438,-0.5812,-0.5961,-0.557,-0.5999,-0.6322,-0.6322,-0.6374,-0.6387,-0.6387,-0.6387,-0.6387,-0.6387,-0.6387,-0.6539,-0.6795,-0.6795,-0.7095,-0.7596,-0.7596,-0.7743,-0.7988,-0.7988,-0.7988,-0.7988,-0.7988,-0.7988,-0.7988,-0.7988,-0.7988,-0.7988,-0.7988,-0.7988,-0.7988,-0.7988,-0.7988,-0.7942,-0.7696,-0.7444,-0.7167,-0.6795,-0.5876,-0.4833,-0.4788,-0.4095,-0.3523,-0.4474,-0.4761,-0.4953,-0.5858,-0.6097,-0.6094,-0.6092,-0.6002,-0.5912,-0.5904,-0.5817,-0.5694,-0.5688,-0.5688,-0.565,-0.5534,-0.5513,-0.5513,-0.5513,-0.5513,0.0,-0.5675,-0.5586,-0.5467,-0.5429,-0.5265,-0.5146,-0.5031,-0.4868,-0.4793,-0.4785,-0.4597,-0.4498,-0.4492,-0.3645,-0.2798,-0.2056,-0.0706,0.0,0.0,0.0,0.0,0.0,0.0,0.0,0.0,0.0,0.0,0.0,0.0,0.0,0.0,0.0,0.0,0.0,0.0,0.0,0.0,0.0,0.0,0.0,-0.4719,-0.5172,-0.5207,-0.551,-0.5822,-0.6046,-0.6211,-0.6252,-0.6155,-0.6263,-0.6391,-0.6391,-0.6368,-0.6387,-0.6387,-0.6387,-0.6387,-0.6387,-0.6387,-0.6539,-0.6795,-0.6992,-0.7241,-0.7596,-0.7793,-0.7942,-0.7988,-0.7988,-0.7988,-0.7988,-0.7988,-0.7988,-0.7988,-0.7988,-0.7988,-0.7988,-0.7988,-0.7988,-0.7988,-0.7988,-0.7988,-0.7942,-0.7696,-0.7444,-0.7132,-0.6851,-0.6391,-0.5934,-0.5953,-0.5743,-0.5595,-0.5844,-0.5942,-0.5992,-0.624,-0.6339,-0.632,-0.6238,-0.624,-0.6119,-0.5942,-0.588,-0.5833,-0.5704,-0.5688,-0.5677,-0.5645,-0.564,-0.564,-0.564,-0.564,0.0,-0.5686,-0.5659,-0.5594,-0.5472,-0.539,-0.5271,-0.5148,-0.4914,-0.4723,-0.458,-0.4431,-0.4308,-0.4219,-0.3014,-0.177,-0.0612,-0.0206,0.0084,0.0,0.0,0.0,0.0,0.0,0.0,0.0,0.0,0.0,0.0,0.0,0.0,0.0,0.0,0.0,0.0,0.0,0.0,0.0,0.0,0.0,0.0,-0.5222,-0.5629,-0.5777,-0.5926,-0.6127,-0.6317,-0.6396,-0.6387,-0.6387,-0.6387,-0.6387,-0.6387,-0.6387,-0.6387,-0.6387,-0.6387,-0.6387,-0.6387,-0.6387,-0.6589,-0.6942,-0.7138,-0.7391,-0.7793,-0.7942,-0.7988,-0.7988,-0.7988,-0.7988,-0.7988,-0.7988,-0.7988,-0.7988,-0.7988,-0.7988,0.0,0.0,0.0,0.0,0.0,-0.7988,-0.7939,-0.7543,-0.7341,-0.7138,-0.6739,-0.6539,-0.6387,-0.6387,-0.6387,-0.6387,-0.6387,-0.6387,-0.6387,-0.6387,-0.6387,-0.6371,-0.6352,-0.6304,-0.6279,-0.6086,-0.5975,-0.5882,-0.5817,-0.5721,0.0,-0.5688,-0.5688,-0.5688,-0.5688,-0.5688,-0.5688,-0.5688,-0.5688,-0.5642,-0.5521,-0.5442,-0.5361,-0.5197,-0.4969,0.0,0.0,0.0,-0.3959,-0.3258,-0.2141,0.0,0.0,0.0,0.0,0.0,0.0,0.0,0.0,0.0503,0.0532,0.0,0.0,0.0,0.0,0.0,0.0,0.0,0.0,0.0,0.0,0.0,0.0,0.0,0.0,0.0,0.0,-0.5703,-0.6024,-0.6255,-0.6287,-0.6325,-0.6376,-0.6387,-0.6387,-0.6387,-0.6387,-0.6387,-0.6387,-0.6387,-0.6387,-0.6387,0.0,0.0,0.0,0.0,-0.6637,-0.7188,-0.7188,-0.7487,-0.7988,-0.7988,-0.7988,-0.7988,-0.7988,-0.7988,-0.7988,-0.7988,-0.7988,-0.7988,-0.7988,-0.7988,-0.7988,-0.7988,-0.7988,-0.7988,-0.7988,-0.7988,-0.7939,-0.7437,0.0,0.0,-0.6587,-0.6437,-0.6387,-0.6387,-0.6387,-0.6387,-0.6387,-0.6387,-0.6387,-0.6387,-0.6387,-0.6387,-0.6387,-0.6361,-0.6333,-0.632,-0.6086,-0.592,-0.5907,-0.5812,-0.5688,-0.5688,-0.5688,-0.5688,-0.5688,-0.5688,-0.5688,-0.5688,-0.5688,-0.5648,-0.554,0.0,0.0,-0.5238,-0.4999,-0.4803,-0.4717,-0.4381,-0.3464,-0.1913,-0.1226,-0.0499,0.0342,0.035,0.0472,0.0723,0.0725,0.0851,0.1026,0.0822,0.0732,0.0,0.0,0.0,0.0,0.0,0.0,0.0,0.0,0.0,0.0,0.0,0.0,0.0,0.0,0.0,-0.5437,-0.5899,-0.6246,-0.6385,-0.6404,-0.6363,-0.6384,-0.6387,-0.6387,-0.6387,-0.6387,-0.6387,-0.6387,-0.6387,-0.6387,-0.6387,-0.6387,-0.6387,-0.6387,-0.6387,-0.6637,-0.7188,-0.7188,-0.7487,-0.7988,0.0,0.0,-0.7988,-0.7988,-0.7988,-0.7988,-0.7988,-0.7988,-0.7988,-0.7988,-0.7988,-0.7988,-0.7988,-0.7988,-0.7988,-0.7988,-0.7988,-0.7939,-0.7643,-0.7391,-0.7138,-0.6842,-0.6589,-0.6387,-0.6387,-0.6387,0.0,-0.6387,-0.6387,-0.6387,-0.6387,-0.6387,-0.6387,-0.6387,-0.6371,-0.638,-0.6287,-0.6154,-0.6021,-0.5923,-0.5812,-0.5688,-0.5688,-0.5688,-0.5688,-0.5688,-0.5688,-0.5688,-0.5688,-0.5688,-0.568,-0.5656,-0.5545,-0.5462,-0.544,-0.5135,-0.4893,-0.4806,-0.3928,-0.2658,-0.0958,-0.0787,-0.0294,0.0593,0.0608,0.0734,0.0936,0.0955,0.1057,0.1245,0.105,0.1047,0.0,0.0,0.0,0.0,0.0,0.0,0.0,0.0,0.0,0.0,0.0,-0.4325,-0.4477,0.0,-0.5567,-0.5837,-0.6159,-0.6372,-0.6379,-0.6387,-0.6387,-0.6387,-0.6387,-0.6387,-0.6387,-0.6387,-0.6387,-0.6387,-0.6387,-0.6387,-0.6387,-0.6387,-0.6387,-0.6387,-0.6539,-0.6789,-0.7188,-0.7341,-0.759,-0.7988,-0.7988,-0.7988,-0.7988,-0.7988,-0.7988,-0.7988,-0.7988,-0.7988,-0.7988,-0.7988,-0.7988,-0.7988,-0.7988,-0.7988,-0.7988,-0.7988,-0.7988,-0.7939,-0.754,-0.7291,-0.7138,-0.6739,-0.6489,-0.6387,-0.6387,-0.6387,-0.6387,-0.6387,-0.6387,-0.6387,-0.6387,-0.6387,-0.6387,-0.6387,-0.6387,-0.6371,-0.6366,-0.626,-0.6159,-0.61,-0.5939,-0.5817,-0.5817,-0.5726,-0.5688,-0.5688,-0.5688,-0.5688,-0.5688,-0.5688,-0.5688,-0.5688,-0.558,-0.5508,-0.5508,-0.482,-0.436,-0.4309,-0.2948,-0.1704,-0.0705,-0.0346,0.0157,0.0825,0.0845,0.0982,0.1199,0.1185,0.1255,0.1414,0.1311,0.1313,0.0,0.0,0.0,0.0,0.0,0.0,0.0,0.0,-0.3786,-0.3734,-0.4237,-0.4755,-0.4937,-0.5305,-0.5714,-0.6139,-0.6265,-0.6337,-0.6387,-0.6387,-0.6387,-0.6387,-0.6387,-0.6387,-0.6387,-0.6387,-0.6387,-0.6387,-0.6387,-0.6387,-0.6387,-0.6387,-0.6387,-0.6387,-0.6642,-0.6942,-0.7188,-0.7444,-0.7746,-0.7988,-0.7988,-0.7988,-0.7988,-0.7988,-0.7988,-0.7988,-0.7988,-0.7988,-0.7988,-0.7988,-0.7988,-0.7988,-0.7988,-0.7988,-0.7988,-0.7988,-0.7988,-0.7939,-0.7487,-0.7288,-0.7138,-0.6686,-0.6487,-0.6387,-0.6387,-0.6387,-0.6387,-0.6387,-0.6387,-0.6387,-0.6387,-0.6387,-0.6387,-0.6387,-0.6387,-0.6387,-0.6387,-0.6347,-0.6317,-0.6317,-0.6089,-0.5937,-0.5937,-0.586,-0.5742,-0.5696,-0.5688,-0.5688,-0.5688,-0.5688,-0.5688,-0.5688,-0.5602,-0.5445,-0.5249,-0.4235,-0.3524,-0.3345,-0.1965,-0.0914,-0.0437,0.0163,0.066,0.1072,0.1101,0.1212,0.1408,0.1438,0.1468,0.1499,0.1523,0.1522,0.0,-0.0613,-0.1174,-0.1949,-0.2062,-0.2323,0.0,0.0,-0.3937,-0.4114,-0.466,-0.5091,-0.4847,-0.5395,-0.5891,-0.5917,-0.6017,-0.6139,-0.6387,-0.6387,-0.6387,-0.6387,-0.6387,-0.6387,-0.6387,-0.6387,-0.6387,-0.6387,-0.6387,-0.6387,-0.6387,-0.6387,-0.6387,-0.6387,-0.6642,-0.6942,-0.7188,-0.7444,-0.7746,-0.7988,-0.7988,-0.7988,-0.7988,-0.7988,-0.7988,-0.7988,-0.7988,-0.7988,-0.7988,-0.7988,-0.7988,-0.7988,-0.7988,-0.7988,-0.7988,-0.7988,-0.7988,-0.7988,-0.7939,-0.7587,-0.7188,-0.7138,-0.6786,-0.6387,-0.6387,-0.6387,-0.6387,-0.6387,-0.6387,-0.6387,-0.6387,-0.6387,-0.6387,-0.6387,-0.6387,-0.6387,-0.6387,-0.6347,-0.6317,-0.6317,-0.6159,-0.6064,-0.6064,-0.6053,-0.5975,-0.5721,-0.5688,-0.5688,-0.5688,-0.5688,-0.5688,-0.5688,-0.5677,-0.5271,-0.4342,-0.3366,-0.2476,-0.1634,-0.1378,-0.0709,0.0501,0.064,0.0864,0.1337,0.1392,0.1468,0.147,0.1501,0.1532,0.161,0.1565,0.1613,0.0667,0.0412,0.0068,-0.0598,-0.1174,-0.1849,-0.2818,-0.3718,-0.4344,-0.4344,-0.4745,-0.5163,-0.5215,-0.5475,-0.582,0.0,-0.6205,-0.6287,-0.6387,-0.6387,-0.6387,-0.6387,-0.6387,-0.6387,-0.6387,-0.6387,-0.6387,-0.6387,-0.6387,-0.6387,-0.6387,-0.6387,-0.6387,-0.6387,-0.6911,-0.722,-0.7188,-0.7724,-0.8029,-0.7988,-0.7988,-0.7988,-0.7988,-0.7988,-0.7988,-0.7988,-0.7988,-0.7988,-0.7988,-0.7988,-0.7988,-0.7988,-0.7988,-0.7988,-0.7988,-0.7988,-0.7988,-0.7939,-0.7637,-0.7388,-0.7138,-0.6836,-0.6587,-0.6387,-0.6387,-0.6387,-0.6387,-0.6387,-0.6387,-0.6387,-0.6387,-0.6387,-0.6387,-0.6387,-0.6387,-0.6387,-0.6387,-0.6399,-0.6366,-0.6366,-0.6274,-0.6192,-0.6192,-0.6132,-0.6051,-0.5953,-0.5877,-0.5809,-0.5696,-0.5688,-0.5508,-0.4926,-0.4389,-0.3881,-0.3449,-0.2521,-0.1763,-0.1398,-0.0698,0.0,0.0655,0.0848,0.1082,0.1442,0.1485,0.1507,0.1507,0.1538,0.1559,0.1621,0.159,0.1598,0.0892,0.0899,0.0798,0.0346,-0.057,-0.1585,-0.2325,-0.3657,-0.4662,-0.4498,-0.4825,-0.5183,-0.5382,-0.5539,-0.5734,-0.6237,-0.6287,-0.6337,-0.6387,-0.6387,-0.6387,-0.6387,-0.6387,-0.6387,-0.6387,-0.6387,-0.6387,-0.6387,-0.6387,-0.64,-0.6435,-0.6435,-0.6452,-0.6487,-0.7189,-0.7455,-0.7301,-0.8016,-0.8252,-0.8102,-0.8102,-0.8029,-0.7988,-0.7988,-0.7988,-0.7988,-0.7988,-0.7988,-0.7988,-0.7988,-0.7988,-0.7988,-0.7988,-0.7988,-0.7988,-0.7988,-0.7988,-0.7939,-0.749,-0.7238,-0.7138,-0.6639,-0.6437,-0.6387,-0.6387,-0.6387,-0.6387,-0.6387,-0.6387,-0.6387,-0.6387,-0.6387,-0.6387,-0.6387,-0.6387,-0.6387,-0.6387,-0.6387,-0.6387,-0.6387,-0.6372,-0.6314,-0.6314,-0.6241,-0.617,-0.614,-0.6062,-0.5961,-0.5847,-0.5575,-0.5001,-0.4032,-0.3047,-0.247,-0.2483,-0.1582,-0.0997,-0.0912,-0.0091,0.0547,0.0821,0.1018,0.126,0.1493,0.1523,0.1538,0.1538,0.1569,0.1584,0.1584,0.1607,0.1617,0.0071,0.0073,0.0115,0.004,-0.0809,-0.1796,-0.2614,-0.3757,-0.4698,-0.47,-0.4969,-0.5186,-0.5186,-0.5436,-0.5687,-0.5992,-0.5992,-0.6089,-0.6387,-0.6387,-0.6387,-0.6387,-0.6387,-0.6387,0.0,-0.6387,-0.6387,-0.6387,-0.6387,-0.6438,-0.6608,-0.6613,-0.6668,-0.6787,-0.7323,-0.7589,-0.7583,-0.8213,-0.8404,-0.8313,-0.8313,-0.8184,-0.7988,-0.7988,-0.7988,-0.7988,-0.7988,-0.7988,-0.7988,-0.7988,-0.7988,-0.7988,-0.7988,-0.7988,-0.7988,-0.7988,-0.7988,-0.7942,-0.7696,-0.7441,-0.7138,-0.6892,-0.6589,-0.6387,-0.6387,-0.6387,-0.6387,-0.6387,-0.6387,-0.6387,-0.6387,-0.6387,-0.6387,-0.6387,-0.6387,-0.6387,-0.6387,-0.6387,-0.6387,-0.6387,-0.6384,-0.6381,-0.6381,-0.6379,-0.6388,-0.6279,-0.6309,-0.6262,-0.6092,-0.5176,-0.4116,-0.3053,-0.2062,-0.1446,-0.1427,-0.06,0.0047,0.0333,0.0381,0.0619,0.1142,0.1191,0.1286,0.1477,0.1555,0.1619,0.1619,0.16,0.1615,0.1615,0.1616,0.1617,0.0865,0.0894,0.097,0.0983,0.0232,-0.0813,-0.1756,-0.287,-0.3894,-0.4642,-0.4967,-0.5192,-0.5342,-0.549,-0.5686,-0.6129,-0.6093,-0.6092,-0.6387,-0.6387,-0.6387,-0.6387,-0.6387,0.0,0.0,0.0,0.0,-0.6387,-0.6387,-0.6438,-0.6611,-0.6619,-0.6676,-0.6798,-0.7464,-0.7736,-0.7598,-0.8265,-0.856,-0.8411,-0.8368,-0.8187,-0.7988,-0.7988,-0.7988,-0.7988,-0.7988,-0.7988,-0.7988,-0.7988,-0.7988,-0.7988,-0.7988,-0.7988,-0.7988,-0.7988,-0.7892,-0.7693,-0.7441,-0.7288,-0.7138,-0.6689,-0.6487,-0.6387,-0.6387,-0.6387,-0.6387,-0.6387,-0.6387,-0.6387,-0.6387,-0.6387,-0.6387,-0.6387,-0.6387,-0.6387,-0.6387,-0.6387,-0.6387,-0.6387,-0.6387,-0.6387,-0.6387,-0.6387,-0.6174,-0.5392,-0.5174,-0.5077,-0.5041,-0.3496,-0.2301,-0.196,-0.0887,-0.0187,-0.0189,0.0236,0.0568,0.0667,0.0811,0.1001,0.1192,0.1352,0.1508,0.1556,0.1586,0.1601,0.1601,0.1612,0.1617,0.1617,0.1617,0.1617,0.1006,0.1174,0.1442,0.1522,0.0782,-0.0298,-0.1357,-0.2406,-0.3483,-0.45,-0.4863,-0.5027,-0.5277,-0.5367,-0.5581,-0.6,-0.5976,-0.5999,-0.6226,-0.6239,-0.6289,-0.6387,-0.6387,-0.6387,0.0,0.0,0.0,-0.6387,-0.6427,-0.6554,-0.6679,-0.6725,-0.6804,-0.6926,-0.7599,-0.7874,-0.7737,-0.8419,-0.8716,-0.856,-0.8364,-0.8218,-0.8119,-0.8015,-0.7988,-0.7988,-0.7988,-0.7988,-0.7988,-0.7988,-0.7988,-0.7988,-0.7988,-0.7988,-0.7988,-0.7988,-0.7842,-0.7547,-0.7288,-0.7138,-0.6989,-0.6537,-0.6387,-0.6387,-0.6387,-0.6387,-0.6387,-0.6387,-0.6387,-0.6387,-0.6387,-0.6387,-0.6387,-0.6387,-0.6387,-0.6387,-0.6387,-0.6387,-0.6387,-0.6387,-0.6387,-0.6387,-0.6387,-0.6387,-0.6037,-0.4985,-0.4339,-0.3921,-0.3508,-0.2306,-0.1343,-0.0953,-0.0191,0.0287,0.0385,0.0578,0.0725,0.0925,0.112,0.1266,0.1315,0.1528,0.1588,0.1588,0.1607,0.1617,0.1617,0.1617,0.1617,0.1617,0.1617,0.1617,0.0517,0.09,0.15,0.1608,0.0846,-0.0202,-0.1359,-0.233,-0.3306,-0.4387,-0.4669,-0.4751,0.0,0.0,-0.5395,-0.5652,-0.5711,-0.5802,-0.6011,-0.6042,-0.6089,0.0,0.0,0.0,0.0,0.0,0.0,-0.6403,0.0,-0.6676,-0.6804,-0.6921,-0.7037,-0.7204,-0.7709,-0.7989,-0.7989,-0.8602,-0.8807,-0.8706,-0.8428,-0.834,-0.8327,-0.8123,-0.8002,-0.8002,-0.7992,-0.7988,-0.7988,-0.7988,-0.7988,-0.7988,-0.7988,-0.7988,-0.7988,-0.7988,-0.7842,-0.7543,-0.7288,-0.7039,-0.6742,-0.6487,-0.6387,-0.6387,-0.6387,-0.6387,-0.6387,-0.6387,-0.6387,-0.6387,-0.6387,-0.6387,-0.6387,-0.6387,-0.6387,-0.6387,-0.6387,-0.6387,-0.6387,-0.6387,-0.6387,-0.6387,-0.6387,-0.6337,-0.5934,-0.4885,-0.3827,-0.2753,-0.1721,-0.157,-0.1121,-0.0096,0.0,0.0145,0.0393,0.0443,0.0644,0.1211,0.1212,0.1314,0.1566,0.1617,0.1617,0.1617,0.1617,0.1617,0.1617,0.1617,0.1617,0.1617,0.1617,0.1617,0.1239,0.1376,0.1558,0.1596,0.1409,0.0704,-0.109,-0.1653,-0.2277,-0.4219,-0.4643,-0.4681,-0.4702,-0.5014,-0.5361,-0.5515,-0.5779,0.0,-0.6279,-0.6289,0.0,-0.6387,0.0,-0.6573,-0.6573,-0.6657,0.0,0.0,-0.6654,-0.6711,-0.6929,-0.697,-0.7037,-0.7204,-0.7709,-0.7989,-0.7989,-0.8602,-0.8807,-0.871,-0.8635,-0.8537,-0.8425,-0.8279,-0.8211,-0.8204,-0.8089,-0.7988,-0.7988,-0.7988,-0.7988,-0.7988,-0.7988,-0.7988,-0.7988,-0.7988,-0.769,-0.7288,-0.7238,-0.7039,-0.6742,-0.6487,-0.6387,-0.6387,-0.6387,-0.6387,-0.6387,-0.6387,-0.6387,-0.6387,-0.6387,-0.6387,-0.6387,-0.6387,-0.6387,-0.6387,-0.6387,-0.6387,-0.6387,-0.6387,-0.6387,-0.6387,-0.6387,-0.5734,-0.4832,-0.3776,-0.267,-0.1912,-0.1653,-0.0902,-0.03,-0.005,0.0199,0.0399,0.0652,0.0903,0.1156,0.1465,0.1516,0.1516,0.1617,0.1617,0.1617,0.1617,0.1617,0.1617,0.1617,0.1617,0.1617,0.1617,0.1617,0.1617,0.1528,0.1568,0.1596,0.1613,0.1607,0.1089,-0.0913,-0.1354,-0.1887,-0.3888,-0.4455,-0.4572,-0.4382,-0.4775,-0.5175,-0.5254,0.0,0.0,-0.6169,-0.6239,-0.6308,0.0,-0.6578,0.0,-0.6695,-0.676,-0.6825,0.0,-0.682,-0.6839,-0.6978,-0.7032,-0.7144,-0.721,-0.7709,-0.8103,-0.838,-0.8716,-0.8841,-0.8811,-0.8743,-0.8665,-0.8577,-0.8431,-0.8381,-0.8316,0.0,-0.8102,-0.7988,-0.7988,-0.7988,-0.7988,-0.7988,-0.7988,-0.7988,-0.7988,-0.7637,-0.7188,-0.7188,-0.6939,-0.6589,-0.6437,-0.6387,-0.6387,-0.6387,-0.6387,-0.6387,-0.6387,-0.6387,-0.6387,-0.6387,-0.6387,-0.6387,-0.6387,-0.6387,-0.6387,-0.6387,-0.6387,-0.6387,-0.6387,-0.6387,-0.6387,-0.6387,-0.5534,-0.4431,-0.3374,-0.2267,-0.1412,-0.0958,-0.0353,0.0,0.0,0.0253,0.0505,0.0758,0.1061,0.1314,0.1566,0.1617,0.1617,0.1617,0.1617,0.1617,0.1617,0.1617,0.1617,0.1617,0.1617,0.1617,0.1617,0.1617,0.1617,0.1569,0.1596,0.1617,0.1617,0.1594,0.1117,-0.079,-0.1288,-0.1843,-0.3589,-0.4165,-0.4311,-0.4038,-0.4512,-0.4993,-0.5023,0.0,-0.5675,-0.5996,-0.6055,-0.6202,-0.6557,-0.6646,-0.6709,-0.6817,-0.6839,-0.6893,-0.6999,-0.7008,-0.7008,-0.7008,-0.7155,-0.721,-0.7321,-0.782,-0.8325,-0.8881,-0.8885,-0.8885,-0.8881,-0.8804,-0.874,-0.8733,-0.8581,-0.8445,-0.833,-0.8357,-0.8221,-0.8049,-0.8049,-0.8049,-0.8049,-0.8049,-0.8049,-0.8049,-0.7999,-0.7695,-0.724,-0.7172,-0.6862,-0.6408,-0.6392,-0.6387,-0.6387,-0.6387,-0.6387,-0.6387,-0.6387,-0.6387,-0.6387,-0.6387,-0.6387,-0.6387,-0.6387,-0.6387,-0.6387,-0.6387,-0.6387,-0.6387,-0.6387,-0.6284,-0.6187,-0.6187,-0.5183,-0.4079,-0.3123,-0.2066,-0.1059,-0.0101,0.0,0.0,0.0,0.0202,0.0455,0.0758,0.101,0.1263,0.1566,0.1617,0.1617,0.1617,0.1617,0.1617,0.1617,0.1617,0.1617,0.1617,0.1617,0.1617,0.1617,0.1621,0.1623,0.16,0.1613,0.1617,0.1617,0.1594,0.1113,-0.0821,-0.1202,0.0,-0.3659,-0.4002,-0.3926,-0.3935,-0.4402,-0.4906,-0.5141,-0.5645,-0.6095,-0.6302,-0.6422,-0.6543,0.0,-0.6798,-0.6931,-0.695,-0.7037,0.0,0.0,-0.718,-0.718,-0.718,-0.7199,-0.7376,-0.7823,-0.8208,-0.8543,-0.8885,-0.8885,-0.8885,-0.8885,-0.8858,-0.8844,-0.8838,-0.874,-0.8659,-0.8628,-0.8499,0.0,-0.8404,-0.8404,-0.8404,-0.8404,-0.8404,-0.8404,-0.8404,-0.8095,-0.7783,-0.751,-0.7144,-0.6847,-0.657,-0.6419,-0.6387,-0.6387,-0.6387,-0.6387,-0.6387,-0.6387,-0.6387,-0.6387,-0.6387,-0.6387,-0.6387,-0.6387,-0.6387,-0.6387,-0.6387,-0.6387,-0.6387,-0.6387,-0.5687,-0.5085,-0.5085,-0.3475,-0.2116,-0.1915,-0.0958,-0.0202,0.0,0.0,0.0,0.0,0.0051,0.0253,0.0758,0.0859,0.1061,0.1566,0.1617,0.1617,0.1617,0.1617,0.1617,0.1617,0.1617,0.1617,0.1617,0.1617,0.1617,0.1618,0.1643,0.1706,0.1613,0.1617,0.1617,0.1617,0.157,0.1075,-0.0693,0.0,0.0,-0.3425,-0.3806,-0.3843,-0.3757,-0.424,-0.4703,-0.4917,-0.5402,-0.5839,-0.6203,-0.6304,-0.6434,-0.6684,-0.6817,-0.694,-0.7117,-0.7177,-0.721,-0.721,-0.721,-0.721,-0.721,-0.7324,-0.7601,-0.7989,-0.8318,-0.8654,-0.8885,-0.8885,-0.8885,-0.8885,-0.8885,-0.8885,-0.8881,-0.8807,-0.8784,-0.8706,-0.8632,0.0,-0.8482,-0.8482,-0.8482,-0.8482,-0.8482,-0.8377,-0.822,-0.8065,-0.7747,-0.7372,-0.7154,-0.6922,-0.6706,-0.6646,-0.6489,-0.6387,-0.6387,-0.6387,-0.6387,-0.6387,-0.6387,-0.6387,-0.6387,-0.6387,-0.6387,-0.6387,-0.6387,-0.6387,-0.6387,-0.5984,-0.5584,-0.5584,-0.468,-0.3977,-0.3977,-0.267,-0.1613,-0.1613,-0.0707,0.0,0.0,0.0101,0.0202,0.0202,0.0455,0.0707,0.101,0.1111,0.1314,0.1566,0.1617,0.1617,0.1617,0.1617,0.1617,0.1617,0.1617,0.1617,0.1617,0.1633,0.1641,0.1641,0.167,0.1684,0.1617,0.1617,0.1617,0.1617,0.1548,0.1086,-0.058,-0.1108,0.0,-0.3241,-0.3722,-0.3811,-0.3679,-0.4054,-0.4462,0.0,-0.509,-0.555,-0.6013,-0.613,-0.632,0.0,-0.6825,0.0,-0.7191,-0.721,0.0,-0.721,-0.721,-0.721,-0.721,-0.7493,-0.7771,-0.7989,-0.8377,-0.8712,-0.8885,-0.8885,-0.8885,-0.8885,-0.8885,-0.8885,-0.8885,-0.8885,-0.8817,-0.876,-0.876,0.0,0.0,-0.8581,-0.8581,-0.8581,-0.8524,-0.8312,-0.8102,-0.7943,-0.7624,-0.7298,-0.7163,-0.6998,-0.6836,-0.6812,-0.6671,-0.6465,-0.6465,-0.6465,-0.6465,-0.6465,-0.6446,-0.6425,-0.6425,-0.6406,-0.6387,-0.6387,-0.6387,-0.6337,-0.6087,-0.5386,-0.4734,-0.4481,-0.3575,-0.2871,-0.2871,-0.1966,-0.1261,-0.1261,-0.0555,0.0,0.0101,0.0303,0.0505,0.0556,0.0909,0.1162,0.1212,0.1415,0.1516,0.1617,0.1617,0.1617,0.1617,0.1617,0.1617,0.1617,0.1623,0.1626,0.1626,0.1656,0.1724,0.1724,0.1701,0.1714,0.1617,0.1617,0.1617,0.1617,0.1548,0.1041,-0.0746,0.0,-0.1629,-0.3403,-0.368,-0.3671,-0.375,-0.3871,-0.4135,0.0,0.0,-0.5409,-0.6002,-0.6268,-0.6502,-0.6771,0.0,0.0,-0.7196,-0.721,-0.721,-0.721,-0.721,-0.721,-0.721,-0.7712,-0.7989,-0.7989,-0.8546,-0.8881,-0.8885,-0.8885,-0.8885,-0.8885,-0.8885,-0.8885,-0.8885,-0.8885,-0.8875,-0.8861,-0.8861,0.0,0.0,-0.8841,-0.8841,-0.8841,-0.8614,-0.8501,-0.8391,-0.7846,-0.7628,-0.75,-0.7168,-0.7024,-0.695,-0.6839,-0.6787,-0.6768,-0.6768,-0.6768,-0.6768,-0.6768,-0.6687,-0.6603,-0.6603,-0.6468,-0.6387,-0.6387,-0.6387,-0.6134,-0.5135,-0.4885,-0.4533,-0.3525,-0.2469,-0.1765,-0.1765,-0.0858,-0.0151,-0.0151,-0.0051,0.0101,0.0354,0.0606,0.0859,0.1111,0.096,0.096,0.1162,0.1212,0.1364,0.1566,0.1617,0.1617,0.1617,0.1617,0.1617,0.1617,0.1644,0.171,0.171,0.1686,0.17,0.1701,0.1785,0.18,0.1607,0.1617,0.1617,0.1617,0.1151,0.04,-0.0812,-0.1509,-0.2212,-0.3426,-0.3643,-0.3627,-0.3671,-0.3778,-0.3952,0.0,0.0,0.0,-0.5368,-0.5646,-0.5964,-0.6426,-0.6649,0.0,0.0,0.0,-0.721,-0.721,-0.721,-0.7268,-0.7438,-0.7768,-0.7989,-0.7989,-0.8602,-0.8885,-0.8885,-0.8885,-0.8885,-0.8885,-0.8885,-0.8885,-0.8885,-0.8885,-0.8885,-0.8885,-0.8885,0.0,0.0,-0.8885,-0.8885,-0.8881,-0.8598,-0.8374,-0.8156,-0.7773,-0.7493,-0.7315,-0.7158,-0.7141,-0.7136,-0.7084,-0.7067,-0.6989,-0.6844,-0.6801,-0.6801,-0.6801,-0.6766,-0.6728,-0.6728,-0.6695,-0.6448,-0.5719,-0.5561,-0.5248,-0.4107,-0.3331,-0.276,-0.2344,-0.1395,-0.0616,-0.0616,-0.0305,0.0,0.0,0.0,0.0101,0.0354,0.0657,0.0909,0.1162,0.1263,0.1314,0.1415,0.1465,0.1465,0.1617,0.1617,0.1625,0.1643,0.1644,0.1652,0.1669,0.1682,0.1688,0.1688,0.1717,0.1785,0.1786,0.1763,0.1777,0.1537,0.161,0.1615,0.1606,0.0854,-0.0087,-0.0833,-0.1766,-0.2695,-0.3452,-0.3613,-0.3613,-0.3613,-0.3676,-0.3824,0.0,0.0,-0.4493,-0.5045,-0.5295,-0.5632,-0.6248,0.0,-0.6692,0.0,-0.7169,-0.721,-0.721,-0.721,-0.7324,-0.7607,-0.7881,-0.8045,-0.8156,-0.8657,-0.8885,-0.8885,-0.8885,-0.8885,-0.8885,-0.8885,-0.8885,-0.8885,-0.8885,-0.8885,-0.8885,-0.8885,0.0,0.0,-0.8885,-0.8826,-0.8768,-0.8488,-0.8156,-0.7826,-0.7604,-0.7379,-0.721,-0.721,-0.721,-0.721,-0.721,-0.721,-0.718,-0.6956,-0.6907,-0.6907,-0.6907,-0.6883,-0.685,-0.6812,-0.6534,-0.6054,-0.5204,-0.4725,-0.4141,-0.2975,-0.2127,-0.1491,-0.1172,-0.0528,0.0,0.0,0.0,0.0,0.0,0.0051,0.0205,0.0513,0.077,0.1026,0.1334,0.154,0.1639,0.163,0.163,0.1634,0.1642,0.1643,0.1652,0.1674,0.1675,0.1684,0.1704,0.1713,0.1718,0.1718,0.1803,0.1818,0.1818,0.1785,0.18,0.1361,0.1594,0.1609,0.1579,0.075,-0.0261,-0.0854,-0.1882,-0.2853,-0.348,-0.3613,-0.3613,-0.3613,-0.3613,-0.3702,-0.4061,0.0,0.0,-0.5306,-0.5472,-0.5683,0.0,0.0,-0.6484,-0.6782,-0.7018,-0.721,-0.721,-0.721,0.0,-0.7607,-0.7881,-0.8156,-0.8484,-0.8768,-0.8885,-0.8885,-0.8885,-0.8885,-0.8885,-0.8885,-0.8885,-0.8885,-0.8885,-0.8885,-0.8885,0.0,0.0,0.0,-0.8885,-0.8768,-0.8484,-0.8156,-0.7826,-0.7551,-0.7324,-0.721,-0.721,-0.721,-0.721,-0.721,-0.721,-0.721,-0.721,-0.7207,-0.7204,-0.7204,-0.7204,-0.7125,-0.6956,-0.6834,-0.5895,-0.499,-0.499,-0.4088,-0.2922,-0.1863,-0.1598,-0.1278,-0.0213,0.0,0.0,0.0,0.0,0.0,0.0,0.0213,0.0533,0.0853,0.1118,0.1384,0.165,0.1703,0.1692,0.1716,0.1714,0.1674,0.1701,0.1703,0.1703,0.1704,0.1704,0.1704,0.1704,0.1788,0.1804,0.1804,0.178,0.1795,0.1795,0.1795,0.1811,0.1205,0.1068,0.0679,0.0655,-0.0505,-0.1679,-0.1794,-0.2662,-0.3486,-0.3579,-0.3613,-0.3613,-0.3613,-0.3613,-0.3783,-0.4273,0.0,0.0,0.0,0.0,0.0,-0.6108,-0.6608,-0.6956,0.0,0.0,-0.721,-0.721,-0.721,0.0,-0.7823,-0.7934,-0.8156,-0.8484,-0.8768,-0.8885,-0.8885,-0.8885,-0.8885,-0.8885,-0.8885,-0.8885,-0.8885,-0.8885,-0.8885,0.0,0.0,0.0,0.0,-0.8712,-0.8598,-0.8429,-0.7934,-0.7662,-0.7551,-0.7324,-0.721,-0.721,-0.721,-0.721,-0.721,-0.721,-0.721,-0.721,-0.721,-0.721,-0.721,-0.721,-0.7185,-0.7147,-0.7109,-0.6162,-0.5064,-0.4237,-0.3137,-0.1928,-0.0772,-0.0497,-0.0386,-0.0055,0.0,0.0,0.0,0.0,0.0,0.0,0.0213,0.0533,0.0854,0.1119,0.1385,0.1651,0.1704,0.1701,0.1692,0.1691,0.1695,0.1703,0.1704,0.1714,0.1788,0.179,0.1745,0.1766,0.1776,0.178,0.178,0.1791,0.1806,0.1826,0.1847,0.1862,0.0394,0.0412,0.021,-0.0081,-0.1335,-0.2417,-0.2214,-0.304,-0.3804,-0.362,-0.3613,-0.3613,-0.3613,-0.3613,-0.3735,-0.4194,-0.4306,0.0,0.0,0.0,0.0,-0.6168,0.0,0.0,0.0,-0.7185,-0.721,-0.721,-0.721,0.0,-0.7989,-0.7989,-0.8211,-0.8654,-0.8826,-0.8885,-0.8885,-0.8885,-0.8885,-0.8885,-0.8885,-0.8885,-0.8885,-0.8885,-0.8885,0.0,0.0,0.0,0.0,-0.8543,-0.8374,-0.81,-0.7773,-0.7551,-0.7438,-0.7265,-0.721,-0.721,-0.721,-0.721,-0.721,-0.721,-0.721,-0.721,-0.721,-0.721,-0.721,-0.721,-0.721,-0.721,-0.721,-0.5982,-0.4531,-0.3804,-0.2351,-0.0896,-0.0168,0.0,0.0,0.0,0.0,0.0,0.0,0.0,0.0,0.0,0.0217,0.0544,0.087,0.1141,0.1412,0.1684,0.1738,0.1738,0.1738,0.1728,0.1726,0.1737,0.1738,0.1747,0.1821,0.1822,0.1776,0.1795,0.1795,0.1795,0.1795,0.1806,0.1827,0.1858,0.1889,0.1903,0.0,-0.0392,-0.0079,-0.0658,-0.174,-0.2577,-0.2259,-0.3063,0.0,-0.3632,-0.3613,-0.3619,-0.3607,-0.3624,-0.3675,-0.3922,-0.4062,0.0,0.0,-0.536,0.0,0.0,-0.6679,0.0,-0.6986,-0.7147,-0.721,-0.721,0.0,0.0,-0.7989,-0.7989,-0.8269,-0.8881,-0.8885,-0.8885,-0.8885,-0.8885,-0.8885,-0.8885,-0.8885,-0.8885,-0.8885,-0.8885,-0.8885,0.0,0.0,0.0,0.0,-0.8429,-0.81,-0.7607,-0.7607,-0.7438,-0.721,-0.721,-0.721,-0.721,-0.721,-0.721,-0.721,-0.721,-0.721,-0.721,-0.721,-0.721,-0.721,-0.721,-0.721,-0.721,-0.721,-0.5421,-0.358,-0.358,-0.1735,0.0,0.0,0.0,0.0,0.0,0.0,0.0,0.0,0.0,0.0,0.0,0.0224,0.0505,0.0841,0.1121,0.1402,0.1739,0.1795,0.1795,0.1795,0.1824,0.182,0.1793,0.1795,0.1795,0.1795,0.1795,0.1796,0.1798,0.18,0.1802,0.1802,0.1832,0.1862,0.1889,0.192,0.1934,-0.2212,0.0,-0.1385,-0.1572,-0.2436,-0.3168,0.0,-0.3431,-0.3786,-0.3641,-0.3613,-0.364,-0.3789,-0.3705,-0.3811,-0.4475,0.0,-0.4849,-0.5472,0.0,0.0,-0.6684,-0.6926,-0.7139,-0.7166,-0.7193,-0.721,0.0,0.0,-0.7432,-0.7989,-0.7989,-0.8269,-0.8881,-0.8885,-0.8885,-0.8885,-0.8885,-0.8885,-0.8885,-0.8885,-0.8885,-0.8885,-0.8885,-0.8885,0.0,0.0,0.0,-0.8484,-0.7992,-0.7715,-0.7607,-0.7379,-0.7265,-0.721,-0.721,-0.721,-0.721,-0.721,-0.721,-0.721,-0.721,-0.721,-0.721,-0.721,-0.721,-0.721,-0.721,-0.721,-0.721,-0.721,-0.5421,-0.358,-0.358,-0.1735,0.0,0.0,0.0,0.0,0.0,0.0,0.0,0.0,0.0,0.0,0.0,0.0224,0.0449,0.0505,0.0953,0.1346,0.1402,0.1627,0.1795,0.1795,0.1789,0.1787,0.1795,0.1795,0.1795,0.1795,0.1795,0.1806,0.1772,0.1853,0.1864,0.1864,0.1895,0.1913,0.1922,0.1952,0.1966,-0.2664,-0.2377,-0.2046,-0.2382,-0.2919,-0.3339,-0.3357,-0.3491,-0.3602,-0.3596,-0.3613,-0.364,-0.3819,-0.3706,-0.3827,-0.4531,-0.4731,0.0,0.0,0.0,-0.6728,-0.6793,-0.701,-0.721,0.0,0.0,-0.721,0.0,0.0,-0.7546,-0.7989,-0.8156,-0.8436,-0.8881,-0.8885,-0.8885,-0.8885,-0.8885,-0.8885,-0.8885,-0.8885,-0.8885,-0.8885,-0.8885,-0.8826,0.0,0.0,0.0,-0.8048,-0.7715,-0.7549,-0.7379,-0.7265,-0.721,-0.721,-0.721,-0.721,-0.721,-0.721,-0.721,-0.721,-0.721,-0.721,-0.721,-0.721,-0.721,-0.721,-0.721,-0.721,-0.721,-0.721,-0.5421,-0.358,-0.358,-0.1735,0.0,0.0,0.0,0.0,0.0,0.0,0.0,0.0,0.0,0.0,0.0,0.0112,0.028,0.0393,0.0841,0.1177,0.129,0.1627,0.1795,0.1795,0.1808,0.181,0.1796,0.1795,0.1802,0.1815,0.1816,0.183,0.1861,0.1877,0.1893,0.1907,0.1923,0.1939,0.1952,0.1969,0.1977,-0.2723,-0.2563,-0.25,-0.292,-0.3177,-0.3297,-0.3308,0.0,0.0,0.0,0.0,-0.3684,-0.3838,-0.3755,0.0,0.0,0.0,0.0,-0.6021,-0.651,-0.6801,-0.6801,-0.701,0.0,-0.721,-0.721,0.0,0.0,0.0,-0.7677,-0.7932,-0.8277,-0.8566,-0.8848,-0.8871,-0.8885,-0.8885,-0.8885,-0.8885,-0.8885,-0.8885,-0.8885,-0.8885,-0.8885,-0.8768,-0.8484,0.0,0.0,-0.7607,-0.7551,-0.7382,-0.721,-0.721,-0.721,-0.721,-0.721,-0.721,-0.721,-0.721,-0.721,-0.721,-0.721,-0.721,-0.721,-0.721,-0.721,-0.721,-0.721,-0.721,-0.7154,-0.6988,-0.5254,-0.358,-0.3357,-0.1623,0.0,0.0,0.0,0.0,0.0,0.0,0.0,0.0,0.0,0.0,0.0,0.0,0.0056,0.0282,0.0678,0.0961,0.1187,0.1582,0.1809,0.1809,0.1832,0.1836,0.181,0.1809,0.1821,0.1789,0.1794,0.1866,0.1892,0.1897,0.1912,0.1938,0.1938,0.1952,0.1977,0.1977,0.1979,-0.2902,-0.3081,-0.3129,-0.2848,-0.2985,-0.3177,-0.3,-0.3187,0.0,0.0,0.0,0.0,0.0,-0.4113,-0.4262,0.0,0.0,-0.5831,0.0,0.0,-0.6801,-0.6801,0.0,-0.721,-0.721,-0.721,0.0,0.0,0.0,-0.7504,-0.7662,-0.8088,-0.8476,-0.8743,-0.8817,-0.8885,-0.8885,-0.8885,-0.8885,-0.8885,-0.8885,-0.8885,-0.8885,-0.8885,-0.8768,-0.8484,0.0,-0.7881,-0.7607,-0.7379,-0.721,-0.721,-0.721,-0.721,-0.721,-0.721,-0.721,-0.721,-0.721,-0.721,-0.721,-0.721,-0.721,-0.721,-0.721,-0.721,-0.721,-0.721,-0.721,-0.6988,-0.5929,-0.4643,-0.3357,-0.2295,-0.1008,0.0,0.0,0.0,0.0,0.0,0.0,0.0,0.0,0.0,0.0,0.0,0.0,0.0,0.0058,0.0526,0.0936,0.0936,0.152,0.1872,0.1872,0.1876,0.1877,0.1872,0.1872,0.1874,0.1879,0.1904,0.186,0.1924,0.1949,0.1965,0.1969,0.1969,0.1972,0.1977,0.1977,0.1989,-0.2818,-0.304,-0.3187,-0.2927,-0.314,-0.3385,-0.3351,-0.3366,-0.3475,0.0,0.0,0.0,0.0,0.0,-0.4655,-0.5397,0.0,-0.6162,-0.6333,-0.6556,-0.6703,0.0,0.0,-0.6964,-0.6964,0.0,0.0,0.0,0.0,0.0,-0.7809,-0.818,-0.8481,-0.8587,-0.8655,-0.8693,-0.8693,-0.8774,-0.8801,-0.8885,-0.8885,-0.8885,-0.8881,-0.8768,-0.8543,-0.8211,0.0,-0.766,-0.7379,-0.7265,-0.721,-0.721,-0.721,-0.721,-0.721,-0.721,-0.721,-0.721,-0.721,-0.721,-0.721,-0.721,-0.721,-0.721,-0.721,-0.721,-0.721,-0.721,-0.721,-0.6932,-0.5706,-0.4531,-0.3301,-0.2071,-0.0896,0.0,0.0,0.0,0.0,0.0,0.0,0.0,0.0,0.0,0.0,0.0,0.0,0.0058,0.0235,0.0648,0.0942,0.1178,0.1591,0.1886,0.1886,0.1901,0.1903,0.1887,0.1901,0.191,0.191,0.1939,0.1956,0.1956,0.1969,0.1977,0.1977,0.1977,0.1984,0.1999,0.1999,0.2015,-0.277,-0.2917,-0.3079,-0.3061,-0.3262,-0.3499,-0.364,-0.353,-0.3522,0.0,0.0,0.0,0.0,-0.4865,0.0,-0.5732,-0.6101,-0.6339,-0.6373,-0.6492,-0.6619,-0.6619,-0.6728,-0.6801,0.0,0.0,0.0,0.0,0.0,0.0,-0.7917,-0.8258,-0.8431,-0.8431,-0.8465,-0.8482,-0.8482,-0.8598,-0.8733,-0.8831,-0.8809,-0.8826,-0.8771,-0.8488,-0.8211,-0.7881,-0.7662,-0.7438,-0.721,-0.721,-0.721,-0.721,-0.721,-0.721,-0.721,-0.721,-0.721,-0.721,-0.721,-0.721,-0.721,-0.721,-0.721,-0.721,-0.721,-0.721,-0.721,-0.721,-0.721,-0.6874,-0.5369,-0.4308,-0.3245,-0.1735,-0.0672,0.0,0.0,0.0,0.0,0.0,0.0,0.0,0.0,0.0,0.0,0.0,0.0,0.0119,0.0476,0.0774,0.1073,0.137,0.1728,0.1907,0.1907,0.1928,0.1932,0.1909,0.1929,0.1941,0.1941,0.1964,0.1977,0.1977,0.1977,0.1977,0.1977,0.1983,0.1997,0.2018,0.2026,0.2046,-0.2921,-0.3043,-0.3109,-0.3154,-0.3169,-0.3195,-0.3442,-0.3463,0.0,-0.3922,0.0,0.0,0.0,-0.5357,-0.5871,-0.5958,-0.6221,-0.6376,-0.6384,0.0,-0.6619,-0.6619,-0.6728,-0.6801,0.0,0.0,0.0,0.0,0.0,0.0,-0.7632,-0.8055,-0.8337,-0.8337,-0.8414,-0.8482,-0.8482,-0.8492,-0.8574,-0.8726,-0.8588,-0.854,-0.854,-0.8208,-0.7881,-0.7607,-0.7607,-0.7438,-0.721,-0.721,-0.721,-0.721,-0.721,-0.721,-0.721,-0.721,-0.721,-0.721,-0.721,-0.721,-0.721,-0.721,-0.721,-0.721,-0.721,-0.721,-0.721,-0.721,-0.721,-0.6652,-0.4362,-0.3692,-0.3022,-0.0672,-0.0056,0.0,0.0,0.0,0.0,0.0,0.0,0.0,0.0,0.0,0.0,0.0,0.0,0.0121,0.043,0.08,0.1108,0.1477,0.1785,0.197,0.197,0.1972,0.1973,0.1971,0.1972,0.1973,0.1973,0.1975,0.1977,0.1977,0.1977,0.1977,0.1977,0.2003,0.2016,0.2019,0.2048,0.2077,-0.2801,-0.2979,-0.3183,-0.3184,-0.3291,0.0,0.0,-0.3736,-0.388,-0.43,-0.444,0.0,0.0,0.0,-0.6039,-0.6151,-0.6291,-0.6387,-0.6387,-0.6425,-0.6454,-0.6454,-0.6495,0.0,0.0,0.0,0.0,0.0,0.0,0.0,-0.7846,-0.7995,-0.8126,-0.8126,-0.818,-0.8208,-0.8208,-0.8303,-0.8325,-0.8223,-0.8303,-0.8294,-0.8152,-0.7881,-0.7718,-0.7607,-0.7438,-0.7268,-0.721,-0.721,-0.721,-0.721,-0.721,-0.721,-0.721,-0.721,-0.721,-0.721,-0.721,-0.721,-0.721,-0.721,-0.721,-0.721,-0.721,-0.721,-0.721,-0.721,-0.721,-0.6652,-0.425,-0.358,-0.2965,-0.056,0.0,0.0,0.0,0.0,0.0,0.0,0.0,0.0,0.0,0.0181,0.0304,0.0306,0.049,0.0736,0.1049,0.1235,0.142,0.1791,0.1915,0.1977,0.1977,0.1977,0.1977,0.1977,0.1977,0.1977,0.1977,0.1977,0.1977,0.1977,0.1994,0.2003,0.2003,0.2033,0.2056,0.2075,0.2086,0.2108,-0.2699,-0.2911,-0.3154,-0.3178,0.0,0.0,-0.3882,-0.3987,-0.4196,-0.4599,-0.4699,-0.4872,-0.5531,0.0,0.0,0.0,-0.6385,-0.6387,-0.6387,-0.6387,-0.6387,-0.6387,-0.6387,0.0,0.0,0.0,0.0,0.0,0.0,0.0,0.0,-0.7988,-0.7988,-0.7988,-0.7988,-0.7988,-0.7988,-0.8046,-0.7967,-0.775,-0.7842,-0.7845,-0.7753,-0.7483,-0.7344,-0.7381,-0.7213,-0.7177,-0.721,-0.721,-0.721,-0.721,-0.721,-0.721,-0.721,-0.721,-0.721,-0.721,-0.721,-0.721,-0.721,-0.721,-0.721,-0.721,-0.721,-0.721,-0.721,-0.721,-0.721,-0.6652,-0.425,-0.358,-0.2969,-0.0564,0.0,0.0,0.0,0.0,0.0,0.0,0.0,0.0,0.0,0.0307,0.0494,0.0494,0.0803,0.1111,0.1482,0.1482,0.1606,0.1977,0.1977,0.1977,0.1977,0.1977,0.1977,0.1977,0.1985,0.1986,0.1977,0.1985,0.199,0.199,0.2018,0.2033,0.2033,0.2063,0.2089,0.211,0.2119,0.2135,-0.2715,-0.2849,-0.303,-0.3183,0.0,0.0,-0.4107,-0.4214,-0.4302,-0.4743,-0.4886,-0.5118,-0.5802,-0.5827,0.0,-0.6346,-0.6384,-0.6387,-0.6387,-0.6387,-0.6387,-0.6387,-0.6387,0.0,0.0,0.0,0.0,0.0,0.0,0.0,0.0,-0.7988,-0.7988,-0.7988,-0.7988,-0.7988,-0.7988,-0.7746,-0.7513,-0.7389,-0.7138,-0.7047,-0.7165,-0.6907,-0.6869,-0.6983,-0.6986,-0.7048,-0.721,-0.721,-0.721,-0.721,-0.721,-0.721,-0.721,-0.721,-0.721,-0.721,-0.721,-0.721,-0.721,-0.721,-0.721,-0.721,-0.721,-0.721,-0.721,-0.721,-0.721,-0.6652,-0.4195,-0.358,-0.2978,-0.0572,0.0,0.0,0.0,0.0,0.0,0.0,0.0,0.0,0.0,0.0309,0.0494,0.0494,0.0803,0.1111,0.1482,0.1482,0.1606,0.1977,0.1977,0.1977,0.1977,0.1977,0.1977,0.1977,0.2003,0.2006,0.1978,0.2004,0.2019,0.2019,0.2049,0.2128,0.2128,0.2095,0.211,0.211,0.2141,0.2222,-0.2665,-0.2894,-0.3175,-0.3293,0.0,0.0,0.0,-0.4492,0.0,0.0,-0.6453,-0.693,-0.7887,-0.7568,0.0,-0.7362,-0.6822,-0.6387,-0.6387,-0.6387,-0.6387,-0.6387,-0.6387,0.0,0.0,0.0,0.0,0.0,0.0,0.0,0.0,-0.7988,-0.7988,-0.7988,-0.7988,-0.7988,-0.7988,-0.7746,-0.7466,-0.7249,-0.7,-0.6862,-0.6907,-0.6854,-0.6823,-0.6861,-0.6948,-0.7005,-0.7043,-0.7177,-0.721,-0.721,-0.721,-0.721,-0.721,-0.721,-0.721,-0.721,-0.721,-0.721,-0.721,-0.721,-0.721,-0.721,-0.721,-0.721,-0.7043,-0.6151,-0.5929,-0.5369,-0.2965,-0.2315,-0.1939,-0.0344,0.0,0.0,0.0,0.0,0.0,0.0,0.0,0.0062,0.0309,0.0617,0.0926,0.1173,0.1482,0.1729,0.1853,0.1853,0.1915,0.1977,0.1977,0.1977,0.1977,0.1994,0.2006,0.2006,0.2034,0.2037,0.2007,0.2035,0.205,0.205,0.208,0.2095,0.2096,0.2127,0.2141,0.2142,0.2218,0.2222,-0.3096,-0.3454,-0.3869,-0.4392,-0.4945,-0.5542,-0.6192,0.0,0.0,0.0,-0.785,-0.8201,-0.909,-0.8371,0.0,-0.8411,-0.7322,-0.6684,-0.7577,-0.7329,-0.7179,-0.7627,-0.7677,0.0,0.0,0.0,0.0,0.0,0.0,0.0,0.0,-0.7793,-0.7793,-0.769,-0.7793,-0.7793,-0.769,-0.754,-0.7291,-0.7039,-0.6789,-0.6617,-0.6657,-0.6657,-0.6684,-0.6738,-0.691,-0.6986,-0.6994,-0.7163,-0.721,-0.721,-0.721,-0.721,-0.721,-0.721,-0.721,-0.721,-0.721,-0.721,-0.721,-0.721,-0.721,-0.721,-0.721,-0.721,-0.7043,-0.6318,-0.5761,-0.4979,-0.3022,-0.2164,-0.1507,-0.029,0.0,0.0,0.0,0.0,0.0,0.0,0.0,0.0062,0.0247,0.0679,0.105,0.1297,0.1729,0.1977,0.1977,0.1977,0.1981,0.1992,0.1993,0.1998,0.201,0.2026,0.2037,0.2037,0.2065,0.2074,0.2055,0.2072,0.2082,0.2082,0.2112,0.2127,0.2127,0.2213,0.2222,0.2222,0.2222,0.2222,-0.3836,-0.4318,-0.4893,-0.5994,-0.6824,-0.7658,-0.8678,-0.8206,-0.7912,-0.9099,0.0,-0.9111,-0.9772,-0.8788,-0.8254,-0.953,-0.8021,-0.7378,-0.9308,-0.8764,-0.8517,-0.9509,0.0,0.0,0.0,0.0,0.0,0.0,0.0,0.0,0.0,-0.759,-0.7543,-0.7188,-0.7444,-0.7444,-0.7188,-0.7188,-0.7039,-0.6795,-0.6539,-0.6387,-0.6387,-0.6387,-0.6454,-0.6632,-0.6855,-0.6964,-0.6994,-0.7152,-0.7199,-0.721,-0.721,-0.721,-0.721,-0.721,-0.721,-0.721,-0.721,-0.721,-0.721,-0.721,-0.721,-0.721,-0.721,-0.721,-0.7154,-0.7043,-0.6151,-0.4979,-0.3748,-0.2524,-0.1353,-0.0236,0.0,0.0,0.0,0.0,0.0,0.0,0.0,0.0,0.0062,0.0617,0.105,0.1111,0.1606,0.1977,0.1977,0.1979,0.199,0.2016,0.2021,0.2034,0.2126,0.2131,0.2068,0.2068,0.2097,0.2114,0.2114,0.2114,0.2114,0.2114,0.2141,0.2222,0.2222,0.2222,0.2222,0.2222,0.2222,0.2222,-0.4115,-0.4639,0.0,-0.6402,-0.7668,-0.8985,-1.0105,-1.0351,-1.0382,-1.0435,-1.0547,-1.0972,-1.1912,-1.119,-1.048,-1.0823,-0.9752,-0.9061,-0.9558,-0.941,-0.9361,-0.9558,-0.9608,0.0,0.0,0.0,0.0,0.0,0.0,0.0,-0.8478,-0.8528,-0.8134,-0.7238,-0.7238,-0.7238,-0.7188,-0.6992,-0.6845,0.0,-0.6539,-0.6387,-0.6387,-0.6387,-0.6454,-0.6622,-0.6676,-0.6806,-0.6986,-0.7013,-0.7128,-0.721,-0.721,-0.721,-0.721,-0.721,-0.721,-0.721,-0.721,-0.721,-0.721,-0.721,-0.721,-0.721,-0.721,-0.721,-0.6988,-0.604,-0.4921,-0.3692,-0.2519,-0.132,-0.0294,-0.0059,0.0,0.0,0.0,0.0,0.0,0.0,0.0,0.0185,0.0679,0.0926,0.1173,0.1729,0.1915,0.1977,0.1977,0.1996,0.2011,0.2018,0.2039,0.2057,0.2128,0.2086,0.2099,0.2099,0.2128,0.2145,0.2145,0.2145,0.2145,0.2145,0.2218,0.2222,0.2222,0.2222,0.2222,0.2222,0.2222,0.2222,-0.4874,-0.5612,0.0,-0.8509,0.0,-1.0537,-1.1526,-1.1868,-1.1917,-1.177,-1.1868,-1.2165,-1.271,-1.1917,-1.137,-1.1868,-1.0636,-0.9953,-1.0988,-1.069,-1.0538,-1.1086,-1.113,0.0,0.0,0.0,0.0,0.0,0.0,-0.9554,-0.8474,-0.8528,-0.8081,-0.6836,-0.6939,-0.6939,-0.6836,-0.6792,-0.6742,-0.6589,-0.6487,-0.6387,-0.6387,-0.6387,-0.6422,-0.6484,-0.6594,-0.6692,-0.682,-0.6937,-0.7021,-0.7133,-0.7188,-0.721,-0.721,-0.721,-0.721,-0.721,-0.721,-0.721,-0.721,-0.721,-0.721,-0.721,-0.721,-0.721,-0.6932,-0.5761,-0.4531,-0.3301,-0.2127,-0.0919,0.0,0.0,0.0,0.0,0.0,0.0,0.0,0.0,0.0123,0.0309,0.0494,0.0803,0.1235,0.1915,0.1988,0.1996,0.1996,0.2022,0.2046,0.2061,0.2076,0.2091,0.2172,0.2122,0.2131,0.2131,0.2213,0.2222,0.2222,0.2222,0.2222,0.2222,0.2222,0.2222,0.2222,0.2222,0.2222,0.2222,0.2222,0.2222,-0.5632,-0.6725,-0.8107,-1.0745,-1.1538,0.0,-1.2544,-1.2721,-1.2748,-1.2748,-1.278,-1.2813,-1.2813,-1.2068,-1.1765,-1.2662,-1.1331,-1.0788,-1.2565,-1.2063,-1.1819,-1.271,-1.2813,0.0,0.0,0.0,0.0,0.0,0.0,-0.9653,-0.8368,-0.8326,-0.7733,-0.6437,-0.6589,-0.6639,-0.6387,-0.6639,-0.6639,-0.6387,-0.6387,-0.6387,-0.6387,-0.6387,-0.6387,-0.6392,-0.6492,-0.66,-0.6635,-0.6839,-0.6948,-0.6994,-0.7144,-0.7193,-0.721,-0.721,-0.721,-0.721,-0.721,-0.721,-0.721,-0.721,-0.721,-0.721,-0.721,-0.721,-0.6932,-0.5761,-0.4531,-0.3301,-0.2127,-0.0919,0.0,0.0,0.0,0.0,0.0,0.0,0.0,0.0,0.0309,0.0494,0.0247,0.0741,0.136,0.1859,0.1941,0.202,0.2026,0.2053,0.2081,0.2106,0.2114,0.2127,0.222,0.2222,0.2222,0.2222,0.2222,0.2222,0.2222,0.2222,0.2222,0.2222,0.2222,0.2222,0.2222,0.2222,0.2222,0.2222,0.2222,0.2222,-0.5698,0.0,-0.9392,0.0,-1.1684,-1.2056,0.0,0.0,-1.2463,0.0,-1.2619,-1.2813,-1.2813,-1.2662,-1.2613,-1.2759,-1.2565,-1.2467,-1.2764,-1.2662,-1.2662,-1.2759,-1.2813,0.0,0.0,0.0,0.0,0.0,-1.1619,-1.0538,-0.946,-0.852,-0.7528,-0.6434,-0.6437,-0.6437,-0.6387,-0.6437,-0.6437,-0.6387,-0.6387,-0.6387,-0.6387,-0.6387,-0.6387,-0.6387,-0.6403,-0.647,-0.6622,-0.6654,-0.6793,-0.6986,-0.7002,-0.7122,-0.721,-0.721,-0.721,-0.721,-0.721,-0.721,-0.721,-0.721,-0.721,-0.721,-0.721,-0.721,-0.6932,-0.5761,-0.4531,-0.3301,-0.2127,-0.0919,0.0,0.0,0.0,0.0,0.0,0.0,0.0,0.0,0.0494,0.0926,0.0864,0.142,0.1799,0.1569,0.1827,0.2028,0.2054,0.2084,0.2105,0.2109,0.2133,0.2217,0.2222,0.2222,0.2222,0.2222,0.2222,0.2222,0.2222,0.2222,0.2222,0.2222,0.2222,0.2222,0.2222,0.2222,0.2222,0.2222,0.2222,0.2222,-0.6731,-0.8149,-0.9492,0.0,-1.1461,-1.1725,-1.2035,-1.2181,-1.221,-1.221,-1.2337,-1.2494,-1.2764,-1.2813,-1.2813,-1.2813,-1.2813,-1.2764,-1.2587,-1.2571,-1.2571,-1.2571,-1.2494,0.0,0.0,0.0,0.0,0.0,-1.1517,-1.0518,-0.9449,-0.8516,-0.7528,-0.6434,-0.6387,-0.6387,-0.6387,-0.6387,-0.6387,-0.6387,-0.6387,-0.6387,-0.6387,-0.6387,-0.6387,-0.6387,-0.6387,-0.6416,-0.647,-0.6592,-0.6722,-0.6891,-0.6959,-0.7109,-0.721,-0.721,-0.721,-0.721,-0.721,-0.721,-0.721,-0.721,-0.721,-0.721,-0.721,-0.721,-0.6932,-0.5761,-0.4531,-0.3309,-0.2095,-0.0925,0.0,0.0,0.0,0.0,0.0,0.0,0.0062,0.0247,0.037,0.0617,0.1173,0.1368,0.1504,0.1764,0.1919,0.2074,0.2088,0.2116,0.2135,0.2135,0.2213,0.2222,0.2222,0.2222,0.2222,0.2222,0.2222,0.2222,0.2222,0.1953,0.1885,0.1885,0.2087,0.2087,0.1885,0.1885,0.175,0.1616,0.1616,0.1616,0.0,0.0,-0.8969,-1.0509,-1.0903,-1.1085,0.0,0.0,-1.1932,0.0,-1.2051,-1.2202,-1.2564,-1.2629,-1.2629,-1.2629,-1.2629,-1.257,-1.2344,-1.2323,-1.2323,-1.2323,-1.2208,0.0,0.0,0.0,0.0,0.0,-1.103,-1.0031,-0.9215,-0.8139,-0.7146,-0.6393,-0.6393,-0.6407,-0.6387,-0.6387,-0.6387,-0.6387,-0.6387,-0.6387,-0.6387,-0.6387,-0.6387,-0.6387,-0.6387,-0.6387,-0.6392,-0.6484,-0.6643,-0.6768,-0.6891,-0.701,-0.7169,-0.7199,-0.721,-0.721,-0.721,-0.721,-0.721,-0.721,-0.721,-0.721,-0.721,-0.721,-0.6932,-0.5761,-0.4756,-0.3706,-0.2172,-0.1105,-0.0355,-0.006,0.0,0.0,0.0,0.0,0.0123,0.0432,0.0309,0.0371,0.1117,0.1191,0.1266,0.172,0.195,0.2112,0.212,0.2141,0.2222,0.2222,0.2222,0.2222,0.2222,0.2222,0.2222,0.2222,0.2087,0.202,0.202,0.1683,0.1481,0.1481,0.175,0.175,0.1481,0.1481,0.1346,0.1077,0.1077,0.1077,0.0,-0.7326,0.0,-0.9319,-0.9836,-1.018,0.0,0.0,-1.1407,-1.1671,-1.1937,-1.21,-1.2127,-1.2132,-1.2132,-1.2132,-1.2132,-1.2127,-1.2116,-1.2116,-1.2116,-1.2116,-1.21,0.0,0.0,0.0,0.0,0.0,-1.0292,-0.9185,-0.9088,-0.7274,-0.6252,-0.6322,-0.6325,-0.6328,-0.6384,-0.6387,-0.6387,-0.6387,-0.6387,-0.6387,-0.6387,-0.6387,-0.6387,-0.6387,-0.6387,-0.6387,-0.6387,-0.6392,-0.6468,-0.6641,-0.6763,-0.6885,-0.7008,-0.7169,-0.721,-0.721,-0.721,-0.721,-0.721,-0.721,-0.721,-0.721,-0.721,-0.721,-0.6932,-0.5761,-0.5371,-0.4774,-0.24,-0.1743,-0.1418,-0.03,0.0,0.0,0.0,0.0,0.0123,0.0432,0.0494,0.0496,0.0566,0.1072,0.1401,0.1179,0.1712,0.212,0.2216,0.2221,0.2222,0.2222,0.2222,0.2222,0.2222,0.2222,0.2222,0.2222,0.1818,0.1616,0.1616,0.1279,0.1144,0.1144,0.1144,0.1144,0.1144,0.1144,0.1144,0.1077,0.1077,0.1077,0.0,0.0,0.0,-0.8651,-0.9179,-0.961,-1.0175,-1.0724,-1.1139,-1.1225,-1.1435,-1.1602,-1.1602,-1.1889,-1.2094,-1.2094,-1.2094,-1.204,-1.1889,-1.1822,-1.1822,-1.1822,-1.1693,0.0,0.0,0.0,0.0,0.0,0.0,-0.8851,-0.8851,-0.711,-0.6105,-0.6151,-0.6276,-0.6323,-0.6384,-0.6387,-0.6387,-0.6387,-0.6387,-0.6387,-0.6387,-0.6387,-0.6387,-0.6387,-0.6387,-0.6287,-0.6139,-0.6139,-0.6209,-0.6378,-0.649,-0.6714,-0.6999,-0.7166,-0.721,-0.721,-0.721,-0.721,-0.721,-0.721,-0.721,-0.721,-0.721,-0.721,-0.7099,-0.6652,-0.6027,-0.5244,-0.4404,-0.3065,-0.162,-0.0305,0.0,0.0,0.0,0.0,0.0062,0.0185,0.0187,0.0251,0.0442,0.0705,0.0977,0.1382,0.1594,0.1875,0.2153,0.2222,0.2222,0.2222,0.2222,0.2222,0.2222,0.2222,0.2087,0.1818,0.1683,0.1481,0.1279,0.0942,0.074,0.074,0.0471,0.0471,0.074,0.074,0.0606,0.0404,0.0404,0.0404,-0.5869,0.0,0.0,0.0,0.0,-0.8811,-0.9717,0.0,-1.0579,-1.0821,-1.1058,-1.1209,-1.1295,-1.1602,-1.1811,-1.1811,-1.1811,-1.1758,-1.1602,-1.1585,-1.1585,-1.1585,-1.1402,0.0,0.0,0.0,0.0,0.0,0.0,0.0,-0.8621,-0.6923,-0.6005,-0.6083,-0.6254,-0.6323,-0.6384,-0.6387,-0.6387,-0.6387,-0.6387,-0.6387,-0.6387,-0.6387,-0.6387,-0.6387,-0.6287,-0.6189,-0.5992,-0.5992,-0.6037,-0.6169,-0.6315,-0.6635,-0.6942,-0.7152,-0.721,-0.721,-0.721,-0.721,-0.721,-0.721,-0.721,-0.721,-0.721,-0.721,-0.721,-0.721,-0.6674,-0.6036,-0.561,-0.3759,-0.1644,-0.0308,0.0,0.0,0.0,0.0,0.0,0.0,0.0,0.0063,0.032,0.0456,0.066,0.1127,0.1338,0.1548,0.1818,0.1953,0.1953,0.1818,0.1953,0.1953,0.1818,0.1818,0.175,0.1481,0.1279,0.1144,0.0875,0.0538,0.0337,0.0337,0.0135,0.0135,0.0337,0.0337,0.0202,0.0,0.0,0.0,0.0,0.0,0.0,0.0,0.0,0.0,-0.9434,0.0,-0.975,-1.042,-1.0789,-1.1031,-1.1241,-1.1289,-1.1289,-1.1295,-1.13,-1.1305,-1.1305,-1.1305,-1.1305,-1.1305,0.0,0.0,0.0,0.0,0.0,0.0,-0.9554,-0.85,-0.8456,-0.67,-0.5841,-0.6072,-0.6243,-0.6314,-0.6381,-0.6381,-0.6384,-0.6387,-0.6387,-0.6387,-0.6387,-0.6387,-0.6387,-0.6387,-0.6139,-0.5992,-0.5992,-0.5992,-0.5992,-0.6015,-0.6287,-0.6534,-0.6831,-0.7122,-0.721,-0.721,-0.721,-0.721,-0.721,-0.721,-0.721,-0.721,-0.721,-0.721,-0.721,-0.721,-0.7244,-0.7023,-0.5852,-0.3791,-0.1727,-0.037,0.0,0.0,0.0,0.0,0.0,0.0,0.0,0.0,0.0,0.0264,0.0464,0.047,0.0808,0.1077,0.1077,0.1414,0.1481,0.1144,0.1414,0.1481,0.1144,0.1077,0.1077,0.1077,0.074,0.0471,0.0471,0.0202,0.0,0.0,0.0,0.0,0.0,0.0,0.0,0.0,0.0,0.0,-0.5324,0.0,0.0,0.0,0.0,0.0,0.0,0.0,-0.9012,-0.9723,-1.0051,-1.0342,-1.0715,-1.079,-1.0849,-1.1058,-1.1193,-1.1305,-1.1305,-1.1305,-1.1305,-1.1305,0.0,0.0,0.0,0.0,0.0,0.0,-0.9157,-0.8193,-0.7536,-0.6349,-0.5756,-0.595,-0.5986,-0.6105,-0.6314,-0.6314,-0.6355,-0.6387,-0.6387,-0.6387,-0.6387,-0.6387,-0.6387,-0.6387,-0.6337,-0.6189,-0.5992,-0.5789,-0.5589,-0.5512,-0.6128,-0.6426,-0.656,-0.701,-0.721,-0.721,-0.721,-0.721,-0.721,-0.721,-0.721,-0.721,-0.721,-0.721,-0.721,-0.721,-0.7307,-0.7163,-0.6092,-0.4586,-0.3078,-0.1726,-0.0679,0.0,0.0,0.0,0.0,0.0,0.0,0.0,0.0,0.0066,0.0201,0.0471,0.0606,0.074,0.1077,0.1212,0.1212,0.1077,0.1212,0.1212,0.1077,0.1077,0.0942,0.0673,0.0538,0.0404,0.0135,0.0067,0.0,0.0,0.0,0.0,0.0,0.0,0.0,0.0,0.0,0.0,-0.5593,-0.5986,0.0,0.0,0.0,0.0,-0.7262,-0.7736,0.0,0.0,-0.9464,-0.9766,-1.0211,-1.0383,-1.0536,-1.0676,-1.0896,-1.108,-1.1278,-1.1305,-1.1305,-1.1305,0.0,0.0,0.0,-1.0959,-1.0472,-0.9946,-0.8675,-0.7489,-0.6567,-0.5997,-0.5739,-0.5899,-0.5904,-0.6021,-0.6314,-0.6317,-0.6325,-0.6387,-0.6387,-0.6387,-0.6387,-0.6387,-0.6387,-0.6387,-0.6287,-0.6139,-0.5992,-0.5839,-0.5689,-0.5608,-0.6132,-0.644,-0.6608,-0.6959,-0.7169,-0.721,-0.721,-0.721,-0.721,-0.721,-0.721,-0.721,-0.721,-0.721,-0.7221,-0.7217,-0.7407,-0.7339,-0.6176,-0.5291,-0.4246,-0.2465,-0.1418,-0.068,-0.0124,0.0,0.0,0.0,0.0,0.0,0.0,0.0,0.0067,0.0269,0.0269,0.0404,0.0606,0.074,0.0808,0.0673,0.074,0.0808,0.0673,0.0673,0.0538,0.0337,0.0269,0.0202,0.0,0.0,0.0,0.0,0.0,0.0,0.0,0.0,0.0,0.0,0.0,0.0,-0.5912,-0.6256,0.0,0.0,0.0,0.0,-0.7397,-0.7439,-0.7589,0.0,-0.8851,-0.9157,-0.9631,-0.9927,-1.0105,-1.0132,-1.0353,-1.0656,-1.1155,-1.1252,-1.1268,-1.1268,0.0,0.0,-1.1132,-1.0386,-0.9816,-0.9593,-0.7929,-0.6567,-0.5733,-0.5688,-0.5734,-0.588,-0.5885,-0.6002,-0.6295,-0.6298,-0.6312,-0.6387,-0.6387,-0.6387,-0.6387,-0.6387,-0.6387,-0.6387,-0.6139,-0.6042,-0.6042,-0.6042,-0.5992,-0.5952,-0.6167,-0.6438,-0.6764,-0.694,-0.7111,-0.721,-0.721,-0.721,-0.721,-0.721,-0.721,-0.721,-0.721,-0.721,-0.7237,-0.7317,-0.7524,-0.7485,-0.6374,-0.6029,-0.5293,-0.2957,-0.2219,-0.1672,-0.0503,-0.0126,0.0,0.0,0.0,0.0,0.0,0.0,0.0,0.0,0.0,0.0,0.0,0.0269,0.0337,0.0,0.0269,0.0337,0.0,0.0,0.0,0.0,0.0,0.0,0.0,0.0,0.0,0.0,0.0,0.0,0.0,0.0,0.0,0.0,0.0,0.0,-0.6379,-0.6627,0.0,0.0,0.0,0.0,-0.6247,-0.6473,-0.6956,0.0,-0.7623,-0.7905,-0.8441,-0.8694,-0.8926,-0.9149,-0.9538,-1.0019,-1.064,-1.0939,-1.1052,-1.1052,0.0,0.0,-1.0255,-0.999,-0.9288,-0.7753,-0.6615,-0.5911,-0.5688,-0.5688,-0.5699,-0.5721,-0.5721,-0.5882,-0.6119,-0.6121,-0.6227,-0.6387,-0.6387,-0.6387,-0.6387,-0.6387,-0.6387,-0.6387,-0.6337,-0.6337,-0.6337,-0.6337,-0.6087,-0.5746,-0.6317,-0.6484,-0.6494,-0.6886,-0.7111,-0.721,-0.721,-0.721,-0.721,-0.721,-0.721,-0.721,-0.721,-0.721,-0.7256,-0.7421,-0.7589,-0.7668,-0.7535,-0.6705,-0.5784,-0.5232,-0.351,-0.1919,-0.1696,-0.0764,0.0,0.0,0.0,0.0,0.0,0.0,0.0,0.0,0.0,0.0,0.0,0.0067,0.0067,0.0,0.0067,0.0067,0.0,0.0,0.0,0.0,0.0,0.0,0.0,0.0,0.0,0.0,0.0,0.0,0.0,0.0,0.0,0.0,0.0,0.0,-0.6864,-0.6907,0.0,-0.6523,0.0,0.0,0.0,-0.6476,-0.6677,-0.7144,-0.7149,-0.7213,-0.7715,0.0,-0.8199,-0.8344,-0.8868,-0.9308,-0.9509,-1.0249,-1.081,-1.081,0.0,0.0,-0.9776,-0.8966,-0.7882,-0.652,-0.5952,-0.5688,-0.5688,-0.5688,-0.5688,-0.5688,-0.5688,-0.5817,-0.5994,-0.6053,-0.6176,-0.6352,-0.636,-0.6387,-0.6387,-0.6387,-0.6387,-0.6387,-0.6387,-0.6387,-0.6387,-0.6387,-0.6237,-0.6042,-0.6351,-0.6535,-0.6648,-0.6816,-0.7005,-0.721,-0.721,-0.721,-0.721,-0.721,-0.721,-0.721,-0.721,-0.7295,-0.7375,-0.7559,-0.7695,-0.7799,-0.7856,-0.738,-0.6705,-0.6029,-0.4369,-0.2789,-0.2155,-0.0962,0.0,0.0,0.0,0.0,0.0,0.0,0.0,0.0,0.0,0.0,0.0,0.0,0.0,0.0,0.0,0.0,0.0,0.0,0.0,0.0,0.0,0.0,0.0,0.0,0.0,0.0,0.0,0.0,0.0,0.0,0.0,0.0,0.0,0.0,0.0,0.0,0.0,0.0,0.0,-0.7026,0.0,0.0,0.0,-0.7122,-0.6945,0.0,0.0,0.0,0.0,0.0,0.0,0.0,0.0,-0.938,0.0,-1.0308,0.0,0.0,-0.9234,-0.7636,-0.6367,-0.5731,-0.561,-0.5615,-0.5686,-0.5688,-0.5688,-0.5688,-0.5688,-0.5742,-0.5901,-0.6024,-0.6149,-0.632,-0.6382,-0.6387,-0.6387,-0.6387,-0.6387,-0.6387,-0.6387,-0.6387,-0.6387,-0.6387,-0.6387,-0.6389,-0.6411,-0.6605,-0.6804,-0.6828,-0.6972,-0.721,-0.721,-0.721,-0.721,-0.721,-0.721,-0.7215,-0.7237,-0.7345,-0.7543,-0.7665,-0.7782,-0.7872,-0.7872,-0.7872,-0.7625,-0.6521,-0.5044,-0.3598,-0.2558,-0.1096,0.0,0.0,0.0,0.0,0.0,0.0,0.0,0.0,0.0,0.0,0.0,0.0,0.0,0.0,0.0,0.0,0.0,0.0,0.0,0.0,0.0,0.0,0.0,0.0,0.0,0.0,0.0,0.0,0.0,0.0,0.0,0.0,0.0,0.0,0.0,0.0,0.0,0.0,-0.7704,0.0,0.0,0.0,-0.6912,-0.6584,0.0,0.0,0.0,0.0,0.0,0.0,0.0,0.0,-0.7517,-0.8227,-0.891,0.0,0.0,0.0,0.0,-0.6238,-0.5294,-0.5502,-0.5371,-0.539,-0.5672,-0.5688,-0.5688,-0.5688,-0.5688,-0.5742,-0.5901,-0.6024,-0.6149,-0.632,-0.6382,-0.6387,-0.6387,-0.6387,-0.6387,-0.6387,-0.6387,-0.6387,-0.6387,-0.6387,-0.6387,-0.6398,-0.6556,-0.6681,-0.6815,-0.6923,-0.71,-0.721,-0.721,-0.721,-0.721,-0.721,-0.721,-0.7229,-0.7282,-0.741,-0.7543,-0.7665,-0.7782,-0.7872,-0.7872,-0.7872,-0.7869,-0.7686,-0.5716,-0.3846,-0.3708,-0.174,0.0,0.0,0.0,0.0,0.0,0.0,0.0,0.0,0.0,0.0,0.0,0.0,0.0,0.0,0.0,0.0,0.0,0.0,0.0,0.0,0.0,0.0,0.0,0.0,0.0,0.0,0.0,0.0,0.0,0.0,0.0,0.0,0.0,0.0,0.0,0.0,0.0,0.0,0.0,0.0,-0.6993,0.0,-0.6864,0.0,0.0,0.0,0.0,0.0,0.0,0.0,0.0,0.0,0.0,0.0,0.0,0.0,0.0,0.0,0.0,0.0,0.0,0.0,-0.5243,-0.5314,-0.5567,-0.565,-0.5688,-0.5688,-0.5688,-0.5712,-0.5803,-0.5991,-0.6111,-0.6165,-0.6347,-0.6387,-0.6387,-0.6387,-0.6387,-0.6387,-0.6387,-0.6387,-0.6387,-0.6387,-0.6387,-0.6406,-0.6649,-0.6757,-0.6817,-0.694,-0.7111,-0.721,-0.721,-0.721,-0.721,-0.721,-0.7201,-0.7282,-0.7404,-0.7527,-0.7649,-0.7766,-0.7834,-0.7872,-0.7872,-0.7872,-0.7686,-0.695,-0.5264,-0.3699,-0.2947,-0.1297,0.0,0.0,0.0,0.0,0.0,0.0,0.0,0.0,0.0,0.0,0.0,0.0,0.0,0.0,0.0,0.0,0.0,0.0,0.0,0.0,0.0,0.0,0.0,0.0,0.0,0.0,0.0,0.0,0.0,0.0,0.0,0.0,0.0,0.0,-0.8221,0.0,0.0,0.0,0.0,0.0,0.0,0.0,0.0,0.0,0.0,0.0,0.0,0.0,0.0,0.0,0.0,0.0,0.0,0.0,0.0,0.0,0.0,0.0,0.0,0.0,0.0,0.0,0.0,-0.5154,-0.5489,-0.5591,-0.5653,-0.5688,-0.5688,-0.5688,-0.5688,-0.5966,-0.6086,-0.6089,-0.6323,-0.6387,-0.6387,-0.6387,-0.6387,-0.6387,-0.6387,-0.6387,-0.6387,-0.6387,-0.6387,-0.6411,-0.6706,-0.6801,-0.682,-0.6975,-0.7139,-0.721,-0.721,-0.721,-0.721,-0.721,-0.7236,-0.7301,-0.7483,-0.7606,-0.7725,-0.7839,-0.7872,-0.7872,-0.7872,-0.7625,-0.7079,-0.6124,-0.4619,-0.31,-0.2194,-0.0915,0.0,0.0,0.0,0.0,0.0,0.0,0.0,0.0,0.0,0.0,0.0,0.0,0.0,0.0,0.0,0.0,0.0,0.0,0.0,0.0,0.0,0.0,0.0,0.0,0.0,0.0,0.0,0.0,0.0,0.0,0.0,0.0,0.0,0.0,0.0,0.0,0.0,-0.7707,0.0,0.0,0.0,0.0,-0.7337,0.0,0.0,0.0,0.0,0.0,0.0,0.0,0.0,0.0,0.0,0.0,0.0,0.0,0.0,0.0,0.0,0.0,-0.5045,0.0,-0.4982,0.0,-0.547,-0.551,-0.5567,-0.5686,-0.5688,-0.5688,-0.5688,-0.5966,-0.6086,-0.6089,-0.6323,-0.6387,-0.6387,-0.6387,-0.6387,-0.6387,-0.6387,-0.6387,-0.6387,-0.6387,-0.6387,-0.6411,-0.6706,-0.6801,-0.6831,-0.7117,-0.7207,-0.721,-0.721,-0.721,-0.721,-0.721,-0.7236,-0.7301,-0.7483,-0.7606,-0.7725,-0.7839,-0.7872,-0.7872,-0.7872,-0.695,-0.5929,-0.5892,-0.3963,-0.2031,-0.2026,-0.0921,0.0,0.0,0.0,0.0,0.0,0.0,0.0,0.0,0.0,0.0,0.0,0.0,0.0,0.0,0.0,0.0,0.0,0.0,0.0,0.0,0.0,0.0,0.0,0.0,0.0,0.0,0.0,0.0,0.0,0.0,0.0,0.0,0.0,0.0,0.0,0.0,-0.9642,-0.842,0.0,0.0,0.0,0.0,0.0,0.0,0.0,0.0,0.0,0.0,0.0,0.0,0.0,0.0,0.0,0.0,0.0,0.0,0.0,0.0,0.0,0.0,0.0,0.0,-0.4781,0.0,0.0,-0.5419,-0.5526,-0.5567,-0.5648,-0.5688,-0.5688,-0.5966,-0.6086,-0.6089,-0.6323,-0.6387,-0.6387,-0.6387,-0.6387,-0.6387,-0.6387,-0.6387,-0.6387,-0.6387,-0.6433,-0.6575,-0.6738,-0.6853,-0.6942,-0.7152,-0.721,-0.721,-0.721,-0.721,-0.7224,-0.7247,-0.7358,-0.7478,-0.7603,-0.7722,-0.782,-0.7858,-0.7872,-0.7872,-0.7872,-0.6879,-0.5691,-0.4778,-0.3259,-0.1755,-0.0854,-0.0332,0.0,0.0,0.0,0.0,0.0,0.0,0.0,0.0,0.0,0.0,0.0,0.0,0.0,0.0,0.0,0.0,0.0,0.0,0.0,0.0,0.0,0.0,0.0,0.0,0.0,0.0,0.0,0.0,0.0,0.0,0.0,0.0,0.0,0.0,-0.9857,-1.0062,0.0,-0.9017,-0.8872,0.0,-0.7591,0.0,0.0,0.0,0.0,0.0,0.0,0.0,0.0,0.0,0.0,0.0,0.0,-0.59,0.0,0.0,0.0,0.0,0.0,0.0,-0.4702,-0.4964,-0.4557,0.0,0.0,0.0,-0.5464,-0.5505,-0.5626,-0.571,-0.5793,-0.5988,-0.6108,-0.6154,-0.6344,-0.6387,-0.6387,-0.6387,-0.6387,-0.6387,-0.6387,-0.6387,-0.6387,-0.6387,-0.6457,-0.6632,-0.6755,-0.6877,-0.6999,-0.7166,-0.721,-0.721,-0.721,-0.7237,-0.723,-0.7309,-0.7448,-0.76,-0.7679,-0.778,-0.7872,-0.7872,-0.7872,-0.788,-0.7985,-0.6993,-0.5613,-0.4273,-0.2985,-0.1648,-0.0265,0.0,0.0,0.0,0.0,0.0,0.0,0.0,0.0,0.0,0.0,0.0,0.0,0.0,0.0,0.0,0.0,0.0,0.0,0.0,0.0,0.0,0.0,0.0,0.0,0.0,0.0,0.0,0.0,0.0,0.0,0.0,0.0,0.0,0.0,0.0072]}]]